<?xml version="1.0" encoding="UTF-8" standalone="no" ?>
<gpx xmlns="http://www.topografix.com/GPX/1/1" xmlns:xsi="http://www.w3.org/2001/XMLSchema-instance" xsi:schemaLocation="http://www.topografix.com/GPX/1/1 http://www.topografix.com/GPX/1/1/gpx.xsd" version="1.1" creator="VisuGPX - https://www.visugpx.com">
  <metadata>
    <name>col de blaux curban</name>
    <desc><![CDATA[col de blaux curban]]></desc>
  </metadata>
  <trk>
    <name><![CDATA[Parcours du 2020-09-05 09:57]]></name>
    <trkseg>
      <trkpt lat="44.45937" lon="6.19858">
        <ele>698.8</ele>
        <time>2020-09-05T08:01:22.000Z</time>
      </trkpt>
      <trkpt lat="44.45937" lon="6.19858">
        <ele>698.8</ele>
        <time>2020-09-05T08:01:22.000Z</time>
      </trkpt>
      <trkpt lat="44.45945" lon="6.1986">
        <ele>698.8</ele>
        <time>2020-09-05T08:01:25.000Z</time>
      </trkpt>
      <trkpt lat="44.45949" lon="6.19853">
        <ele>698.8</ele>
        <time>2020-09-05T08:01:27.000Z</time>
      </trkpt>
      <trkpt lat="44.45951" lon="6.19846">
        <ele>698.8</ele>
        <time>2020-09-05T08:01:29.000Z</time>
      </trkpt>
      <trkpt lat="44.45953" lon="6.19838">
        <ele>698.8</ele>
        <time>2020-09-05T08:01:33.000Z</time>
      </trkpt>
      <trkpt lat="44.45955" lon="6.1983">
        <ele>698.8</ele>
        <time>2020-09-05T08:01:35.000Z</time>
      </trkpt>
      <trkpt lat="44.45955" lon="6.19821">
        <ele>698.8</ele>
        <time>2020-09-05T08:01:39.000Z</time>
      </trkpt>
      <trkpt lat="44.4595" lon="6.19815">
        <ele>698.8</ele>
        <time>2020-09-05T08:01:42.000Z</time>
      </trkpt>
      <trkpt lat="44.45944" lon="6.19814">
        <ele>698.8</ele>
        <time>2020-09-05T08:01:44.000Z</time>
      </trkpt>
      <trkpt lat="44.45941" lon="6.19818">
        <ele>698.8</ele>
        <time>2020-09-05T08:01:46.000Z</time>
      </trkpt>
      <trkpt lat="44.45941" lon="6.19825">
        <ele>698.8</ele>
        <time>2020-09-05T08:01:48.000Z</time>
      </trkpt>
      <trkpt lat="44.45946" lon="6.19828">
        <ele>698.8</ele>
        <time>2020-09-05T08:01:50.000Z</time>
      </trkpt>
      <trkpt lat="44.4595" lon="6.19828">
        <ele>698.8</ele>
        <time>2020-09-05T08:01:52.000Z</time>
      </trkpt>
      <trkpt lat="44.45957" lon="6.19827">
        <ele>698.8</ele>
        <time>2020-09-05T08:01:55.000Z</time>
      </trkpt>
      <trkpt lat="44.45952" lon="6.19832">
        <ele>698.8</ele>
        <time>2020-09-05T08:01:59.000Z</time>
      </trkpt>
      <trkpt lat="44.45946" lon="6.1983">
        <ele>698.8</ele>
        <time>2020-09-05T08:02:01.000Z</time>
      </trkpt>
      <trkpt lat="44.4594" lon="6.19828">
        <ele>698.8</ele>
        <time>2020-09-05T08:02:03.000Z</time>
      </trkpt>
      <trkpt lat="44.45936" lon="6.19825">
        <ele>698.8</ele>
        <time>2020-09-05T08:02:06.000Z</time>
      </trkpt>
      <trkpt lat="44.45932" lon="6.19821">
        <ele>698.8</ele>
        <time>2020-09-05T08:02:10.000Z</time>
      </trkpt>
      <trkpt lat="44.45931" lon="6.19812">
        <ele>698.8</ele>
        <time>2020-09-05T08:02:13.000Z</time>
      </trkpt>
      <trkpt lat="44.45934" lon="6.19808">
        <ele>698.8</ele>
        <time>2020-09-05T08:02:15.000Z</time>
      </trkpt>
      <trkpt lat="44.45941" lon="6.19811">
        <ele>698.8</ele>
        <time>2020-09-05T08:02:18.000Z</time>
      </trkpt>
      <trkpt lat="44.4594" lon="6.19818">
        <ele>698.8</ele>
        <time>2020-09-05T08:02:20.000Z</time>
      </trkpt>
      <trkpt lat="44.45935" lon="6.1982">
        <ele>698.8</ele>
        <time>2020-09-05T08:02:22.000Z</time>
      </trkpt>
      <trkpt lat="44.45928" lon="6.19818">
        <ele>698.8</ele>
        <time>2020-09-05T08:02:24.000Z</time>
      </trkpt>
      <trkpt lat="44.45921" lon="6.19815">
        <ele>698.8</ele>
        <time>2020-09-05T08:02:26.000Z</time>
      </trkpt>
      <trkpt lat="44.4592" lon="6.198">
        <ele>698.8</ele>
        <time>2020-09-05T08:02:28.000Z</time>
      </trkpt>
      <trkpt lat="44.45922" lon="6.19789">
        <ele>698.8</ele>
        <time>2020-09-05T08:02:29.000Z</time>
      </trkpt>
      <trkpt lat="44.45923" lon="6.19776">
        <ele>698.8</ele>
        <time>2020-09-05T08:02:30.000Z</time>
      </trkpt>
      <trkpt lat="44.45926" lon="6.19746">
        <ele>698.8</ele>
        <time>2020-09-05T08:02:32.000Z</time>
      </trkpt>
      <trkpt lat="44.45929" lon="6.19731">
        <ele>698.8</ele>
        <time>2020-09-05T08:02:33.000Z</time>
      </trkpt>
      <trkpt lat="44.45941" lon="6.19704">
        <ele>698.8</ele>
        <time>2020-09-05T08:02:35.000Z</time>
      </trkpt>
      <trkpt lat="44.45957" lon="6.19688">
        <ele>698.8</ele>
        <time>2020-09-05T08:02:37.000Z</time>
      </trkpt>
      <trkpt lat="44.45968" lon="6.19672">
        <ele>698.8</ele>
        <time>2020-09-05T08:02:39.000Z</time>
      </trkpt>
      <trkpt lat="44.45972" lon="6.19659">
        <ele>698.8</ele>
        <time>2020-09-05T08:02:40.000Z</time>
      </trkpt>
      <trkpt lat="44.45978" lon="6.19628">
        <ele>698.8</ele>
        <time>2020-09-05T08:02:42.000Z</time>
      </trkpt>
      <trkpt lat="44.45982" lon="6.1959">
        <ele>698.8</ele>
        <time>2020-09-05T08:02:44.000Z</time>
      </trkpt>
      <trkpt lat="44.45984" lon="6.19545">
        <ele>698.8</ele>
        <time>2020-09-05T08:02:46.000Z</time>
      </trkpt>
      <trkpt lat="44.45988" lon="6.19502">
        <ele>698.8</ele>
        <time>2020-09-05T08:02:48.000Z</time>
      </trkpt>
      <trkpt lat="44.4599" lon="6.19481">
        <ele>698.8</ele>
        <time>2020-09-05T08:02:49.000Z</time>
      </trkpt>
      <trkpt lat="44.45992" lon="6.19438">
        <ele>698.8</ele>
        <time>2020-09-05T08:02:51.000Z</time>
      </trkpt>
      <trkpt lat="44.45995" lon="6.19398">
        <ele>698.8</ele>
        <time>2020-09-05T08:02:53.000Z</time>
      </trkpt>
      <trkpt lat="44.45998" lon="6.19358">
        <ele>698.8</ele>
        <time>2020-09-05T08:02:55.000Z</time>
      </trkpt>
      <trkpt lat="44.45999" lon="6.19338">
        <ele>698.8</ele>
        <time>2020-09-05T08:02:56.000Z</time>
      </trkpt>
      <trkpt lat="44.46002" lon="6.19296">
        <ele>698.8</ele>
        <time>2020-09-05T08:02:58.000Z</time>
      </trkpt>
      <trkpt lat="44.46005" lon="6.19253">
        <ele>698.8</ele>
        <time>2020-09-05T08:03:00.000Z</time>
      </trkpt>
      <trkpt lat="44.46008" lon="6.19214">
        <ele>698.8</ele>
        <time>2020-09-05T08:03:02.000Z</time>
      </trkpt>
      <trkpt lat="44.46009" lon="6.19192">
        <ele>698.8</ele>
        <time>2020-09-05T08:03:03.000Z</time>
      </trkpt>
      <trkpt lat="44.46012" lon="6.1915">
        <ele>698.8</ele>
        <time>2020-09-05T08:03:05.000Z</time>
      </trkpt>
      <trkpt lat="44.46013" lon="6.1913">
        <ele>698.8</ele>
        <time>2020-09-05T08:03:06.000Z</time>
      </trkpt>
      <trkpt lat="44.46014" lon="6.19109">
        <ele>698.8</ele>
        <time>2020-09-05T08:03:07.000Z</time>
      </trkpt>
      <trkpt lat="44.46017" lon="6.19064">
        <ele>698.8</ele>
        <time>2020-09-05T08:03:09.000Z</time>
      </trkpt>
      <trkpt lat="44.46025" lon="6.19025">
        <ele>698.8</ele>
        <time>2020-09-05T08:03:11.000Z</time>
      </trkpt>
      <trkpt lat="44.46028" lon="6.19006">
        <ele>698.8</ele>
        <time>2020-09-05T08:03:12.000Z</time>
      </trkpt>
      <trkpt lat="44.46031" lon="6.18965">
        <ele>698.8</ele>
        <time>2020-09-05T08:03:14.000Z</time>
      </trkpt>
      <trkpt lat="44.46033" lon="6.18945">
        <ele>698.8</ele>
        <time>2020-09-05T08:03:15.000Z</time>
      </trkpt>
      <trkpt lat="44.46035" lon="6.18901">
        <ele>682.5</ele>
        <time>2020-09-05T08:03:17.000Z</time>
      </trkpt>
      <trkpt lat="44.46036" lon="6.18863">
        <ele>681.6</ele>
        <time>2020-09-05T08:03:19.000Z</time>
      </trkpt>
      <trkpt lat="44.46033" lon="6.18851">
        <ele>681</ele>
        <time>2020-09-05T08:03:20.000Z</time>
      </trkpt>
      <trkpt lat="44.46026" lon="6.18835">
        <ele>681.8</ele>
        <time>2020-09-05T08:03:22.000Z</time>
      </trkpt>
      <trkpt lat="44.46025" lon="6.18824">
        <ele>681.5</ele>
        <time>2020-09-05T08:03:23.000Z</time>
      </trkpt>
      <trkpt lat="44.46026" lon="6.18811">
        <ele>681.8</ele>
        <time>2020-09-05T08:03:24.000Z</time>
      </trkpt>
      <trkpt lat="44.46029" lon="6.18796">
        <ele>681</ele>
        <time>2020-09-05T08:03:25.000Z</time>
      </trkpt>
      <trkpt lat="44.46031" lon="6.18778">
        <ele>681.1</ele>
        <time>2020-09-05T08:03:26.000Z</time>
      </trkpt>
      <trkpt lat="44.46034" lon="6.18735">
        <ele>681.5</ele>
        <time>2020-09-05T08:03:28.000Z</time>
      </trkpt>
      <trkpt lat="44.46033" lon="6.18711">
        <ele>681.4</ele>
        <time>2020-09-05T08:03:29.000Z</time>
      </trkpt>
      <trkpt lat="44.46029" lon="6.18672">
        <ele>683.1</ele>
        <time>2020-09-05T08:03:31.000Z</time>
      </trkpt>
      <trkpt lat="44.46031" lon="6.1864">
        <ele>683.3</ele>
        <time>2020-09-05T08:03:33.000Z</time>
      </trkpt>
      <trkpt lat="44.46034" lon="6.18623">
        <ele>684.1</ele>
        <time>2020-09-05T08:03:34.000Z</time>
      </trkpt>
      <trkpt lat="44.46037" lon="6.18606">
        <ele>684.5</ele>
        <time>2020-09-05T08:03:35.000Z</time>
      </trkpt>
      <trkpt lat="44.46042" lon="6.18566">
        <ele>684.4</ele>
        <time>2020-09-05T08:03:37.000Z</time>
      </trkpt>
      <trkpt lat="44.46044" lon="6.18523">
        <ele>684.5</ele>
        <time>2020-09-05T08:03:39.000Z</time>
      </trkpt>
      <trkpt lat="44.46045" lon="6.18503">
        <ele>685.8</ele>
        <time>2020-09-05T08:03:40.000Z</time>
      </trkpt>
      <trkpt lat="44.46047" lon="6.18482">
        <ele>685.4</ele>
        <time>2020-09-05T08:03:41.000Z</time>
      </trkpt>
      <trkpt lat="44.46049" lon="6.18461">
        <ele>685.7</ele>
        <time>2020-09-05T08:03:42.000Z</time>
      </trkpt>
      <trkpt lat="44.46051" lon="6.18416">
        <ele>686.8</ele>
        <time>2020-09-05T08:03:44.000Z</time>
      </trkpt>
      <trkpt lat="44.46052" lon="6.18392">
        <ele>686.6</ele>
        <time>2020-09-05T08:03:45.000Z</time>
      </trkpt>
      <trkpt lat="44.46054" lon="6.18369">
        <ele>686.2</ele>
        <time>2020-09-05T08:03:46.000Z</time>
      </trkpt>
      <trkpt lat="44.46058" lon="6.18327">
        <ele>686</ele>
        <time>2020-09-05T08:03:48.000Z</time>
      </trkpt>
      <trkpt lat="44.46058" lon="6.18308">
        <ele>686.5</ele>
        <time>2020-09-05T08:03:49.000Z</time>
      </trkpt>
      <trkpt lat="44.4606" lon="6.18289">
        <ele>685.5</ele>
        <time>2020-09-05T08:03:50.000Z</time>
      </trkpt>
      <trkpt lat="44.46064" lon="6.18249">
        <ele>685.6</ele>
        <time>2020-09-05T08:03:52.000Z</time>
      </trkpt>
      <trkpt lat="44.46069" lon="6.18199">
        <ele>686.2</ele>
        <time>2020-09-05T08:03:54.000Z</time>
      </trkpt>
      <trkpt lat="44.46072" lon="6.18175">
        <ele>687.6</ele>
        <time>2020-09-05T08:03:55.000Z</time>
      </trkpt>
      <trkpt lat="44.46075" lon="6.18153">
        <ele>687.4</ele>
        <time>2020-09-05T08:03:56.000Z</time>
      </trkpt>
      <trkpt lat="44.46079" lon="6.18117">
        <ele>688.2</ele>
        <time>2020-09-05T08:03:58.000Z</time>
      </trkpt>
      <trkpt lat="44.4608" lon="6.18098">
        <ele>688.1</ele>
        <time>2020-09-05T08:03:59.000Z</time>
      </trkpt>
      <trkpt lat="44.4608" lon="6.18077">
        <ele>687.9</ele>
        <time>2020-09-05T08:04:00.000Z</time>
      </trkpt>
      <trkpt lat="44.46082" lon="6.18055">
        <ele>688.1</ele>
        <time>2020-09-05T08:04:01.000Z</time>
      </trkpt>
      <trkpt lat="44.46084" lon="6.18033">
        <ele>688.3</ele>
        <time>2020-09-05T08:04:02.000Z</time>
      </trkpt>
      <trkpt lat="44.46086" lon="6.18011">
        <ele>688.5</ele>
        <time>2020-09-05T08:04:03.000Z</time>
      </trkpt>
      <trkpt lat="44.46088" lon="6.17967">
        <ele>687.8</ele>
        <time>2020-09-05T08:04:05.000Z</time>
      </trkpt>
      <trkpt lat="44.4609" lon="6.1795">
        <ele>687.7</ele>
        <time>2020-09-05T08:04:06.000Z</time>
      </trkpt>
      <trkpt lat="44.46093" lon="6.17935">
        <ele>687.9</ele>
        <time>2020-09-05T08:04:07.000Z</time>
      </trkpt>
      <trkpt lat="44.46103" lon="6.17908">
        <ele>685.5</ele>
        <time>2020-09-05T08:04:09.000Z</time>
      </trkpt>
      <trkpt lat="44.4611" lon="6.17893">
        <ele>683.6</ele>
        <time>2020-09-05T08:04:10.000Z</time>
      </trkpt>
      <trkpt lat="44.46118" lon="6.1786">
        <ele>681.4</ele>
        <time>2020-09-05T08:04:12.000Z</time>
      </trkpt>
      <trkpt lat="44.46121" lon="6.1784">
        <ele>680.9</ele>
        <time>2020-09-05T08:04:13.000Z</time>
      </trkpt>
      <trkpt lat="44.46127" lon="6.17797">
        <ele>681.4</ele>
        <time>2020-09-05T08:04:15.000Z</time>
      </trkpt>
      <trkpt lat="44.4613" lon="6.17774">
        <ele>681</ele>
        <time>2020-09-05T08:04:16.000Z</time>
      </trkpt>
      <trkpt lat="44.46134" lon="6.17753">
        <ele>680.6</ele>
        <time>2020-09-05T08:04:17.000Z</time>
      </trkpt>
      <trkpt lat="44.4614" lon="6.17716">
        <ele>680.7</ele>
        <time>2020-09-05T08:04:19.000Z</time>
      </trkpt>
      <trkpt lat="44.46146" lon="6.17678">
        <ele>681.5</ele>
        <time>2020-09-05T08:04:21.000Z</time>
      </trkpt>
      <trkpt lat="44.4615" lon="6.17637">
        <ele>683.5</ele>
        <time>2020-09-05T08:04:23.000Z</time>
      </trkpt>
      <trkpt lat="44.46151" lon="6.17615">
        <ele>683.1</ele>
        <time>2020-09-05T08:04:24.000Z</time>
      </trkpt>
      <trkpt lat="44.46153" lon="6.17593">
        <ele>682.7</ele>
        <time>2020-09-05T08:04:25.000Z</time>
      </trkpt>
      <trkpt lat="44.46156" lon="6.17571">
        <ele>682.7</ele>
        <time>2020-09-05T08:04:26.000Z</time>
      </trkpt>
      <trkpt lat="44.46159" lon="6.17552">
        <ele>683.4</ele>
        <time>2020-09-05T08:04:27.000Z</time>
      </trkpt>
      <trkpt lat="44.46164" lon="6.17522">
        <ele>683.7</ele>
        <time>2020-09-05T08:04:29.000Z</time>
      </trkpt>
      <trkpt lat="44.46165" lon="6.17511">
        <ele>684</ele>
        <time>2020-09-05T08:04:30.000Z</time>
      </trkpt>
      <trkpt lat="44.46165" lon="6.17499">
        <ele>683.4</ele>
        <time>2020-09-05T08:04:32.000Z</time>
      </trkpt>
      <trkpt lat="44.46165" lon="6.1749">
        <ele>683.9</ele>
        <time>2020-09-05T08:04:35.000Z</time>
      </trkpt>
      <trkpt lat="44.46168" lon="6.17483">
        <ele>684.9</ele>
        <time>2020-09-05T08:04:38.291Z</time>
      </trkpt>
      <trkpt lat="44.46172" lon="6.17477">
        <ele>682.8</ele>
        <time>2020-09-05T08:04:41.000Z</time>
      </trkpt>
      <trkpt lat="44.46177" lon="6.17473">
        <ele>683.4</ele>
        <time>2020-09-05T08:04:43.000Z</time>
      </trkpt>
      <trkpt lat="44.46183" lon="6.17464">
        <ele>684</ele>
        <time>2020-09-05T08:04:45.000Z</time>
      </trkpt>
      <trkpt lat="44.46184" lon="6.1745">
        <ele>682.1</ele>
        <time>2020-09-05T08:04:47.000Z</time>
      </trkpt>
      <trkpt lat="44.46186" lon="6.17428">
        <ele>682</ele>
        <time>2020-09-05T08:04:49.000Z</time>
      </trkpt>
      <trkpt lat="44.46187" lon="6.1742">
        <ele>681.9</ele>
        <time>2020-09-05T08:04:51.000Z</time>
      </trkpt>
      <trkpt lat="44.4619" lon="6.17411">
        <ele>677.5</ele>
        <time>2020-09-05T08:05:02.000Z</time>
      </trkpt>
      <trkpt lat="44.46192" lon="6.17402">
        <ele>677.7</ele>
        <time>2020-09-05T08:05:05.000Z</time>
      </trkpt>
      <trkpt lat="44.46193" lon="6.17391">
        <ele>677.1</ele>
        <time>2020-09-05T08:05:08.248Z</time>
      </trkpt>
      <trkpt lat="44.46193" lon="6.17381">
        <ele>676.1</ele>
        <time>2020-09-05T08:05:10.000Z</time>
      </trkpt>
      <trkpt lat="44.46193" lon="6.17366">
        <ele>677.4</ele>
        <time>2020-09-05T08:05:12.000Z</time>
      </trkpt>
      <trkpt lat="44.46194" lon="6.17357">
        <ele>678.5</ele>
        <time>2020-09-05T08:05:13.000Z</time>
      </trkpt>
      <trkpt lat="44.46194" lon="6.17345">
        <ele>679</ele>
        <time>2020-09-05T08:05:14.000Z</time>
      </trkpt>
      <trkpt lat="44.46195" lon="6.17335">
        <ele>679.6</ele>
        <time>2020-09-05T08:05:15.000Z</time>
      </trkpt>
      <trkpt lat="44.46196" lon="6.17321">
        <ele>679.8</ele>
        <time>2020-09-05T08:05:17.000Z</time>
      </trkpt>
      <trkpt lat="44.46198" lon="6.17316">
        <ele>677.8</ele>
        <time>2020-09-05T08:05:19.000Z</time>
      </trkpt>
      <trkpt lat="44.46198" lon="6.17296">
        <ele>679.3</ele>
        <time>2020-09-05T08:05:26.000Z</time>
      </trkpt>
      <trkpt lat="44.46199" lon="6.17285">
        <ele>679.4</ele>
        <time>2020-09-05T08:05:27.000Z</time>
      </trkpt>
      <trkpt lat="44.46199" lon="6.17277">
        <ele>678.8</ele>
        <time>2020-09-05T08:05:28.000Z</time>
      </trkpt>
      <trkpt lat="44.46196" lon="6.17262">
        <ele>679.6</ele>
        <time>2020-09-05T08:05:30.000Z</time>
      </trkpt>
      <trkpt lat="44.46194" lon="6.17255">
        <ele>680.2</ele>
        <time>2020-09-05T08:05:31.000Z</time>
      </trkpt>
      <trkpt lat="44.46196" lon="6.17241">
        <ele>679.8</ele>
        <time>2020-09-05T08:05:33.000Z</time>
      </trkpt>
      <trkpt lat="44.46198" lon="6.1723">
        <ele>676.8</ele>
        <time>2020-09-05T08:05:34.000Z</time>
      </trkpt>
      <trkpt lat="44.46201" lon="6.17218">
        <ele>677.1</ele>
        <time>2020-09-05T08:05:35.000Z</time>
      </trkpt>
      <trkpt lat="44.46203" lon="6.17208">
        <ele>677.3</ele>
        <time>2020-09-05T08:05:36.000Z</time>
      </trkpt>
      <trkpt lat="44.46203" lon="6.172">
        <ele>677.6</ele>
        <time>2020-09-05T08:05:37.000Z</time>
      </trkpt>
      <trkpt lat="44.46201" lon="6.17192">
        <ele>678.5</ele>
        <time>2020-09-05T08:05:38.000Z</time>
      </trkpt>
      <trkpt lat="44.46197" lon="6.17175">
        <ele>678.4</ele>
        <time>2020-09-05T08:05:40.000Z</time>
      </trkpt>
      <trkpt lat="44.46194" lon="6.17164">
        <ele>677.4</ele>
        <time>2020-09-05T08:05:43.000Z</time>
      </trkpt>
      <trkpt lat="44.46194" lon="6.17154">
        <ele>676.9</ele>
        <time>2020-09-05T08:05:45.000Z</time>
      </trkpt>
      <trkpt lat="44.4619" lon="6.17144">
        <ele>677</ele>
        <time>2020-09-05T08:05:47.000Z</time>
      </trkpt>
      <trkpt lat="44.46178" lon="6.17131">
        <ele>677</ele>
        <time>2020-09-05T08:05:50.000Z</time>
      </trkpt>
      <trkpt lat="44.46173" lon="6.17124">
        <ele>677.3</ele>
        <time>2020-09-05T08:05:51.287Z</time>
      </trkpt>
      <trkpt lat="44.46167" lon="6.17115">
        <ele>676.5</ele>
        <time>2020-09-05T08:05:53.000Z</time>
      </trkpt>
      <trkpt lat="44.46157" lon="6.17113">
        <ele>677.7</ele>
        <time>2020-09-05T08:05:57.000Z</time>
      </trkpt>
      <trkpt lat="44.46151" lon="6.17113">
        <ele>673.8</ele>
        <time>2020-09-05T08:05:58.000Z</time>
      </trkpt>
      <trkpt lat="44.46146" lon="6.17111">
        <ele>672.9</ele>
        <time>2020-09-05T08:05:59.000Z</time>
      </trkpt>
      <trkpt lat="44.4614" lon="6.17099">
        <ele>672.7</ele>
        <time>2020-09-05T08:06:01.000Z</time>
      </trkpt>
      <trkpt lat="44.46136" lon="6.17084">
        <ele>673</ele>
        <time>2020-09-05T08:06:02.000Z</time>
      </trkpt>
      <trkpt lat="44.46128" lon="6.17059">
        <ele>671.2</ele>
        <time>2020-09-05T08:06:04.000Z</time>
      </trkpt>
      <trkpt lat="44.46124" lon="6.1704">
        <ele>670.7</ele>
        <time>2020-09-05T08:06:06.000Z</time>
      </trkpt>
      <trkpt lat="44.46121" lon="6.1703">
        <ele>670.4</ele>
        <time>2020-09-05T08:06:07.000Z</time>
      </trkpt>
      <trkpt lat="44.4611" lon="6.17005">
        <ele>671.3</ele>
        <time>2020-09-05T08:06:09.000Z</time>
      </trkpt>
      <trkpt lat="44.46106" lon="6.16994">
        <ele>672.2</ele>
        <time>2020-09-05T08:06:10.000Z</time>
      </trkpt>
      <trkpt lat="44.46102" lon="6.16984">
        <ele>674</ele>
        <time>2020-09-05T08:06:11.000Z</time>
      </trkpt>
      <trkpt lat="44.46103" lon="6.16969">
        <ele>675.1</ele>
        <time>2020-09-05T08:06:13.000Z</time>
      </trkpt>
      <trkpt lat="44.46105" lon="6.16947">
        <ele>675.9</ele>
        <time>2020-09-05T08:06:15.000Z</time>
      </trkpt>
      <trkpt lat="44.46103" lon="6.16931">
        <ele>676.2</ele>
        <time>2020-09-05T08:06:16.000Z</time>
      </trkpt>
      <trkpt lat="44.46102" lon="6.16918">
        <ele>675.6</ele>
        <time>2020-09-05T08:06:17.000Z</time>
      </trkpt>
      <trkpt lat="44.46104" lon="6.16891">
        <ele>675.4</ele>
        <time>2020-09-05T08:06:19.000Z</time>
      </trkpt>
      <trkpt lat="44.46105" lon="6.16875">
        <ele>674.7</ele>
        <time>2020-09-05T08:06:20.000Z</time>
      </trkpt>
      <trkpt lat="44.46105" lon="6.16852">
        <ele>673.7</ele>
        <time>2020-09-05T08:06:22.000Z</time>
      </trkpt>
      <trkpt lat="44.46106" lon="6.16827">
        <ele>675</ele>
        <time>2020-09-05T08:06:24.000Z</time>
      </trkpt>
      <trkpt lat="44.46113" lon="6.16792">
        <ele>676.6</ele>
        <time>2020-09-05T08:06:26.000Z</time>
      </trkpt>
      <trkpt lat="44.46119" lon="6.16773">
        <ele>676.6</ele>
        <time>2020-09-05T08:06:27.000Z</time>
      </trkpt>
      <trkpt lat="44.46131" lon="6.16738">
        <ele>675.6</ele>
        <time>2020-09-05T08:06:29.000Z</time>
      </trkpt>
      <trkpt lat="44.46135" lon="6.1672">
        <ele>675.4</ele>
        <time>2020-09-05T08:06:30.000Z</time>
      </trkpt>
      <trkpt lat="44.46137" lon="6.16687">
        <ele>675.7</ele>
        <time>2020-09-05T08:06:32.000Z</time>
      </trkpt>
      <trkpt lat="44.46136" lon="6.1667">
        <ele>675.7</ele>
        <time>2020-09-05T08:06:33.000Z</time>
      </trkpt>
      <trkpt lat="44.46134" lon="6.16655">
        <ele>675.9</ele>
        <time>2020-09-05T08:06:34.000Z</time>
      </trkpt>
      <trkpt lat="44.4613" lon="6.16626">
        <ele>673.4</ele>
        <time>2020-09-05T08:06:36.000Z</time>
      </trkpt>
      <trkpt lat="44.46128" lon="6.16611">
        <ele>673.2</ele>
        <time>2020-09-05T08:06:37.000Z</time>
      </trkpt>
      <trkpt lat="44.46125" lon="6.16596">
        <ele>673.8</ele>
        <time>2020-09-05T08:06:38.000Z</time>
      </trkpt>
      <trkpt lat="44.46119" lon="6.16569">
        <ele>673.1</ele>
        <time>2020-09-05T08:06:40.000Z</time>
      </trkpt>
      <trkpt lat="44.46116" lon="6.16555">
        <ele>672.9</ele>
        <time>2020-09-05T08:06:41.000Z</time>
      </trkpt>
      <trkpt lat="44.46116" lon="6.16542">
        <ele>668.7</ele>
        <time>2020-09-05T08:06:42.000Z</time>
      </trkpt>
      <trkpt lat="44.46115" lon="6.16524">
        <ele>667.3</ele>
        <time>2020-09-05T08:06:44.000Z</time>
      </trkpt>
      <trkpt lat="44.46116" lon="6.16509">
        <ele>668.4</ele>
        <time>2020-09-05T08:06:46.000Z</time>
      </trkpt>
      <trkpt lat="44.46117" lon="6.16502">
        <ele>667.8</ele>
        <time>2020-09-05T08:06:47.000Z</time>
      </trkpt>
      <trkpt lat="44.46117" lon="6.16482">
        <ele>671.1</ele>
        <time>2020-09-05T08:06:49.000Z</time>
      </trkpt>
      <trkpt lat="44.4612" lon="6.16472">
        <ele>671</ele>
        <time>2020-09-05T08:06:50.000Z</time>
      </trkpt>
      <trkpt lat="44.46128" lon="6.16454">
        <ele>671.3</ele>
        <time>2020-09-05T08:06:52.000Z</time>
      </trkpt>
      <trkpt lat="44.46133" lon="6.16444">
        <ele>671.8</ele>
        <time>2020-09-05T08:06:53.000Z</time>
      </trkpt>
      <trkpt lat="44.46142" lon="6.16422">
        <ele>671.3</ele>
        <time>2020-09-05T08:06:55.000Z</time>
      </trkpt>
      <trkpt lat="44.46144" lon="6.1641">
        <ele>670.5</ele>
        <time>2020-09-05T08:06:56.000Z</time>
      </trkpt>
      <trkpt lat="44.46147" lon="6.16386">
        <ele>672.1</ele>
        <time>2020-09-05T08:06:58.000Z</time>
      </trkpt>
      <trkpt lat="44.46151" lon="6.16366">
        <ele>675</ele>
        <time>2020-09-05T08:07:00.000Z</time>
      </trkpt>
      <trkpt lat="44.46154" lon="6.16358">
        <ele>675.9</ele>
        <time>2020-09-05T08:07:01.000Z</time>
      </trkpt>
      <trkpt lat="44.46158" lon="6.16348">
        <ele>678</ele>
        <time>2020-09-05T08:07:02.000Z</time>
      </trkpt>
      <trkpt lat="44.46166" lon="6.16322">
        <ele>677.2</ele>
        <time>2020-09-05T08:07:04.000Z</time>
      </trkpt>
      <trkpt lat="44.46173" lon="6.16298">
        <ele>678.5</ele>
        <time>2020-09-05T08:07:06.000Z</time>
      </trkpt>
      <trkpt lat="44.46182" lon="6.16274">
        <ele>678.5</ele>
        <time>2020-09-05T08:07:08.000Z</time>
      </trkpt>
      <trkpt lat="44.46184" lon="6.16262">
        <ele>678.5</ele>
        <time>2020-09-05T08:07:09.000Z</time>
      </trkpt>
      <trkpt lat="44.46187" lon="6.16236">
        <ele>678.2</ele>
        <time>2020-09-05T08:07:11.000Z</time>
      </trkpt>
      <trkpt lat="44.46184" lon="6.16216">
        <ele>678.3</ele>
        <time>2020-09-05T08:07:13.000Z</time>
      </trkpt>
      <trkpt lat="44.46172" lon="6.16195">
        <ele>678.3</ele>
        <time>2020-09-05T08:07:15.000Z</time>
      </trkpt>
      <trkpt lat="44.46165" lon="6.16182">
        <ele>679.5</ele>
        <time>2020-09-05T08:07:16.000Z</time>
      </trkpt>
      <trkpt lat="44.46149" lon="6.16147">
        <ele>680.6</ele>
        <time>2020-09-05T08:07:18.000Z</time>
      </trkpt>
      <trkpt lat="44.46139" lon="6.16127">
        <ele>682.2</ele>
        <time>2020-09-05T08:07:19.000Z</time>
      </trkpt>
      <trkpt lat="44.4613" lon="6.16106">
        <ele>683.5</ele>
        <time>2020-09-05T08:07:20.000Z</time>
      </trkpt>
      <trkpt lat="44.4611" lon="6.16062">
        <ele>683.1</ele>
        <time>2020-09-05T08:07:22.000Z</time>
      </trkpt>
      <trkpt lat="44.4609" lon="6.16022">
        <ele>681.7</ele>
        <time>2020-09-05T08:07:24.000Z</time>
      </trkpt>
      <trkpt lat="44.46078" lon="6.15987">
        <ele>680.3</ele>
        <time>2020-09-05T08:07:26.000Z</time>
      </trkpt>
      <trkpt lat="44.46068" lon="6.15955">
        <ele>680.1</ele>
        <time>2020-09-05T08:07:28.000Z</time>
      </trkpt>
      <trkpt lat="44.4606" lon="6.15932">
        <ele>680.2</ele>
        <time>2020-09-05T08:07:30.000Z</time>
      </trkpt>
      <trkpt lat="44.4606" lon="6.15918">
        <ele>679.8</ele>
        <time>2020-09-05T08:07:32.000Z</time>
      </trkpt>
      <trkpt lat="44.4606" lon="6.15906">
        <ele>678.4</ele>
        <time>2020-09-05T08:07:34.000Z</time>
      </trkpt>
      <trkpt lat="44.46059" lon="6.159">
        <ele>678.8</ele>
        <time>2020-09-05T08:07:35.000Z</time>
      </trkpt>
      <trkpt lat="44.46053" lon="6.15871">
        <ele>679.4</ele>
        <time>2020-09-05T08:07:37.000Z</time>
      </trkpt>
      <trkpt lat="44.46051" lon="6.15856">
        <ele>679.5</ele>
        <time>2020-09-05T08:07:38.000Z</time>
      </trkpt>
      <trkpt lat="44.46052" lon="6.1584">
        <ele>679.5</ele>
        <time>2020-09-05T08:07:39.000Z</time>
      </trkpt>
      <trkpt lat="44.46053" lon="6.15807">
        <ele>678.5</ele>
        <time>2020-09-05T08:07:41.000Z</time>
      </trkpt>
      <trkpt lat="44.46056" lon="6.15777">
        <ele>678.5</ele>
        <time>2020-09-05T08:07:43.000Z</time>
      </trkpt>
      <trkpt lat="44.46058" lon="6.15763">
        <ele>677.6</ele>
        <time>2020-09-05T08:07:44.000Z</time>
      </trkpt>
      <trkpt lat="44.46061" lon="6.15743">
        <ele>676.4</ele>
        <time>2020-09-05T08:07:46.000Z</time>
      </trkpt>
      <trkpt lat="44.46064" lon="6.1572">
        <ele>674.4</ele>
        <time>2020-09-05T08:07:48.000Z</time>
      </trkpt>
      <trkpt lat="44.46067" lon="6.15695">
        <ele>674.2</ele>
        <time>2020-09-05T08:07:50.000Z</time>
      </trkpt>
      <trkpt lat="44.46072" lon="6.15671">
        <ele>674.8</ele>
        <time>2020-09-05T08:07:52.000Z</time>
      </trkpt>
      <trkpt lat="44.46073" lon="6.15659">
        <ele>675</ele>
        <time>2020-09-05T08:07:53.000Z</time>
      </trkpt>
      <trkpt lat="44.46074" lon="6.15641">
        <ele>674.7</ele>
        <time>2020-09-05T08:07:55.000Z</time>
      </trkpt>
      <trkpt lat="44.46077" lon="6.15613">
        <ele>674.5</ele>
        <time>2020-09-05T08:07:57.000Z</time>
      </trkpt>
      <trkpt lat="44.46077" lon="6.15603">
        <ele>672.8</ele>
        <time>2020-09-05T08:07:58.000Z</time>
      </trkpt>
      <trkpt lat="44.46077" lon="6.15586">
        <ele>671.5</ele>
        <time>2020-09-05T08:08:00.000Z</time>
      </trkpt>
      <trkpt lat="44.46082" lon="6.15572">
        <ele>674.1</ele>
        <time>2020-09-05T08:08:02.000Z</time>
      </trkpt>
      <trkpt lat="44.46086" lon="6.15565">
        <ele>673.9</ele>
        <time>2020-09-05T08:08:03.000Z</time>
      </trkpt>
      <trkpt lat="44.46093" lon="6.15548">
        <ele>672.9</ele>
        <time>2020-09-05T08:08:05.000Z</time>
      </trkpt>
      <trkpt lat="44.46095" lon="6.15539">
        <ele>672.6</ele>
        <time>2020-09-05T08:08:06.000Z</time>
      </trkpt>
      <trkpt lat="44.46095" lon="6.15531">
        <ele>673.1</ele>
        <time>2020-09-05T08:08:07.000Z</time>
      </trkpt>
      <trkpt lat="44.46094" lon="6.15522">
        <ele>673.5</ele>
        <time>2020-09-05T08:08:08.000Z</time>
      </trkpt>
      <trkpt lat="44.46086" lon="6.15503">
        <ele>674.5</ele>
        <time>2020-09-05T08:08:10.000Z</time>
      </trkpt>
      <trkpt lat="44.4608" lon="6.15482">
        <ele>673.8</ele>
        <time>2020-09-05T08:08:12.000Z</time>
      </trkpt>
      <trkpt lat="44.46077" lon="6.15468">
        <ele>674</ele>
        <time>2020-09-05T08:08:13.000Z</time>
      </trkpt>
      <trkpt lat="44.46078" lon="6.15438">
        <ele>674</ele>
        <time>2020-09-05T08:08:15.000Z</time>
      </trkpt>
      <trkpt lat="44.46079" lon="6.15423">
        <ele>673.9</ele>
        <time>2020-09-05T08:08:16.000Z</time>
      </trkpt>
      <trkpt lat="44.4608" lon="6.15407">
        <ele>673.5</ele>
        <time>2020-09-05T08:08:17.000Z</time>
      </trkpt>
      <trkpt lat="44.46081" lon="6.1539">
        <ele>674.1</ele>
        <time>2020-09-05T08:08:18.000Z</time>
      </trkpt>
      <trkpt lat="44.46083" lon="6.15358">
        <ele>675.7</ele>
        <time>2020-09-05T08:08:20.000Z</time>
      </trkpt>
      <trkpt lat="44.46084" lon="6.15334">
        <ele>671.3</ele>
        <time>2020-09-05T08:08:22.000Z</time>
      </trkpt>
      <trkpt lat="44.46085" lon="6.1532">
        <ele>671.3</ele>
        <time>2020-09-05T08:08:23.000Z</time>
      </trkpt>
      <trkpt lat="44.46084" lon="6.15288">
        <ele>671.1</ele>
        <time>2020-09-05T08:08:25.000Z</time>
      </trkpt>
      <trkpt lat="44.46084" lon="6.15274">
        <ele>671.3</ele>
        <time>2020-09-05T08:08:26.000Z</time>
      </trkpt>
      <trkpt lat="44.46089" lon="6.15251">
        <ele>672.5</ele>
        <time>2020-09-05T08:08:28.000Z</time>
      </trkpt>
      <trkpt lat="44.46092" lon="6.15242">
        <ele>670.1</ele>
        <time>2020-09-05T08:08:29.000Z</time>
      </trkpt>
      <trkpt lat="44.46094" lon="6.15222">
        <ele>668.6</ele>
        <time>2020-09-05T08:08:31.000Z</time>
      </trkpt>
      <trkpt lat="44.46085" lon="6.15202">
        <ele>669.8</ele>
        <time>2020-09-05T08:08:33.000Z</time>
      </trkpt>
      <trkpt lat="44.46082" lon="6.15188">
        <ele>668.4</ele>
        <time>2020-09-05T08:08:34.000Z</time>
      </trkpt>
      <trkpt lat="44.46079" lon="6.15172">
        <ele>664.5</ele>
        <time>2020-09-05T08:08:35.000Z</time>
      </trkpt>
      <trkpt lat="44.46072" lon="6.15142">
        <ele>666</ele>
        <time>2020-09-05T08:08:37.000Z</time>
      </trkpt>
      <trkpt lat="44.4607" lon="6.1513">
        <ele>666.8</ele>
        <time>2020-09-05T08:08:38.000Z</time>
      </trkpt>
      <trkpt lat="44.46068" lon="6.15121">
        <ele>667.3</ele>
        <time>2020-09-05T08:08:39.000Z</time>
      </trkpt>
      <trkpt lat="44.46066" lon="6.15111">
        <ele>667.8</ele>
        <time>2020-09-05T08:08:41.000Z</time>
      </trkpt>
      <trkpt lat="44.4607" lon="6.15106">
        <ele>672</ele>
        <time>2020-09-05T08:08:50.000Z</time>
      </trkpt>
      <trkpt lat="44.46074" lon="6.15103">
        <ele>670.3</ele>
        <time>2020-09-05T08:08:52.000Z</time>
      </trkpt>
      <trkpt lat="44.46084" lon="6.15097">
        <ele>671.9</ele>
        <time>2020-09-05T08:08:54.000Z</time>
      </trkpt>
      <trkpt lat="44.46099" lon="6.15092">
        <ele>671.6</ele>
        <time>2020-09-05T08:08:56.000Z</time>
      </trkpt>
      <trkpt lat="44.46108" lon="6.15092">
        <ele>671.3</ele>
        <time>2020-09-05T08:08:57.000Z</time>
      </trkpt>
      <trkpt lat="44.46117" lon="6.15095">
        <ele>670.6</ele>
        <time>2020-09-05T08:08:58.000Z</time>
      </trkpt>
      <trkpt lat="44.46135" lon="6.15106">
        <ele>670.6</ele>
        <time>2020-09-05T08:09:00.000Z</time>
      </trkpt>
      <trkpt lat="44.46144" lon="6.15115">
        <ele>670.6</ele>
        <time>2020-09-05T08:09:01.000Z</time>
      </trkpt>
      <trkpt lat="44.46166" lon="6.15137">
        <ele>669.5</ele>
        <time>2020-09-05T08:09:03.000Z</time>
      </trkpt>
      <trkpt lat="44.46177" lon="6.15146">
        <ele>670.4</ele>
        <time>2020-09-05T08:09:04.000Z</time>
      </trkpt>
      <trkpt lat="44.46188" lon="6.15153">
        <ele>671</ele>
        <time>2020-09-05T08:09:05.000Z</time>
      </trkpt>
      <trkpt lat="44.46195" lon="6.15161">
        <ele>671.9</ele>
        <time>2020-09-05T08:09:06.000Z</time>
      </trkpt>
      <trkpt lat="44.46205" lon="6.15171">
        <ele>672.3</ele>
        <time>2020-09-05T08:09:08.000Z</time>
      </trkpt>
      <trkpt lat="44.46209" lon="6.15175">
        <ele>672.6</ele>
        <time>2020-09-05T08:09:09.000Z</time>
      </trkpt>
      <trkpt lat="44.46215" lon="6.15178">
        <ele>672</ele>
        <time>2020-09-05T08:09:11.000Z</time>
      </trkpt>
      <trkpt lat="44.46217" lon="6.15167">
        <ele>672.2</ele>
        <time>2020-09-05T08:09:37.000Z</time>
      </trkpt>
      <trkpt lat="44.4622" lon="6.15153">
        <ele>671.4</ele>
        <time>2020-09-05T08:09:39.000Z</time>
      </trkpt>
      <trkpt lat="44.4622" lon="6.15132">
        <ele>670.9</ele>
        <time>2020-09-05T08:09:41.000Z</time>
      </trkpt>
      <trkpt lat="44.46221" lon="6.15122">
        <ele>670.6</ele>
        <time>2020-09-05T08:09:42.000Z</time>
      </trkpt>
      <trkpt lat="44.46222" lon="6.15113">
        <ele>670.7</ele>
        <time>2020-09-05T08:09:43.000Z</time>
      </trkpt>
      <trkpt lat="44.46223" lon="6.15102">
        <ele>668.2</ele>
        <time>2020-09-05T08:09:46.000Z</time>
      </trkpt>
      <trkpt lat="44.46223" lon="6.15093">
        <ele>668.6</ele>
        <time>2020-09-05T08:09:47.000Z</time>
      </trkpt>
      <trkpt lat="44.46225" lon="6.15081">
        <ele>668</ele>
        <time>2020-09-05T08:09:48.000Z</time>
      </trkpt>
      <trkpt lat="44.46228" lon="6.15055">
        <ele>667.4</ele>
        <time>2020-09-05T08:09:50.000Z</time>
      </trkpt>
      <trkpt lat="44.46233" lon="6.15024">
        <ele>668.2</ele>
        <time>2020-09-05T08:09:52.000Z</time>
      </trkpt>
      <trkpt lat="44.46236" lon="6.15009">
        <ele>668</ele>
        <time>2020-09-05T08:09:53.000Z</time>
      </trkpt>
      <trkpt lat="44.46244" lon="6.14977">
        <ele>668.9</ele>
        <time>2020-09-05T08:09:55.000Z</time>
      </trkpt>
      <trkpt lat="44.46254" lon="6.14944">
        <ele>668.3</ele>
        <time>2020-09-05T08:09:57.000Z</time>
      </trkpt>
      <trkpt lat="44.46267" lon="6.14914">
        <ele>670.1</ele>
        <time>2020-09-05T08:09:59.000Z</time>
      </trkpt>
      <trkpt lat="44.46279" lon="6.14882">
        <ele>670.7</ele>
        <time>2020-09-05T08:10:01.000Z</time>
      </trkpt>
      <trkpt lat="44.46284" lon="6.14866">
        <ele>671.1</ele>
        <time>2020-09-05T08:10:02.000Z</time>
      </trkpt>
      <trkpt lat="44.46294" lon="6.14837">
        <ele>671.8</ele>
        <time>2020-09-05T08:10:04.000Z</time>
      </trkpt>
      <trkpt lat="44.46299" lon="6.14821">
        <ele>671.2</ele>
        <time>2020-09-05T08:10:05.000Z</time>
      </trkpt>
      <trkpt lat="44.46304" lon="6.14805">
        <ele>672.1</ele>
        <time>2020-09-05T08:10:06.000Z</time>
      </trkpt>
      <trkpt lat="44.46313" lon="6.14778">
        <ele>672.2</ele>
        <time>2020-09-05T08:10:08.000Z</time>
      </trkpt>
      <trkpt lat="44.46317" lon="6.14764">
        <ele>672.9</ele>
        <time>2020-09-05T08:10:09.000Z</time>
      </trkpt>
      <trkpt lat="44.46319" lon="6.14751">
        <ele>673.2</ele>
        <time>2020-09-05T08:10:10.000Z</time>
      </trkpt>
      <trkpt lat="44.46325" lon="6.14726">
        <ele>672.8</ele>
        <time>2020-09-05T08:10:12.000Z</time>
      </trkpt>
      <trkpt lat="44.46333" lon="6.14702">
        <ele>672.2</ele>
        <time>2020-09-05T08:10:14.000Z</time>
      </trkpt>
      <trkpt lat="44.46336" lon="6.14684">
        <ele>671.9</ele>
        <time>2020-09-05T08:10:16.000Z</time>
      </trkpt>
      <trkpt lat="44.46336" lon="6.14674">
        <ele>670.7</ele>
        <time>2020-09-05T08:10:17.000Z</time>
      </trkpt>
      <trkpt lat="44.46336" lon="6.14663">
        <ele>670.3</ele>
        <time>2020-09-05T08:10:18.000Z</time>
      </trkpt>
      <trkpt lat="44.46334" lon="6.14644">
        <ele>671.5</ele>
        <time>2020-09-05T08:10:20.000Z</time>
      </trkpt>
      <trkpt lat="44.46331" lon="6.14635">
        <ele>672.2</ele>
        <time>2020-09-05T08:10:21.000Z</time>
      </trkpt>
      <trkpt lat="44.46311" lon="6.14581">
        <ele>672.8</ele>
        <time>2020-09-05T08:10:27.000Z</time>
      </trkpt>
      <trkpt lat="44.46308" lon="6.14563">
        <ele>672.4</ele>
        <time>2020-09-05T08:10:29.000Z</time>
      </trkpt>
      <trkpt lat="44.46305" lon="6.14556">
        <ele>671.8</ele>
        <time>2020-09-05T08:10:30.000Z</time>
      </trkpt>
      <trkpt lat="44.46306" lon="6.14536">
        <ele>671</ele>
        <time>2020-09-05T08:10:36.000Z</time>
      </trkpt>
      <trkpt lat="44.46307" lon="6.14512">
        <ele>671</ele>
        <time>2020-09-05T08:10:38.000Z</time>
      </trkpt>
      <trkpt lat="44.46307" lon="6.14499">
        <ele>671.4</ele>
        <time>2020-09-05T08:10:39.000Z</time>
      </trkpt>
      <trkpt lat="44.46309" lon="6.14477">
        <ele>671.2</ele>
        <time>2020-09-05T08:10:41.000Z</time>
      </trkpt>
      <trkpt lat="44.46311" lon="6.14468">
        <ele>670.6</ele>
        <time>2020-09-05T08:10:42.000Z</time>
      </trkpt>
      <trkpt lat="44.46317" lon="6.14449">
        <ele>674</ele>
        <time>2020-09-05T08:10:44.000Z</time>
      </trkpt>
      <trkpt lat="44.46322" lon="6.14433">
        <ele>673.6</ele>
        <time>2020-09-05T08:10:46.000Z</time>
      </trkpt>
      <trkpt lat="44.46325" lon="6.14427">
        <ele>673.5</ele>
        <time>2020-09-05T08:10:47.000Z</time>
      </trkpt>
      <trkpt lat="44.46333" lon="6.14415">
        <ele>671.9</ele>
        <time>2020-09-05T08:10:49.000Z</time>
      </trkpt>
      <trkpt lat="44.46341" lon="6.14406">
        <ele>673.7</ele>
        <time>2020-09-05T08:10:51.000Z</time>
      </trkpt>
      <trkpt lat="44.46348" lon="6.14402">
        <ele>674.7</ele>
        <time>2020-09-05T08:10:53.000Z</time>
      </trkpt>
      <trkpt lat="44.46354" lon="6.144">
        <ele>674.2</ele>
        <time>2020-09-05T08:10:55.000Z</time>
      </trkpt>
      <trkpt lat="44.46363" lon="6.14396">
        <ele>671.8</ele>
        <time>2020-09-05T08:10:58.000Z</time>
      </trkpt>
      <trkpt lat="44.46362" lon="6.1438">
        <ele>670.6</ele>
        <time>2020-09-05T08:11:01.000Z</time>
      </trkpt>
      <trkpt lat="44.46365" lon="6.14374">
        <ele>669.6</ele>
        <time>2020-09-05T08:11:03.000Z</time>
      </trkpt>
      <trkpt lat="44.46372" lon="6.14365">
        <ele>669.1</ele>
        <time>2020-09-05T08:11:06.000Z</time>
      </trkpt>
      <trkpt lat="44.46374" lon="6.14354">
        <ele>667.3</ele>
        <time>2020-09-05T08:11:08.000Z</time>
      </trkpt>
      <trkpt lat="44.46376" lon="6.14345">
        <ele>667.6</ele>
        <time>2020-09-05T08:11:09.000Z</time>
      </trkpt>
      <trkpt lat="44.46379" lon="6.14327">
        <ele>670.5</ele>
        <time>2020-09-05T08:11:11.000Z</time>
      </trkpt>
      <trkpt lat="44.46385" lon="6.14316">
        <ele>669.2</ele>
        <time>2020-09-05T08:11:13.000Z</time>
      </trkpt>
      <trkpt lat="44.46391" lon="6.14303">
        <ele>669.4</ele>
        <time>2020-09-05T08:11:15.000Z</time>
      </trkpt>
      <trkpt lat="44.46396" lon="6.14293">
        <ele>668.8</ele>
        <time>2020-09-05T08:11:16.000Z</time>
      </trkpt>
      <trkpt lat="44.46401" lon="6.14283">
        <ele>669.5</ele>
        <time>2020-09-05T08:11:17.000Z</time>
      </trkpt>
      <trkpt lat="44.46407" lon="6.14275">
        <ele>668.2</ele>
        <time>2020-09-05T08:11:18.000Z</time>
      </trkpt>
      <trkpt lat="44.46419" lon="6.14256">
        <ele>667.7</ele>
        <time>2020-09-05T08:11:20.000Z</time>
      </trkpt>
      <trkpt lat="44.46427" lon="6.14233">
        <ele>667.9</ele>
        <time>2020-09-05T08:11:22.000Z</time>
      </trkpt>
      <trkpt lat="44.46428" lon="6.14224">
        <ele>664.6</ele>
        <time>2020-09-05T08:11:23.000Z</time>
      </trkpt>
      <trkpt lat="44.4643" lon="6.14217">
        <ele>664.6</ele>
        <time>2020-09-05T08:11:24.000Z</time>
      </trkpt>
      <trkpt lat="44.46433" lon="6.14213">
        <ele>665.5</ele>
        <time>2020-09-05T08:11:25.819Z</time>
      </trkpt>
      <trkpt lat="44.46437" lon="6.142">
        <ele>665.6</ele>
        <time>2020-09-05T08:11:28.000Z</time>
      </trkpt>
      <trkpt lat="44.46432" lon="6.14189">
        <ele>667.5</ele>
        <time>2020-09-05T08:11:30.867Z</time>
      </trkpt>
      <trkpt lat="44.46431" lon="6.14182">
        <ele>665.9</ele>
        <time>2020-09-05T08:11:31.873Z</time>
      </trkpt>
      <trkpt lat="44.46431" lon="6.14175">
        <ele>666.1</ele>
        <time>2020-09-05T08:11:33.073Z</time>
      </trkpt>
      <trkpt lat="44.46431" lon="6.14165">
        <ele>664.2</ele>
        <time>2020-09-05T08:11:34.000Z</time>
      </trkpt>
      <trkpt lat="44.46431" lon="6.14157">
        <ele>664.1</ele>
        <time>2020-09-05T08:11:35.000Z</time>
      </trkpt>
      <trkpt lat="44.46429" lon="6.14143">
        <ele>662.4</ele>
        <time>2020-09-05T08:11:37.000Z</time>
      </trkpt>
      <trkpt lat="44.46429" lon="6.14137">
        <ele>662</ele>
        <time>2020-09-05T08:11:38.000Z</time>
      </trkpt>
      <trkpt lat="44.46433" lon="6.14114">
        <ele>661.7</ele>
        <time>2020-09-05T08:11:40.000Z</time>
      </trkpt>
      <trkpt lat="44.46434" lon="6.141">
        <ele>661.4</ele>
        <time>2020-09-05T08:11:41.000Z</time>
      </trkpt>
      <trkpt lat="44.46436" lon="6.14086">
        <ele>662.2</ele>
        <time>2020-09-05T08:11:42.000Z</time>
      </trkpt>
      <trkpt lat="44.46442" lon="6.1406">
        <ele>662.2</ele>
        <time>2020-09-05T08:11:44.000Z</time>
      </trkpt>
      <trkpt lat="44.46448" lon="6.14047">
        <ele>662.6</ele>
        <time>2020-09-05T08:11:45.000Z</time>
      </trkpt>
      <trkpt lat="44.46465" lon="6.14023">
        <ele>663.8</ele>
        <time>2020-09-05T08:11:47.000Z</time>
      </trkpt>
      <trkpt lat="44.46475" lon="6.14012">
        <ele>662.5</ele>
        <time>2020-09-05T08:11:48.000Z</time>
      </trkpt>
      <trkpt lat="44.46496" lon="6.13995">
        <ele>663.4</ele>
        <time>2020-09-05T08:11:50.000Z</time>
      </trkpt>
      <trkpt lat="44.46505" lon="6.13988">
        <ele>663.4</ele>
        <time>2020-09-05T08:11:51.000Z</time>
      </trkpt>
      <trkpt lat="44.46511" lon="6.13982">
        <ele>663.5</ele>
        <time>2020-09-05T08:11:52.000Z</time>
      </trkpt>
      <trkpt lat="44.46516" lon="6.13973">
        <ele>662.8</ele>
        <time>2020-09-05T08:11:53.000Z</time>
      </trkpt>
      <trkpt lat="44.46525" lon="6.13951">
        <ele>661.4</ele>
        <time>2020-09-05T08:11:55.000Z</time>
      </trkpt>
      <trkpt lat="44.46531" lon="6.13935">
        <ele>663.3</ele>
        <time>2020-09-05T08:11:57.000Z</time>
      </trkpt>
      <trkpt lat="44.46531" lon="6.13927">
        <ele>664.9</ele>
        <time>2020-09-05T08:11:59.000Z</time>
      </trkpt>
      <trkpt lat="44.46533" lon="6.13919">
        <ele>670.2</ele>
        <time>2020-09-05T08:13:43.000Z</time>
      </trkpt>
      <trkpt lat="44.46533" lon="6.13907">
        <ele>671.7</ele>
        <time>2020-09-05T08:13:45.000Z</time>
      </trkpt>
      <trkpt lat="44.46534" lon="6.13898">
        <ele>672.6</ele>
        <time>2020-09-05T08:13:46.000Z</time>
      </trkpt>
      <trkpt lat="44.46536" lon="6.13879">
        <ele>674.1</ele>
        <time>2020-09-05T08:13:48.000Z</time>
      </trkpt>
      <trkpt lat="44.46536" lon="6.13871">
        <ele>674.5</ele>
        <time>2020-09-05T08:13:49.000Z</time>
      </trkpt>
      <trkpt lat="44.46535" lon="6.1385">
        <ele>675.2</ele>
        <time>2020-09-05T08:13:51.000Z</time>
      </trkpt>
      <trkpt lat="44.46531" lon="6.13837">
        <ele>675.6</ele>
        <time>2020-09-05T08:13:52.000Z</time>
      </trkpt>
      <trkpt lat="44.46521" lon="6.13812">
        <ele>677.5</ele>
        <time>2020-09-05T08:13:54.000Z</time>
      </trkpt>
      <trkpt lat="44.46506" lon="6.13795">
        <ele>678.7</ele>
        <time>2020-09-05T08:13:56.000Z</time>
      </trkpt>
      <trkpt lat="44.46491" lon="6.13777">
        <ele>681.5</ele>
        <time>2020-09-05T08:13:58.000Z</time>
      </trkpt>
      <trkpt lat="44.46483" lon="6.13772">
        <ele>683.7</ele>
        <time>2020-09-05T08:13:59.000Z</time>
      </trkpt>
      <trkpt lat="44.46475" lon="6.13768">
        <ele>684.8</ele>
        <time>2020-09-05T08:14:00.000Z</time>
      </trkpt>
      <trkpt lat="44.46467" lon="6.13767">
        <ele>685</ele>
        <time>2020-09-05T08:14:01.000Z</time>
      </trkpt>
      <trkpt lat="44.46457" lon="6.1377">
        <ele>685.1</ele>
        <time>2020-09-05T08:14:02.000Z</time>
      </trkpt>
      <trkpt lat="44.4643" lon="6.13779">
        <ele>687.5</ele>
        <time>2020-09-05T08:14:04.000Z</time>
      </trkpt>
      <trkpt lat="44.46414" lon="6.13783">
        <ele>687.8</ele>
        <time>2020-09-05T08:14:05.000Z</time>
      </trkpt>
      <trkpt lat="44.46399" lon="6.13784">
        <ele>689.6</ele>
        <time>2020-09-05T08:14:06.000Z</time>
      </trkpt>
      <trkpt lat="44.46373" lon="6.13781">
        <ele>692</ele>
        <time>2020-09-05T08:14:08.000Z</time>
      </trkpt>
      <trkpt lat="44.46344" lon="6.13772">
        <ele>692</ele>
        <time>2020-09-05T08:14:10.000Z</time>
      </trkpt>
      <trkpt lat="44.46329" lon="6.13767">
        <ele>693.8</ele>
        <time>2020-09-05T08:14:11.000Z</time>
      </trkpt>
      <trkpt lat="44.46316" lon="6.13763">
        <ele>695.8</ele>
        <time>2020-09-05T08:14:12.000Z</time>
      </trkpt>
      <trkpt lat="44.46297" lon="6.13759">
        <ele>698.4</ele>
        <time>2020-09-05T08:14:14.000Z</time>
      </trkpt>
      <trkpt lat="44.46292" lon="6.13757">
        <ele>698.5</ele>
        <time>2020-09-05T08:14:15.000Z</time>
      </trkpt>
      <trkpt lat="44.46283" lon="6.13757">
        <ele>699.6</ele>
        <time>2020-09-05T08:14:17.000Z</time>
      </trkpt>
      <trkpt lat="44.46267" lon="6.13759">
        <ele>699.3</ele>
        <time>2020-09-05T08:14:19.000Z</time>
      </trkpt>
      <trkpt lat="44.46245" lon="6.13765">
        <ele>703.2</ele>
        <time>2020-09-05T08:14:21.000Z</time>
      </trkpt>
      <trkpt lat="44.46232" lon="6.1377">
        <ele>703.9</ele>
        <time>2020-09-05T08:14:22.000Z</time>
      </trkpt>
      <trkpt lat="44.4622" lon="6.13772">
        <ele>704.1</ele>
        <time>2020-09-05T08:14:23.000Z</time>
      </trkpt>
      <trkpt lat="44.4621" lon="6.13773">
        <ele>705.4</ele>
        <time>2020-09-05T08:14:24.000Z</time>
      </trkpt>
      <trkpt lat="44.46192" lon="6.13768">
        <ele>706</ele>
        <time>2020-09-05T08:14:26.000Z</time>
      </trkpt>
      <trkpt lat="44.46183" lon="6.13762">
        <ele>707.1</ele>
        <time>2020-09-05T08:14:27.000Z</time>
      </trkpt>
      <trkpt lat="44.46164" lon="6.1375">
        <ele>711</ele>
        <time>2020-09-05T08:14:29.000Z</time>
      </trkpt>
      <trkpt lat="44.46152" lon="6.13741">
        <ele>712.5</ele>
        <time>2020-09-05T08:14:31.000Z</time>
      </trkpt>
      <trkpt lat="44.46147" lon="6.13736">
        <ele>712.9</ele>
        <time>2020-09-05T08:14:32.000Z</time>
      </trkpt>
      <trkpt lat="44.46144" lon="6.1373">
        <ele>713.4</ele>
        <time>2020-09-05T08:14:33.000Z</time>
      </trkpt>
      <trkpt lat="44.46141" lon="6.13724">
        <ele>715.4</ele>
        <time>2020-09-05T08:14:34.000Z</time>
      </trkpt>
      <trkpt lat="44.46132" lon="6.13717">
        <ele>716.4</ele>
        <time>2020-09-05T08:14:36.000Z</time>
      </trkpt>
      <trkpt lat="44.46128" lon="6.13713">
        <ele>717.1</ele>
        <time>2020-09-05T08:14:37.000Z</time>
      </trkpt>
      <trkpt lat="44.46121" lon="6.13703">
        <ele>717.7</ele>
        <time>2020-09-05T08:14:39.000Z</time>
      </trkpt>
      <trkpt lat="44.4612" lon="6.13695">
        <ele>717.1</ele>
        <time>2020-09-05T08:14:41.000Z</time>
      </trkpt>
      <trkpt lat="44.46118" lon="6.13683">
        <ele>718.6</ele>
        <time>2020-09-05T08:14:43.000Z</time>
      </trkpt>
      <trkpt lat="44.46112" lon="6.13668">
        <ele>720.5</ele>
        <time>2020-09-05T08:14:45.000Z</time>
      </trkpt>
      <trkpt lat="44.46107" lon="6.13663">
        <ele>718.2</ele>
        <time>2020-09-05T08:14:46.000Z</time>
      </trkpt>
      <trkpt lat="44.46101" lon="6.13658">
        <ele>719.6</ele>
        <time>2020-09-05T08:14:47.000Z</time>
      </trkpt>
      <trkpt lat="44.46086" lon="6.1365">
        <ele>719.5</ele>
        <time>2020-09-05T08:14:49.000Z</time>
      </trkpt>
      <trkpt lat="44.46072" lon="6.13648">
        <ele>720.6</ele>
        <time>2020-09-05T08:14:51.000Z</time>
      </trkpt>
      <trkpt lat="44.4606" lon="6.13653">
        <ele>722.8</ele>
        <time>2020-09-05T08:14:53.000Z</time>
      </trkpt>
      <trkpt lat="44.46053" lon="6.13657">
        <ele>724.5</ele>
        <time>2020-09-05T08:14:54.000Z</time>
      </trkpt>
      <trkpt lat="44.46047" lon="6.1366">
        <ele>724.1</ele>
        <time>2020-09-05T08:14:55.000Z</time>
      </trkpt>
      <trkpt lat="44.46037" lon="6.1366">
        <ele>725</ele>
        <time>2020-09-05T08:14:58.000Z</time>
      </trkpt>
      <trkpt lat="44.46034" lon="6.13669">
        <ele>729.7</ele>
        <time>2020-09-05T08:15:30.000Z</time>
      </trkpt>
      <trkpt lat="44.46034" lon="6.13677">
        <ele>728.5</ele>
        <time>2020-09-05T08:15:31.274Z</time>
      </trkpt>
      <trkpt lat="44.46035" lon="6.13685">
        <ele>730.2</ele>
        <time>2020-09-05T08:15:33.000Z</time>
      </trkpt>
      <trkpt lat="44.46035" lon="6.13696">
        <ele>726.9</ele>
        <time>2020-09-05T08:15:36.000Z</time>
      </trkpt>
      <trkpt lat="44.46034" lon="6.13705">
        <ele>728.4</ele>
        <time>2020-09-05T08:15:38.000Z</time>
      </trkpt>
      <trkpt lat="44.46029" lon="6.1371">
        <ele>732.4</ele>
        <time>2020-09-05T08:15:41.000Z</time>
      </trkpt>
      <trkpt lat="44.46024" lon="6.13707">
        <ele>735.3</ele>
        <time>2020-09-05T08:15:43.000Z</time>
      </trkpt>
      <trkpt lat="44.46017" lon="6.13703">
        <ele>740.2</ele>
        <time>2020-09-05T08:15:45.000Z</time>
      </trkpt>
      <trkpt lat="44.46012" lon="6.137">
        <ele>742.5</ele>
        <time>2020-09-05T08:15:46.000Z</time>
      </trkpt>
      <trkpt lat="44.46001" lon="6.13695">
        <ele>745.9</ele>
        <time>2020-09-05T08:15:48.000Z</time>
      </trkpt>
      <trkpt lat="44.45998" lon="6.13689">
        <ele>751.4</ele>
        <time>2020-09-05T08:16:07.000Z</time>
      </trkpt>
      <trkpt lat="44.45993" lon="6.13693">
        <ele>760.3</ele>
        <time>2020-09-05T08:16:30.000Z</time>
      </trkpt>
      <trkpt lat="44.45988" lon="6.13695">
        <ele>761.6</ele>
        <time>2020-09-05T08:16:35.000Z</time>
      </trkpt>
      <trkpt lat="44.45991" lon="6.13702">
        <ele>760.2</ele>
        <time>2020-09-05T08:16:40.000Z</time>
      </trkpt>
      <trkpt lat="44.45995" lon="6.13708">
        <ele>759.1</ele>
        <time>2020-09-05T08:16:42.000Z</time>
      </trkpt>
      <trkpt lat="44.45998" lon="6.13715">
        <ele>760.3</ele>
        <time>2020-09-05T08:16:43.714Z</time>
      </trkpt>
      <trkpt lat="44.46" lon="6.13722">
        <ele>761.7</ele>
        <time>2020-09-05T08:16:45.000Z</time>
      </trkpt>
      <trkpt lat="44.45995" lon="6.13724">
        <ele>766.9</ele>
        <time>2020-09-05T08:16:50.000Z</time>
      </trkpt>
      <trkpt lat="44.45987" lon="6.13721">
        <ele>767</ele>
        <time>2020-09-05T08:16:53.781Z</time>
      </trkpt>
      <trkpt lat="44.45982" lon="6.1372">
        <ele>767.8</ele>
        <time>2020-09-05T08:16:55.000Z</time>
      </trkpt>
      <trkpt lat="44.45976" lon="6.1372">
        <ele>767.9</ele>
        <time>2020-09-05T08:16:57.000Z</time>
      </trkpt>
      <trkpt lat="44.45971" lon="6.13723">
        <ele>771.4</ele>
        <time>2020-09-05T08:17:00.000Z</time>
      </trkpt>
      <trkpt lat="44.45973" lon="6.13729">
        <ele>773.6</ele>
        <time>2020-09-05T08:17:05.000Z</time>
      </trkpt>
      <trkpt lat="44.45984" lon="6.13742">
        <ele>775.4</ele>
        <time>2020-09-05T08:17:08.000Z</time>
      </trkpt>
      <trkpt lat="44.45989" lon="6.13751">
        <ele>774.6</ele>
        <time>2020-09-05T08:17:10.000Z</time>
      </trkpt>
      <trkpt lat="44.4599" lon="6.13757">
        <ele>775</ele>
        <time>2020-09-05T08:17:13.000Z</time>
      </trkpt>
      <trkpt lat="44.45985" lon="6.13758">
        <ele>775.9</ele>
        <time>2020-09-05T08:17:15.000Z</time>
      </trkpt>
      <trkpt lat="44.45978" lon="6.13761">
        <ele>776.1</ele>
        <time>2020-09-05T08:17:17.000Z</time>
      </trkpt>
      <trkpt lat="44.45968" lon="6.13762">
        <ele>777.8</ele>
        <time>2020-09-05T08:17:20.000Z</time>
      </trkpt>
      <trkpt lat="44.45961" lon="6.13762">
        <ele>778</ele>
        <time>2020-09-05T08:17:22.000Z</time>
      </trkpt>
      <trkpt lat="44.45956" lon="6.13762">
        <ele>778</ele>
        <time>2020-09-05T08:17:23.000Z</time>
      </trkpt>
      <trkpt lat="44.4594" lon="6.13763">
        <ele>777.6</ele>
        <time>2020-09-05T08:17:25.000Z</time>
      </trkpt>
      <trkpt lat="44.45931" lon="6.13763">
        <ele>778.4</ele>
        <time>2020-09-05T08:17:26.000Z</time>
      </trkpt>
      <trkpt lat="44.45913" lon="6.13764">
        <ele>779.1</ele>
        <time>2020-09-05T08:17:28.000Z</time>
      </trkpt>
      <trkpt lat="44.45897" lon="6.13766">
        <ele>782.9</ele>
        <time>2020-09-05T08:17:30.000Z</time>
      </trkpt>
      <trkpt lat="44.45883" lon="6.13763">
        <ele>786.6</ele>
        <time>2020-09-05T08:17:32.000Z</time>
      </trkpt>
      <trkpt lat="44.45876" lon="6.13763">
        <ele>788.6</ele>
        <time>2020-09-05T08:17:33.000Z</time>
      </trkpt>
      <trkpt lat="44.45866" lon="6.13761">
        <ele>790.9</ele>
        <time>2020-09-05T08:17:35.000Z</time>
      </trkpt>
      <trkpt lat="44.45853" lon="6.13762">
        <ele>792.6</ele>
        <time>2020-09-05T08:17:38.000Z</time>
      </trkpt>
      <trkpt lat="44.45847" lon="6.13763">
        <ele>793.7</ele>
        <time>2020-09-05T08:17:39.000Z</time>
      </trkpt>
      <trkpt lat="44.45833" lon="6.13764">
        <ele>795.5</ele>
        <time>2020-09-05T08:17:41.000Z</time>
      </trkpt>
      <trkpt lat="44.45826" lon="6.13763">
        <ele>797.1</ele>
        <time>2020-09-05T08:17:42.000Z</time>
      </trkpt>
      <trkpt lat="44.45819" lon="6.13761">
        <ele>801.1</ele>
        <time>2020-09-05T08:17:44.000Z</time>
      </trkpt>
      <trkpt lat="44.45814" lon="6.1376">
        <ele>802.1</ele>
        <time>2020-09-05T08:17:45.000Z</time>
      </trkpt>
      <trkpt lat="44.45801" lon="6.13759">
        <ele>806.2</ele>
        <time>2020-09-05T08:17:47.000Z</time>
      </trkpt>
      <trkpt lat="44.45794" lon="6.13757">
        <ele>808.2</ele>
        <time>2020-09-05T08:17:48.000Z</time>
      </trkpt>
      <trkpt lat="44.45788" lon="6.13755">
        <ele>809.3</ele>
        <time>2020-09-05T08:17:49.000Z</time>
      </trkpt>
      <trkpt lat="44.45777" lon="6.13754">
        <ele>812.6</ele>
        <time>2020-09-05T08:17:51.000Z</time>
      </trkpt>
      <trkpt lat="44.45764" lon="6.13756">
        <ele>814.7</ele>
        <time>2020-09-05T08:17:53.000Z</time>
      </trkpt>
      <trkpt lat="44.45758" lon="6.13756">
        <ele>815.4</ele>
        <time>2020-09-05T08:17:54.000Z</time>
      </trkpt>
      <trkpt lat="44.45752" lon="6.13756">
        <ele>816.7</ele>
        <time>2020-09-05T08:17:55.434Z</time>
      </trkpt>
      <trkpt lat="44.45747" lon="6.13752">
        <ele>818.1</ele>
        <time>2020-09-05T08:17:56.795Z</time>
      </trkpt>
      <trkpt lat="44.45753" lon="6.13764">
        <ele>822.2</ele>
        <time>2020-09-05T08:18:02.000Z</time>
      </trkpt>
      <trkpt lat="44.45755" lon="6.1377">
        <ele>823.1</ele>
        <time>2020-09-05T08:18:03.000Z</time>
      </trkpt>
      <trkpt lat="44.45757" lon="6.13776">
        <ele>822.4</ele>
        <time>2020-09-05T08:18:04.000Z</time>
      </trkpt>
      <trkpt lat="44.4576" lon="6.13785">
        <ele>821.6</ele>
        <time>2020-09-05T08:18:05.257Z</time>
      </trkpt>
      <trkpt lat="44.45768" lon="6.13797">
        <ele>824.5</ele>
        <time>2020-09-05T08:18:07.000Z</time>
      </trkpt>
      <trkpt lat="44.45776" lon="6.1381">
        <ele>825.8</ele>
        <time>2020-09-05T08:18:09.000Z</time>
      </trkpt>
      <trkpt lat="44.45784" lon="6.13822">
        <ele>827.5</ele>
        <time>2020-09-05T08:18:11.000Z</time>
      </trkpt>
      <trkpt lat="44.45787" lon="6.13829">
        <ele>829.8</ele>
        <time>2020-09-05T08:18:13.000Z</time>
      </trkpt>
      <trkpt lat="44.4578" lon="6.13833">
        <ele>833.5</ele>
        <time>2020-09-05T08:18:16.000Z</time>
      </trkpt>
      <trkpt lat="44.45767" lon="6.13831">
        <ele>834.2</ele>
        <time>2020-09-05T08:18:18.000Z</time>
      </trkpt>
      <trkpt lat="44.45758" lon="6.13829">
        <ele>836.1</ele>
        <time>2020-09-05T08:18:19.000Z</time>
      </trkpt>
      <trkpt lat="44.45749" lon="6.13825">
        <ele>836.6</ele>
        <time>2020-09-05T08:18:20.000Z</time>
      </trkpt>
      <trkpt lat="44.45731" lon="6.1382">
        <ele>837.8</ele>
        <time>2020-09-05T08:18:22.000Z</time>
      </trkpt>
      <trkpt lat="44.45725" lon="6.13817">
        <ele>837.6</ele>
        <time>2020-09-05T08:18:23.000Z</time>
      </trkpt>
      <trkpt lat="44.4571" lon="6.13814">
        <ele>841</ele>
        <time>2020-09-05T08:18:25.000Z</time>
      </trkpt>
      <trkpt lat="44.45704" lon="6.13812">
        <ele>842.5</ele>
        <time>2020-09-05T08:18:26.000Z</time>
      </trkpt>
      <trkpt lat="44.45698" lon="6.1381">
        <ele>845.7</ele>
        <time>2020-09-05T08:18:29.000Z</time>
      </trkpt>
      <trkpt lat="44.45703" lon="6.13809">
        <ele>858.7</ele>
        <time>2020-09-05T08:18:40.854Z</time>
      </trkpt>
      <trkpt lat="44.45701" lon="6.13801">
        <ele>860.5</ele>
        <time>2020-09-05T08:18:43.000Z</time>
      </trkpt>
      <trkpt lat="44.45691" lon="6.13802">
        <ele>864.3</ele>
        <time>2020-09-05T08:18:45.390Z</time>
      </trkpt>
      <trkpt lat="44.45685" lon="6.13799">
        <ele>867.2</ele>
        <time>2020-09-05T08:18:48.000Z</time>
      </trkpt>
      <trkpt lat="44.45676" lon="6.13795">
        <ele>865.8</ele>
        <time>2020-09-05T08:18:49.719Z</time>
      </trkpt>
      <trkpt lat="44.45657" lon="6.13784">
        <ele>866.5</ele>
        <time>2020-09-05T08:18:51.000Z</time>
      </trkpt>
      <trkpt lat="44.45643" lon="6.13773">
        <ele>867.2</ele>
        <time>2020-09-05T08:18:53.000Z</time>
      </trkpt>
      <trkpt lat="44.45627" lon="6.13766">
        <ele>867.6</ele>
        <time>2020-09-05T08:18:55.000Z</time>
      </trkpt>
      <trkpt lat="44.45613" lon="6.1376">
        <ele>869.1</ele>
        <time>2020-09-05T08:18:57.000Z</time>
      </trkpt>
      <trkpt lat="44.45605" lon="6.13757">
        <ele>869.2</ele>
        <time>2020-09-05T08:18:58.787Z</time>
      </trkpt>
      <trkpt lat="44.456" lon="6.13753">
        <ele>870.4</ele>
        <time>2020-09-05T08:18:59.949Z</time>
      </trkpt>
      <trkpt lat="44.45595" lon="6.1375">
        <ele>871</ele>
        <time>2020-09-05T08:19:01.000Z</time>
      </trkpt>
      <trkpt lat="44.4559" lon="6.13746">
        <ele>871.2</ele>
        <time>2020-09-05T08:19:02.000Z</time>
      </trkpt>
      <trkpt lat="44.45581" lon="6.13737">
        <ele>873.3</ele>
        <time>2020-09-05T08:19:04.000Z</time>
      </trkpt>
      <trkpt lat="44.45577" lon="6.13734">
        <ele>874.9</ele>
        <time>2020-09-05T08:19:05.000Z</time>
      </trkpt>
      <trkpt lat="44.45568" lon="6.13728">
        <ele>876.9</ele>
        <time>2020-09-05T08:19:07.000Z</time>
      </trkpt>
      <trkpt lat="44.45559" lon="6.13725">
        <ele>877.7</ele>
        <time>2020-09-05T08:19:09.000Z</time>
      </trkpt>
      <trkpt lat="44.4555" lon="6.13719">
        <ele>877.7</ele>
        <time>2020-09-05T08:19:12.000Z</time>
      </trkpt>
      <trkpt lat="44.45545" lon="6.13714">
        <ele>880.4</ele>
        <time>2020-09-05T08:19:14.000Z</time>
      </trkpt>
      <trkpt lat="44.45538" lon="6.1371">
        <ele>881.2</ele>
        <time>2020-09-05T08:19:16.000Z</time>
      </trkpt>
      <trkpt lat="44.45531" lon="6.13709">
        <ele>883.7</ele>
        <time>2020-09-05T08:19:18.000Z</time>
      </trkpt>
      <trkpt lat="44.4552" lon="6.13712">
        <ele>884.1</ele>
        <time>2020-09-05T08:19:21.000Z</time>
      </trkpt>
      <trkpt lat="44.45512" lon="6.13711">
        <ele>887.4</ele>
        <time>2020-09-05T08:19:23.000Z</time>
      </trkpt>
      <trkpt lat="44.45501" lon="6.13707">
        <ele>892.1</ele>
        <time>2020-09-05T08:19:25.000Z</time>
      </trkpt>
      <trkpt lat="44.45493" lon="6.13703">
        <ele>895.5</ele>
        <time>2020-09-05T08:19:28.000Z</time>
      </trkpt>
      <trkpt lat="44.45488" lon="6.13699">
        <ele>898.6</ele>
        <time>2020-09-05T08:19:31.000Z</time>
      </trkpt>
      <trkpt lat="44.45481" lon="6.13698">
        <ele>898.8</ele>
        <time>2020-09-05T08:19:33.000Z</time>
      </trkpt>
      <trkpt lat="44.45475" lon="6.13698">
        <ele>899.2</ele>
        <time>2020-09-05T08:19:34.000Z</time>
      </trkpt>
      <trkpt lat="44.45462" lon="6.13695">
        <ele>901.7</ele>
        <time>2020-09-05T08:19:37.000Z</time>
      </trkpt>
      <trkpt lat="44.45456" lon="6.13692">
        <ele>904.9</ele>
        <time>2020-09-05T08:19:39.000Z</time>
      </trkpt>
      <trkpt lat="44.4545" lon="6.13688">
        <ele>907.5</ele>
        <time>2020-09-05T08:19:41.000Z</time>
      </trkpt>
      <trkpt lat="44.4544" lon="6.13685">
        <ele>913.5</ele>
        <time>2020-09-05T08:19:44.000Z</time>
      </trkpt>
      <trkpt lat="44.45434" lon="6.13678">
        <ele>914.9</ele>
        <time>2020-09-05T08:19:47.000Z</time>
      </trkpt>
      <trkpt lat="44.45421" lon="6.13676">
        <ele>917.1</ele>
        <time>2020-09-05T08:19:50.000Z</time>
      </trkpt>
      <trkpt lat="44.45416" lon="6.13676">
        <ele>917.7</ele>
        <time>2020-09-05T08:19:51.689Z</time>
      </trkpt>
      <trkpt lat="44.45411" lon="6.13679">
        <ele>921.1</ele>
        <time>2020-09-05T08:19:54.597Z</time>
      </trkpt>
      <trkpt lat="44.45416" lon="6.1369">
        <ele>924.4</ele>
        <time>2020-09-05T08:19:59.000Z</time>
      </trkpt>
      <trkpt lat="44.4542" lon="6.13699">
        <ele>927.3</ele>
        <time>2020-09-05T08:20:01.334Z</time>
      </trkpt>
      <trkpt lat="44.45422" lon="6.13705">
        <ele>928</ele>
        <time>2020-09-05T08:20:02.576Z</time>
      </trkpt>
      <trkpt lat="44.45429" lon="6.13718">
        <ele>930.8</ele>
        <time>2020-09-05T08:20:04.000Z</time>
      </trkpt>
      <trkpt lat="44.45433" lon="6.13725">
        <ele>931.1</ele>
        <time>2020-09-05T08:20:05.000Z</time>
      </trkpt>
      <trkpt lat="44.45437" lon="6.13731">
        <ele>933.2</ele>
        <time>2020-09-05T08:20:06.000Z</time>
      </trkpt>
      <trkpt lat="44.45442" lon="6.13737">
        <ele>936.9</ele>
        <time>2020-09-05T08:20:08.000Z</time>
      </trkpt>
      <trkpt lat="44.45452" lon="6.13747">
        <ele>939.1</ele>
        <time>2020-09-05T08:20:10.000Z</time>
      </trkpt>
      <trkpt lat="44.45456" lon="6.13753">
        <ele>940.3</ele>
        <time>2020-09-05T08:20:11.000Z</time>
      </trkpt>
      <trkpt lat="44.45464" lon="6.1377">
        <ele>943.3</ele>
        <time>2020-09-05T08:20:13.000Z</time>
      </trkpt>
      <trkpt lat="44.45468" lon="6.13776">
        <ele>944.8</ele>
        <time>2020-09-05T08:20:14.000Z</time>
      </trkpt>
      <trkpt lat="44.45474" lon="6.13786">
        <ele>949.5</ele>
        <time>2020-09-05T08:20:16.000Z</time>
      </trkpt>
      <trkpt lat="44.45469" lon="6.13788">
        <ele>954.1</ele>
        <time>2020-09-05T08:20:21.000Z</time>
      </trkpt>
      <trkpt lat="44.45463" lon="6.13786">
        <ele>955.4</ele>
        <time>2020-09-05T08:20:24.000Z</time>
      </trkpt>
      <trkpt lat="44.45457" lon="6.13783">
        <ele>956.9</ele>
        <time>2020-09-05T08:20:26.000Z</time>
      </trkpt>
      <trkpt lat="44.45444" lon="6.13777">
        <ele>957</ele>
        <time>2020-09-05T08:20:29.000Z</time>
      </trkpt>
      <trkpt lat="44.45431" lon="6.13779">
        <ele>954.2</ele>
        <time>2020-09-05T08:20:32.000Z</time>
      </trkpt>
      <trkpt lat="44.45426" lon="6.13778">
        <ele>955.3</ele>
        <time>2020-09-05T08:20:34.000Z</time>
      </trkpt>
      <trkpt lat="44.45417" lon="6.13774">
        <ele>956</ele>
        <time>2020-09-05T08:20:36.000Z</time>
      </trkpt>
      <trkpt lat="44.45412" lon="6.13772">
        <ele>956.6</ele>
        <time>2020-09-05T08:20:37.000Z</time>
      </trkpt>
      <trkpt lat="44.45408" lon="6.13767">
        <ele>957.6</ele>
        <time>2020-09-05T08:20:40.000Z</time>
      </trkpt>
      <trkpt lat="44.45401" lon="6.13765">
        <ele>959.8</ele>
        <time>2020-09-05T08:20:43.000Z</time>
      </trkpt>
      <trkpt lat="44.45395" lon="6.13764">
        <ele>961.4</ele>
        <time>2020-09-05T08:20:45.000Z</time>
      </trkpt>
      <trkpt lat="44.45388" lon="6.13764">
        <ele>961.6</ele>
        <time>2020-09-05T08:20:47.000Z</time>
      </trkpt>
      <trkpt lat="44.45381" lon="6.1376">
        <ele>961.5</ele>
        <time>2020-09-05T08:20:49.000Z</time>
      </trkpt>
      <trkpt lat="44.45374" lon="6.13757">
        <ele>961.1</ele>
        <time>2020-09-05T08:20:51.000Z</time>
      </trkpt>
      <trkpt lat="44.45366" lon="6.13752">
        <ele>962.2</ele>
        <time>2020-09-05T08:20:53.000Z</time>
      </trkpt>
      <trkpt lat="44.4536" lon="6.13748">
        <ele>962.6</ele>
        <time>2020-09-05T08:20:54.000Z</time>
      </trkpt>
      <trkpt lat="44.45347" lon="6.13739">
        <ele>962.7</ele>
        <time>2020-09-05T08:20:56.000Z</time>
      </trkpt>
      <trkpt lat="44.45341" lon="6.13736">
        <ele>962.4</ele>
        <time>2020-09-05T08:20:57.000Z</time>
      </trkpt>
      <trkpt lat="44.45333" lon="6.13731">
        <ele>964</ele>
        <time>2020-09-05T08:20:59.000Z</time>
      </trkpt>
      <trkpt lat="44.45325" lon="6.13726">
        <ele>964.2</ele>
        <time>2020-09-05T08:21:01.000Z</time>
      </trkpt>
      <trkpt lat="44.45319" lon="6.13725">
        <ele>964.5</ele>
        <time>2020-09-05T08:21:02.000Z</time>
      </trkpt>
      <trkpt lat="44.45312" lon="6.13725">
        <ele>964.2</ele>
        <time>2020-09-05T08:21:03.000Z</time>
      </trkpt>
      <trkpt lat="44.45307" lon="6.13727">
        <ele>965</ele>
        <time>2020-09-05T08:21:04.000Z</time>
      </trkpt>
      <trkpt lat="44.45302" lon="6.13728">
        <ele>965.7</ele>
        <time>2020-09-05T08:21:05.000Z</time>
      </trkpt>
      <trkpt lat="44.45298" lon="6.13734">
        <ele>970.1</ele>
        <time>2020-09-05T08:21:10.000Z</time>
      </trkpt>
      <trkpt lat="44.45307" lon="6.13733">
        <ele>976.1</ele>
        <time>2020-09-05T08:21:15.129Z</time>
      </trkpt>
      <trkpt lat="44.45313" lon="6.13736">
        <ele>979.1</ele>
        <time>2020-09-05T08:21:17.888Z</time>
      </trkpt>
      <trkpt lat="44.45318" lon="6.13738">
        <ele>980.5</ele>
        <time>2020-09-05T08:21:20.000Z</time>
      </trkpt>
      <trkpt lat="44.45328" lon="6.13754">
        <ele>980.4</ele>
        <time>2020-09-05T08:21:23.751Z</time>
      </trkpt>
      <trkpt lat="44.45331" lon="6.1376">
        <ele>979</ele>
        <time>2020-09-05T08:21:25.191Z</time>
      </trkpt>
      <trkpt lat="44.45334" lon="6.13765">
        <ele>980.4</ele>
        <time>2020-09-05T08:21:26.279Z</time>
      </trkpt>
      <trkpt lat="44.4534" lon="6.13776">
        <ele>983.9</ele>
        <time>2020-09-05T08:21:30.000Z</time>
      </trkpt>
      <trkpt lat="44.45343" lon="6.13787">
        <ele>987.2</ele>
        <time>2020-09-05T08:21:32.000Z</time>
      </trkpt>
      <trkpt lat="44.45343" lon="6.13794">
        <ele>990.3</ele>
        <time>2020-09-05T08:21:34.000Z</time>
      </trkpt>
      <trkpt lat="44.45338" lon="6.13801">
        <ele>991.6</ele>
        <time>2020-09-05T08:21:37.000Z</time>
      </trkpt>
      <trkpt lat="44.45329" lon="6.13798">
        <ele>994.6</ele>
        <time>2020-09-05T08:21:39.000Z</time>
      </trkpt>
      <trkpt lat="44.45319" lon="6.13793">
        <ele>995.9</ele>
        <time>2020-09-05T08:21:41.000Z</time>
      </trkpt>
      <trkpt lat="44.4531" lon="6.13789">
        <ele>994.7</ele>
        <time>2020-09-05T08:21:44.000Z</time>
      </trkpt>
      <trkpt lat="44.453" lon="6.13788">
        <ele>996.3</ele>
        <time>2020-09-05T08:21:48.000Z</time>
      </trkpt>
      <trkpt lat="44.45295" lon="6.1379">
        <ele>997.4</ele>
        <time>2020-09-05T08:21:49.000Z</time>
      </trkpt>
      <trkpt lat="44.45289" lon="6.13792">
        <ele>995.7</ele>
        <time>2020-09-05T08:21:51.000Z</time>
      </trkpt>
      <trkpt lat="44.45281" lon="6.13791">
        <ele>997.6</ele>
        <time>2020-09-05T08:21:54.000Z</time>
      </trkpt>
      <trkpt lat="44.45271" lon="6.13797">
        <ele>999.1</ele>
        <time>2020-09-05T08:21:57.000Z</time>
      </trkpt>
      <trkpt lat="44.45267" lon="6.13802">
        <ele>998</ele>
        <time>2020-09-05T08:22:02.000Z</time>
      </trkpt>
      <trkpt lat="44.45264" lon="6.13807">
        <ele>1001.2</ele>
        <time>2020-09-05T08:25:10.000Z</time>
      </trkpt>
      <trkpt lat="44.45258" lon="6.13807">
        <ele>1000.6</ele>
        <time>2020-09-05T08:25:11.000Z</time>
      </trkpt>
      <trkpt lat="44.45253" lon="6.13807">
        <ele>1000.4</ele>
        <time>2020-09-05T08:25:12.000Z</time>
      </trkpt>
      <trkpt lat="44.45247" lon="6.13807">
        <ele>1000.5</ele>
        <time>2020-09-05T08:25:13.000Z</time>
      </trkpt>
      <trkpt lat="44.45238" lon="6.13806">
        <ele>999.9</ele>
        <time>2020-09-05T08:25:15.000Z</time>
      </trkpt>
      <trkpt lat="44.45232" lon="6.13803">
        <ele>999.5</ele>
        <time>2020-09-05T08:25:16.000Z</time>
      </trkpt>
      <trkpt lat="44.45226" lon="6.13801">
        <ele>999.7</ele>
        <time>2020-09-05T08:25:17.000Z</time>
      </trkpt>
      <trkpt lat="44.45213" lon="6.13797">
        <ele>1000.1</ele>
        <time>2020-09-05T08:25:19.000Z</time>
      </trkpt>
      <trkpt lat="44.45206" lon="6.13793">
        <ele>998.2</ele>
        <time>2020-09-05T08:25:20.660Z</time>
      </trkpt>
      <trkpt lat="44.45201" lon="6.13788">
        <ele>998.1</ele>
        <time>2020-09-05T08:25:22.000Z</time>
      </trkpt>
      <trkpt lat="44.45191" lon="6.13784">
        <ele>996.5</ele>
        <time>2020-09-05T08:25:25.000Z</time>
      </trkpt>
      <trkpt lat="44.45184" lon="6.13779">
        <ele>996.4</ele>
        <time>2020-09-05T08:25:26.000Z</time>
      </trkpt>
      <trkpt lat="44.45174" lon="6.13768">
        <ele>994.7</ele>
        <time>2020-09-05T08:25:28.000Z</time>
      </trkpt>
      <trkpt lat="44.45169" lon="6.13761">
        <ele>994</ele>
        <time>2020-09-05T08:25:31.032Z</time>
      </trkpt>
      <trkpt lat="44.45161" lon="6.13762">
        <ele>994.7</ele>
        <time>2020-09-05T08:25:34.575Z</time>
      </trkpt>
      <trkpt lat="44.45152" lon="6.13769">
        <ele>995.2</ele>
        <time>2020-09-05T08:25:36.000Z</time>
      </trkpt>
      <trkpt lat="44.45139" lon="6.13772">
        <ele>995.4</ele>
        <time>2020-09-05T08:25:38.000Z</time>
      </trkpt>
      <trkpt lat="44.45134" lon="6.13773">
        <ele>995.5</ele>
        <time>2020-09-05T08:25:39.000Z</time>
      </trkpt>
      <trkpt lat="44.45126" lon="6.13774">
        <ele>995.5</ele>
        <time>2020-09-05T08:25:40.915Z</time>
      </trkpt>
      <trkpt lat="44.45118" lon="6.13775">
        <ele>993.7</ele>
        <time>2020-09-05T08:25:43.953Z</time>
      </trkpt>
      <trkpt lat="44.45113" lon="6.13776">
        <ele>995.1</ele>
        <time>2020-09-05T08:25:45.000Z</time>
      </trkpt>
      <trkpt lat="44.45109" lon="6.1378">
        <ele>994.4</ele>
        <time>2020-09-05T08:25:46.000Z</time>
      </trkpt>
      <trkpt lat="44.45101" lon="6.1379">
        <ele>995.4</ele>
        <time>2020-09-05T08:25:48.835Z</time>
      </trkpt>
      <trkpt lat="44.45093" lon="6.13799">
        <ele>995</ele>
        <time>2020-09-05T08:25:50.000Z</time>
      </trkpt>
      <trkpt lat="44.45086" lon="6.13806">
        <ele>996.6</ele>
        <time>2020-09-05T08:25:52.000Z</time>
      </trkpt>
      <trkpt lat="44.4508" lon="6.13813">
        <ele>997.1</ele>
        <time>2020-09-05T08:25:54.033Z</time>
      </trkpt>
      <trkpt lat="44.45078" lon="6.1382">
        <ele>997.6</ele>
        <time>2020-09-05T08:25:55.000Z</time>
      </trkpt>
      <trkpt lat="44.45072" lon="6.13827">
        <ele>996.3</ele>
        <time>2020-09-05T08:25:57.695Z</time>
      </trkpt>
      <trkpt lat="44.45077" lon="6.13827">
        <ele>999</ele>
        <time>2020-09-05T08:26:07.000Z</time>
      </trkpt>
      <trkpt lat="44.45072" lon="6.13824">
        <ele>999.6</ele>
        <time>2020-09-05T08:26:12.000Z</time>
      </trkpt>
      <trkpt lat="44.45067" lon="6.13817">
        <ele>1002.5</ele>
        <time>2020-09-05T08:26:15.000Z</time>
      </trkpt>
      <trkpt lat="44.45061" lon="6.13815">
        <ele>1002.3</ele>
        <time>2020-09-05T08:26:18.138Z</time>
      </trkpt>
      <trkpt lat="44.45046" lon="6.13816">
        <ele>1000.2</ele>
        <time>2020-09-05T08:26:20.558Z</time>
      </trkpt>
      <trkpt lat="44.45037" lon="6.13821">
        <ele>1000.5</ele>
        <time>2020-09-05T08:26:22.138Z</time>
      </trkpt>
      <trkpt lat="44.45031" lon="6.13826">
        <ele>1002.8</ele>
        <time>2020-09-05T08:26:23.239Z</time>
      </trkpt>
      <trkpt lat="44.45027" lon="6.13831">
        <ele>1002.7</ele>
        <time>2020-09-05T08:26:24.996Z</time>
      </trkpt>
      <trkpt lat="44.45023" lon="6.13836">
        <ele>1001.6</ele>
        <time>2020-09-05T08:26:27.000Z</time>
      </trkpt>
      <trkpt lat="44.45019" lon="6.13841">
        <ele>1001</ele>
        <time>2020-09-05T08:26:31.962Z</time>
      </trkpt>
      <trkpt lat="44.45008" lon="6.13837">
        <ele>1000.6</ele>
        <time>2020-09-05T08:26:36.000Z</time>
      </trkpt>
      <trkpt lat="44.45003" lon="6.13833">
        <ele>1000.9</ele>
        <time>2020-09-05T08:26:39.000Z</time>
      </trkpt>
      <trkpt lat="44.45" lon="6.13829">
        <ele>995.8</ele>
        <time>2020-09-05T08:26:42.000Z</time>
      </trkpt>
      <trkpt lat="44.44998" lon="6.13816">
        <ele>997.7</ele>
        <time>2020-09-05T08:26:45.000Z</time>
      </trkpt>
      <trkpt lat="44.44999" lon="6.13801">
        <ele>1000.3</ele>
        <time>2020-09-05T08:26:48.000Z</time>
      </trkpt>
      <trkpt lat="44.45002" lon="6.1379">
        <ele>1000.1</ele>
        <time>2020-09-05T08:26:51.000Z</time>
      </trkpt>
      <trkpt lat="44.4501" lon="6.13777">
        <ele>998.4</ele>
        <time>2020-09-05T08:26:53.961Z</time>
      </trkpt>
      <trkpt lat="44.45015" lon="6.13766">
        <ele>997.1</ele>
        <time>2020-09-05T08:26:55.000Z</time>
      </trkpt>
      <trkpt lat="44.45021" lon="6.13761">
        <ele>998.6</ele>
        <time>2020-09-05T08:26:57.038Z</time>
      </trkpt>
      <trkpt lat="44.45028" lon="6.13747">
        <ele>997.5</ele>
        <time>2020-09-05T08:26:58.000Z</time>
      </trkpt>
      <trkpt lat="44.45032" lon="6.13723">
        <ele>997</ele>
        <time>2020-09-05T08:27:00.000Z</time>
      </trkpt>
      <trkpt lat="44.45036" lon="6.13695">
        <ele>995.6</ele>
        <time>2020-09-05T08:27:02.000Z</time>
      </trkpt>
      <trkpt lat="44.45039" lon="6.13683">
        <ele>993.5</ele>
        <time>2020-09-05T08:27:03.000Z</time>
      </trkpt>
      <trkpt lat="44.45042" lon="6.13671">
        <ele>993.6</ele>
        <time>2020-09-05T08:27:05.178Z</time>
      </trkpt>
      <trkpt lat="44.4504" lon="6.13655">
        <ele>993.9</ele>
        <time>2020-09-05T08:27:07.000Z</time>
      </trkpt>
      <trkpt lat="44.4504" lon="6.13633">
        <ele>994.5</ele>
        <time>2020-09-05T08:27:09.000Z</time>
      </trkpt>
      <trkpt lat="44.4504" lon="6.13613">
        <ele>995.4</ele>
        <time>2020-09-05T08:27:11.000Z</time>
      </trkpt>
      <trkpt lat="44.4504" lon="6.13596">
        <ele>997.3</ele>
        <time>2020-09-05T08:27:14.000Z</time>
      </trkpt>
      <trkpt lat="44.45045" lon="6.13588">
        <ele>1000</ele>
        <time>2020-09-05T08:27:15.000Z</time>
      </trkpt>
      <trkpt lat="44.45047" lon="6.13576">
        <ele>999.1</ele>
        <time>2020-09-05T08:27:16.000Z</time>
      </trkpt>
      <trkpt lat="44.45049" lon="6.13559">
        <ele>1002.2</ele>
        <time>2020-09-05T08:27:18.000Z</time>
      </trkpt>
      <trkpt lat="44.45047" lon="6.13551">
        <ele>1004</ele>
        <time>2020-09-05T08:27:20.386Z</time>
      </trkpt>
      <trkpt lat="44.45041" lon="6.1354">
        <ele>1004.9</ele>
        <time>2020-09-05T08:27:23.067Z</time>
      </trkpt>
      <trkpt lat="44.45035" lon="6.1353">
        <ele>1005</ele>
        <time>2020-09-05T08:27:25.070Z</time>
      </trkpt>
      <trkpt lat="44.45024" lon="6.13528">
        <ele>1005.2</ele>
        <time>2020-09-05T08:27:26.000Z</time>
      </trkpt>
      <trkpt lat="44.45005" lon="6.13526">
        <ele>1003</ele>
        <time>2020-09-05T08:27:28.000Z</time>
      </trkpt>
      <trkpt lat="44.44986" lon="6.13523">
        <ele>1003.3</ele>
        <time>2020-09-05T08:27:30.000Z</time>
      </trkpt>
      <trkpt lat="44.4497" lon="6.13523">
        <ele>1004.8</ele>
        <time>2020-09-05T08:27:32.000Z</time>
      </trkpt>
      <trkpt lat="44.44962" lon="6.1352">
        <ele>1005.2</ele>
        <time>2020-09-05T08:27:33.000Z</time>
      </trkpt>
      <trkpt lat="44.44954" lon="6.13515">
        <ele>1004.5</ele>
        <time>2020-09-05T08:27:34.000Z</time>
      </trkpt>
      <trkpt lat="44.44943" lon="6.13499">
        <ele>1003.1</ele>
        <time>2020-09-05T08:27:36.000Z</time>
      </trkpt>
      <trkpt lat="44.44936" lon="6.13484">
        <ele>1005</ele>
        <time>2020-09-05T08:27:38.000Z</time>
      </trkpt>
      <trkpt lat="44.44924" lon="6.13464">
        <ele>1007.4</ele>
        <time>2020-09-05T08:27:40.000Z</time>
      </trkpt>
      <trkpt lat="44.44912" lon="6.13437">
        <ele>1010.1</ele>
        <time>2020-09-05T08:27:42.000Z</time>
      </trkpt>
      <trkpt lat="44.44906" lon="6.13426">
        <ele>1010.6</ele>
        <time>2020-09-05T08:27:43.000Z</time>
      </trkpt>
      <trkpt lat="44.44898" lon="6.13414">
        <ele>1010.1</ele>
        <time>2020-09-05T08:27:45.000Z</time>
      </trkpt>
      <trkpt lat="44.44885" lon="6.1341">
        <ele>1009.7</ele>
        <time>2020-09-05T08:27:47.000Z</time>
      </trkpt>
      <trkpt lat="44.44868" lon="6.13405">
        <ele>1009.5</ele>
        <time>2020-09-05T08:27:49.000Z</time>
      </trkpt>
      <trkpt lat="44.44863" lon="6.134">
        <ele>1009.8</ele>
        <time>2020-09-05T08:27:50.000Z</time>
      </trkpt>
      <trkpt lat="44.44857" lon="6.13395">
        <ele>1010.3</ele>
        <time>2020-09-05T08:27:51.000Z</time>
      </trkpt>
      <trkpt lat="44.44851" lon="6.13392">
        <ele>1009.2</ele>
        <time>2020-09-05T08:27:52.000Z</time>
      </trkpt>
      <trkpt lat="44.44845" lon="6.13387">
        <ele>1006.2</ele>
        <time>2020-09-05T08:27:54.000Z</time>
      </trkpt>
      <trkpt lat="44.44838" lon="6.13373">
        <ele>1006.3</ele>
        <time>2020-09-05T08:27:57.000Z</time>
      </trkpt>
      <trkpt lat="44.44832" lon="6.13365">
        <ele>1007.5</ele>
        <time>2020-09-05T08:27:59.000Z</time>
      </trkpt>
      <trkpt lat="44.44828" lon="6.13359">
        <ele>1007.4</ele>
        <time>2020-09-05T08:28:00.698Z</time>
      </trkpt>
      <trkpt lat="44.44823" lon="6.13355">
        <ele>1007.4</ele>
        <time>2020-09-05T08:28:02.000Z</time>
      </trkpt>
      <trkpt lat="44.44811" lon="6.13357">
        <ele>1007</ele>
        <time>2020-09-05T08:28:04.000Z</time>
      </trkpt>
      <trkpt lat="44.44804" lon="6.13357">
        <ele>1007.3</ele>
        <time>2020-09-05T08:28:05.000Z</time>
      </trkpt>
      <trkpt lat="44.44798" lon="6.13356">
        <ele>1007.2</ele>
        <time>2020-09-05T08:28:06.000Z</time>
      </trkpt>
      <trkpt lat="44.44793" lon="6.13354">
        <ele>1006.7</ele>
        <time>2020-09-05T08:28:07.000Z</time>
      </trkpt>
      <trkpt lat="44.44787" lon="6.13353">
        <ele>1008.2</ele>
        <time>2020-09-05T08:28:08.715Z</time>
      </trkpt>
      <trkpt lat="44.44783" lon="6.13348">
        <ele>1009.3</ele>
        <time>2020-09-05T08:28:11.811Z</time>
      </trkpt>
      <trkpt lat="44.44787" lon="6.13341">
        <ele>1012.1</ele>
        <time>2020-09-05T08:28:16.000Z</time>
      </trkpt>
      <trkpt lat="44.44791" lon="6.13334">
        <ele>1014</ele>
        <time>2020-09-05T08:28:18.628Z</time>
      </trkpt>
      <trkpt lat="44.44795" lon="6.13328">
        <ele>1017.3</ele>
        <time>2020-09-05T08:28:21.000Z</time>
      </trkpt>
      <trkpt lat="44.44801" lon="6.1332">
        <ele>1018.9</ele>
        <time>2020-09-05T08:28:25.000Z</time>
      </trkpt>
      <trkpt lat="44.44802" lon="6.13313">
        <ele>1018.8</ele>
        <time>2020-09-05T08:28:26.566Z</time>
      </trkpt>
      <trkpt lat="44.448" lon="6.13294">
        <ele>1019.4</ele>
        <time>2020-09-05T08:28:28.000Z</time>
      </trkpt>
      <trkpt lat="44.44802" lon="6.13271">
        <ele>1020</ele>
        <time>2020-09-05T08:28:30.000Z</time>
      </trkpt>
      <trkpt lat="44.44804" lon="6.13263">
        <ele>1020</ele>
        <time>2020-09-05T08:28:31.000Z</time>
      </trkpt>
      <trkpt lat="44.44806" lon="6.13244">
        <ele>1019.9</ele>
        <time>2020-09-05T08:28:34.000Z</time>
      </trkpt>
      <trkpt lat="44.44802" lon="6.13217">
        <ele>1019.5</ele>
        <time>2020-09-05T08:28:36.000Z</time>
      </trkpt>
      <trkpt lat="44.44796" lon="6.13196">
        <ele>1018.9</ele>
        <time>2020-09-05T08:28:38.000Z</time>
      </trkpt>
      <trkpt lat="44.44792" lon="6.132">
        <ele>1018.3</ele>
        <time>2020-09-05T08:28:40.022Z</time>
      </trkpt>
      <trkpt lat="44.44783" lon="6.13199">
        <ele>1018.8</ele>
        <time>2020-09-05T08:28:41.000Z</time>
      </trkpt>
      <trkpt lat="44.44778" lon="6.13195">
        <ele>1018.8</ele>
        <time>2020-09-05T08:28:42.000Z</time>
      </trkpt>
      <trkpt lat="44.44772" lon="6.13192">
        <ele>1020.2</ele>
        <time>2020-09-05T08:28:43.792Z</time>
      </trkpt>
      <trkpt lat="44.44771" lon="6.13179">
        <ele>1023.6</ele>
        <time>2020-09-05T08:28:47.595Z</time>
      </trkpt>
      <trkpt lat="44.44771" lon="6.1317">
        <ele>1023.4</ele>
        <time>2020-09-05T08:28:48.754Z</time>
      </trkpt>
      <trkpt lat="44.4478" lon="6.13155">
        <ele>1021.4</ele>
        <time>2020-09-05T08:28:50.000Z</time>
      </trkpt>
      <trkpt lat="44.44807" lon="6.1314">
        <ele>1026.5</ele>
        <time>2020-09-05T08:28:53.000Z</time>
      </trkpt>
      <trkpt lat="44.44827" lon="6.13135">
        <ele>1028.1</ele>
        <time>2020-09-05T08:28:55.000Z</time>
      </trkpt>
      <trkpt lat="44.44834" lon="6.1313">
        <ele>1028.5</ele>
        <time>2020-09-05T08:28:56.000Z</time>
      </trkpt>
      <trkpt lat="44.44846" lon="6.13118">
        <ele>1025.5</ele>
        <time>2020-09-05T08:28:58.000Z</time>
      </trkpt>
      <trkpt lat="44.44852" lon="6.13111">
        <ele>1022.3</ele>
        <time>2020-09-05T08:28:59.000Z</time>
      </trkpt>
      <trkpt lat="44.44859" lon="6.13104">
        <ele>1023.9</ele>
        <time>2020-09-05T08:29:00.000Z</time>
      </trkpt>
      <trkpt lat="44.44868" lon="6.13097">
        <ele>1027.2</ele>
        <time>2020-09-05T08:29:01.000Z</time>
      </trkpt>
      <trkpt lat="44.44888" lon="6.1309">
        <ele>1030.7</ele>
        <time>2020-09-05T08:29:03.000Z</time>
      </trkpt>
      <trkpt lat="44.44899" lon="6.13086">
        <ele>1032.7</ele>
        <time>2020-09-05T08:29:04.000Z</time>
      </trkpt>
      <trkpt lat="44.44911" lon="6.13081">
        <ele>1034.7</ele>
        <time>2020-09-05T08:29:05.000Z</time>
      </trkpt>
      <trkpt lat="44.44932" lon="6.13067">
        <ele>1038.9</ele>
        <time>2020-09-05T08:29:07.000Z</time>
      </trkpt>
      <trkpt lat="44.44942" lon="6.13057">
        <ele>1041.3</ele>
        <time>2020-09-05T08:29:08.000Z</time>
      </trkpt>
      <trkpt lat="44.44954" lon="6.13047">
        <ele>1042.7</ele>
        <time>2020-09-05T08:29:09.000Z</time>
      </trkpt>
      <trkpt lat="44.44978" lon="6.13029">
        <ele>1045.5</ele>
        <time>2020-09-05T08:29:11.000Z</time>
      </trkpt>
      <trkpt lat="44.45001" lon="6.13015">
        <ele>1048</ele>
        <time>2020-09-05T08:29:13.000Z</time>
      </trkpt>
      <trkpt lat="44.45023" lon="6.13001">
        <ele>1050.7</ele>
        <time>2020-09-05T08:29:15.000Z</time>
      </trkpt>
      <trkpt lat="44.45043" lon="6.12988">
        <ele>1053.3</ele>
        <time>2020-09-05T08:29:17.000Z</time>
      </trkpt>
      <trkpt lat="44.45054" lon="6.12978">
        <ele>1055.9</ele>
        <time>2020-09-05T08:29:19.000Z</time>
      </trkpt>
      <trkpt lat="44.4506" lon="6.12976">
        <ele>1059.5</ele>
        <time>2020-09-05T08:29:22.000Z</time>
      </trkpt>
      <trkpt lat="44.45072" lon="6.12961">
        <ele>1065.6</ele>
        <time>2020-09-05T08:29:25.000Z</time>
      </trkpt>
      <trkpt lat="44.45074" lon="6.12952">
        <ele>1067.4</ele>
        <time>2020-09-05T08:29:26.000Z</time>
      </trkpt>
      <trkpt lat="44.45077" lon="6.12946">
        <ele>1072</ele>
        <time>2020-09-05T08:29:27.000Z</time>
      </trkpt>
      <trkpt lat="44.4508" lon="6.12934">
        <ele>1077.6</ele>
        <time>2020-09-05T08:29:30.000Z</time>
      </trkpt>
      <trkpt lat="44.45082" lon="6.12926">
        <ele>1080.5</ele>
        <time>2020-09-05T08:29:32.000Z</time>
      </trkpt>
      <trkpt lat="44.45085" lon="6.12912">
        <ele>1081.4</ele>
        <time>2020-09-05T08:29:34.000Z</time>
      </trkpt>
      <trkpt lat="44.45084" lon="6.12906">
        <ele>1081.5</ele>
        <time>2020-09-05T08:29:36.000Z</time>
      </trkpt>
      <trkpt lat="44.45077" lon="6.12905">
        <ele>1080.4</ele>
        <time>2020-09-05T08:29:38.000Z</time>
      </trkpt>
      <trkpt lat="44.4507" lon="6.12906">
        <ele>1081.7</ele>
        <time>2020-09-05T08:29:40.000Z</time>
      </trkpt>
      <trkpt lat="44.45066" lon="6.12916">
        <ele>1082</ele>
        <time>2020-09-05T08:29:41.000Z</time>
      </trkpt>
      <trkpt lat="44.45058" lon="6.12944">
        <ele>1081.3</ele>
        <time>2020-09-05T08:29:43.000Z</time>
      </trkpt>
      <trkpt lat="44.45051" lon="6.12956">
        <ele>1081.8</ele>
        <time>2020-09-05T08:29:44.000Z</time>
      </trkpt>
      <trkpt lat="44.45042" lon="6.12965">
        <ele>1082.5</ele>
        <time>2020-09-05T08:29:45.000Z</time>
      </trkpt>
      <trkpt lat="44.45033" lon="6.12971">
        <ele>1083.4</ele>
        <time>2020-09-05T08:29:46.000Z</time>
      </trkpt>
      <trkpt lat="44.45022" lon="6.12974">
        <ele>1083.3</ele>
        <time>2020-09-05T08:29:47.000Z</time>
      </trkpt>
      <trkpt lat="44.45003" lon="6.12979">
        <ele>1085.5</ele>
        <time>2020-09-05T08:29:49.000Z</time>
      </trkpt>
      <trkpt lat="44.44986" lon="6.12984">
        <ele>1086.6</ele>
        <time>2020-09-05T08:29:51.000Z</time>
      </trkpt>
      <trkpt lat="44.44977" lon="6.12986">
        <ele>1087</ele>
        <time>2020-09-05T08:29:52.000Z</time>
      </trkpt>
      <trkpt lat="44.4496" lon="6.12991">
        <ele>1087.8</ele>
        <time>2020-09-05T08:29:54.000Z</time>
      </trkpt>
      <trkpt lat="44.4495" lon="6.12992">
        <ele>1088.4</ele>
        <time>2020-09-05T08:29:55.000Z</time>
      </trkpt>
      <trkpt lat="44.4494" lon="6.12995">
        <ele>1089.4</ele>
        <time>2020-09-05T08:29:56.000Z</time>
      </trkpt>
      <trkpt lat="44.44929" lon="6.12998">
        <ele>1091.2</ele>
        <time>2020-09-05T08:29:57.000Z</time>
      </trkpt>
      <trkpt lat="44.44918" lon="6.13002">
        <ele>1093.4</ele>
        <time>2020-09-05T08:29:58.000Z</time>
      </trkpt>
      <trkpt lat="44.44894" lon="6.13007">
        <ele>1095</ele>
        <time>2020-09-05T08:30:00.000Z</time>
      </trkpt>
      <trkpt lat="44.44869" lon="6.13011">
        <ele>1096.6</ele>
        <time>2020-09-05T08:30:02.000Z</time>
      </trkpt>
      <trkpt lat="44.44855" lon="6.13012">
        <ele>1096.6</ele>
        <time>2020-09-05T08:30:03.000Z</time>
      </trkpt>
      <trkpt lat="44.44841" lon="6.13012">
        <ele>1096.2</ele>
        <time>2020-09-05T08:30:04.000Z</time>
      </trkpt>
      <trkpt lat="44.44818" lon="6.1301">
        <ele>1096.3</ele>
        <time>2020-09-05T08:30:06.000Z</time>
      </trkpt>
      <trkpt lat="44.44806" lon="6.13012">
        <ele>1095.5</ele>
        <time>2020-09-05T08:30:07.000Z</time>
      </trkpt>
      <trkpt lat="44.44794" lon="6.13014">
        <ele>1096.5</ele>
        <time>2020-09-05T08:30:08.000Z</time>
      </trkpt>
      <trkpt lat="44.44775" lon="6.13019">
        <ele>1097.2</ele>
        <time>2020-09-05T08:30:10.000Z</time>
      </trkpt>
      <trkpt lat="44.44767" lon="6.13019">
        <ele>1098.8</ele>
        <time>2020-09-05T08:30:11.000Z</time>
      </trkpt>
      <trkpt lat="44.44755" lon="6.13016">
        <ele>1100.1</ele>
        <time>2020-09-05T08:30:13.000Z</time>
      </trkpt>
      <trkpt lat="44.44745" lon="6.13016">
        <ele>1104.3</ele>
        <time>2020-09-05T08:30:15.000Z</time>
      </trkpt>
      <trkpt lat="44.44741" lon="6.13015">
        <ele>1106.9</ele>
        <time>2020-09-05T08:30:17.000Z</time>
      </trkpt>
      <trkpt lat="44.44734" lon="6.13013">
        <ele>1111.5</ele>
        <time>2020-09-05T08:30:20.000Z</time>
      </trkpt>
      <trkpt lat="44.44729" lon="6.1301">
        <ele>1114.8</ele>
        <time>2020-09-05T08:30:27.000Z</time>
      </trkpt>
      <trkpt lat="44.44726" lon="6.13005">
        <ele>1113.8</ele>
        <time>2020-09-05T08:30:29.000Z</time>
      </trkpt>
      <trkpt lat="44.44719" lon="6.12999">
        <ele>1114.9</ele>
        <time>2020-09-05T08:30:38.000Z</time>
      </trkpt>
      <trkpt lat="44.44712" lon="6.12993">
        <ele>1115.9</ele>
        <time>2020-09-05T08:30:40.000Z</time>
      </trkpt>
      <trkpt lat="44.44705" lon="6.12988">
        <ele>1116.8</ele>
        <time>2020-09-05T08:30:42.000Z</time>
      </trkpt>
      <trkpt lat="44.44697" lon="6.1299">
        <ele>1117.9</ele>
        <time>2020-09-05T08:30:45.000Z</time>
      </trkpt>
      <trkpt lat="44.44693" lon="6.13005">
        <ele>1118.7</ele>
        <time>2020-09-05T08:30:48.000Z</time>
      </trkpt>
      <trkpt lat="44.44688" lon="6.13007">
        <ele>1119.4</ele>
        <time>2020-09-05T08:30:52.000Z</time>
      </trkpt>
      <trkpt lat="44.44685" lon="6.13014">
        <ele>1126.2</ele>
        <time>2020-09-05T08:30:56.000Z</time>
      </trkpt>
      <trkpt lat="44.44679" lon="6.13017">
        <ele>1127.5</ele>
        <time>2020-09-05T08:30:59.000Z</time>
      </trkpt>
      <trkpt lat="44.44672" lon="6.13024">
        <ele>1129.8</ele>
        <time>2020-09-05T08:31:02.000Z</time>
      </trkpt>
      <trkpt lat="44.44654" lon="6.13031">
        <ele>1130.3</ele>
        <time>2020-09-05T08:31:05.000Z</time>
      </trkpt>
      <trkpt lat="44.44643" lon="6.13029">
        <ele>1130.1</ele>
        <time>2020-09-05T08:31:06.000Z</time>
      </trkpt>
      <trkpt lat="44.44619" lon="6.13016">
        <ele>1129.8</ele>
        <time>2020-09-05T08:31:08.000Z</time>
      </trkpt>
      <trkpt lat="44.446" lon="6.13008">
        <ele>1134.7</ele>
        <time>2020-09-05T08:31:10.000Z</time>
      </trkpt>
      <trkpt lat="44.44594" lon="6.13008">
        <ele>1134.8</ele>
        <time>2020-09-05T08:31:11.000Z</time>
      </trkpt>
      <trkpt lat="44.44589" lon="6.13012">
        <ele>1137.5</ele>
        <time>2020-09-05T08:31:13.000Z</time>
      </trkpt>
      <trkpt lat="44.44584" lon="6.13015">
        <ele>1141.7</ele>
        <time>2020-09-05T08:31:18.000Z</time>
      </trkpt>
      <trkpt lat="44.44575" lon="6.13015">
        <ele>1143.8</ele>
        <time>2020-09-05T08:31:20.000Z</time>
      </trkpt>
      <trkpt lat="44.44566" lon="6.13017">
        <ele>1145.1</ele>
        <time>2020-09-05T08:31:21.000Z</time>
      </trkpt>
      <trkpt lat="44.44557" lon="6.13018">
        <ele>1145.5</ele>
        <time>2020-09-05T08:31:22.245Z</time>
      </trkpt>
      <trkpt lat="44.44543" lon="6.13018">
        <ele>1147.5</ele>
        <time>2020-09-05T08:31:24.000Z</time>
      </trkpt>
      <trkpt lat="44.44537" lon="6.13018">
        <ele>1148.3</ele>
        <time>2020-09-05T08:31:25.000Z</time>
      </trkpt>
      <trkpt lat="44.44528" lon="6.13018">
        <ele>1149.3</ele>
        <time>2020-09-05T08:31:27.000Z</time>
      </trkpt>
      <trkpt lat="44.44522" lon="6.13016">
        <ele>1149</ele>
        <time>2020-09-05T08:31:30.000Z</time>
      </trkpt>
      <trkpt lat="44.44515" lon="6.13017">
        <ele>1146.8</ele>
        <time>2020-09-05T08:31:32.000Z</time>
      </trkpt>
      <trkpt lat="44.44509" lon="6.13016">
        <ele>1146.4</ele>
        <time>2020-09-05T08:31:34.000Z</time>
      </trkpt>
      <trkpt lat="44.44496" lon="6.13007">
        <ele>1149</ele>
        <time>2020-09-05T08:31:37.000Z</time>
      </trkpt>
      <trkpt lat="44.44492" lon="6.13004">
        <ele>1148.9</ele>
        <time>2020-09-05T08:31:38.243Z</time>
      </trkpt>
      <trkpt lat="44.44485" lon="6.13004">
        <ele>1150.4</ele>
        <time>2020-09-05T08:31:40.000Z</time>
      </trkpt>
      <trkpt lat="44.4448" lon="6.13007">
        <ele>1150.8</ele>
        <time>2020-09-05T08:31:42.000Z</time>
      </trkpt>
      <trkpt lat="44.44476" lon="6.13014">
        <ele>1152.7</ele>
        <time>2020-09-05T08:31:45.000Z</time>
      </trkpt>
      <trkpt lat="44.4447" lon="6.13014">
        <ele>1155.8</ele>
        <time>2020-09-05T08:31:47.000Z</time>
      </trkpt>
      <trkpt lat="44.44465" lon="6.13011">
        <ele>1156.7</ele>
        <time>2020-09-05T08:31:48.000Z</time>
      </trkpt>
      <trkpt lat="44.44458" lon="6.13005">
        <ele>1162.3</ele>
        <time>2020-09-05T08:31:51.000Z</time>
      </trkpt>
      <trkpt lat="44.4446" lon="6.12999">
        <ele>1166.3</ele>
        <time>2020-09-05T08:31:56.000Z</time>
      </trkpt>
      <trkpt lat="44.44465" lon="6.13001">
        <ele>1169.4</ele>
        <time>2020-09-05T08:32:00.000Z</time>
      </trkpt>
      <trkpt lat="44.44462" lon="6.13007">
        <ele>1171.1</ele>
        <time>2020-09-05T08:32:03.000Z</time>
      </trkpt>
      <trkpt lat="44.44457" lon="6.13007">
        <ele>1173</ele>
        <time>2020-09-05T08:32:04.000Z</time>
      </trkpt>
      <trkpt lat="44.44447" lon="6.13005">
        <ele>1174.9</ele>
        <time>2020-09-05T08:32:06.000Z</time>
      </trkpt>
      <trkpt lat="44.44432" lon="6.13004">
        <ele>1176.6</ele>
        <time>2020-09-05T08:32:08.000Z</time>
      </trkpt>
      <trkpt lat="44.44415" lon="6.13005">
        <ele>1179.1</ele>
        <time>2020-09-05T08:32:10.000Z</time>
      </trkpt>
      <trkpt lat="44.44406" lon="6.13006">
        <ele>1180.3</ele>
        <time>2020-09-05T08:32:11.000Z</time>
      </trkpt>
      <trkpt lat="44.4439" lon="6.1301">
        <ele>1179.7</ele>
        <time>2020-09-05T08:32:13.000Z</time>
      </trkpt>
      <trkpt lat="44.44384" lon="6.13009">
        <ele>1182.4</ele>
        <time>2020-09-05T08:32:14.234Z</time>
      </trkpt>
      <trkpt lat="44.44379" lon="6.13004">
        <ele>1183.8</ele>
        <time>2020-09-05T08:32:16.000Z</time>
      </trkpt>
      <trkpt lat="44.44375" lon="6.13001">
        <ele>1184.2</ele>
        <time>2020-09-05T08:32:17.000Z</time>
      </trkpt>
      <trkpt lat="44.44369" lon="6.12997">
        <ele>1184.9</ele>
        <time>2020-09-05T08:32:18.000Z</time>
      </trkpt>
      <trkpt lat="44.44353" lon="6.12987">
        <ele>1189</ele>
        <time>2020-09-05T08:32:20.000Z</time>
      </trkpt>
      <trkpt lat="44.44346" lon="6.12982">
        <ele>1189.5</ele>
        <time>2020-09-05T08:32:21.000Z</time>
      </trkpt>
      <trkpt lat="44.4434" lon="6.12981">
        <ele>1189.7</ele>
        <time>2020-09-05T08:32:22.000Z</time>
      </trkpt>
      <trkpt lat="44.44335" lon="6.12982">
        <ele>1191.4</ele>
        <time>2020-09-05T08:32:23.000Z</time>
      </trkpt>
      <trkpt lat="44.44328" lon="6.12982">
        <ele>1192.3</ele>
        <time>2020-09-05T08:32:25.000Z</time>
      </trkpt>
      <trkpt lat="44.44323" lon="6.12984">
        <ele>1194</ele>
        <time>2020-09-05T08:32:26.938Z</time>
      </trkpt>
      <trkpt lat="44.44324" lon="6.12993">
        <ele>1196.6</ele>
        <time>2020-09-05T08:32:29.915Z</time>
      </trkpt>
      <trkpt lat="44.44327" lon="6.13007">
        <ele>1199.2</ele>
        <time>2020-09-05T08:32:33.001Z</time>
      </trkpt>
      <trkpt lat="44.44338" lon="6.13019">
        <ele>1200.2</ele>
        <time>2020-09-05T08:32:34.000Z</time>
      </trkpt>
      <trkpt lat="44.44344" lon="6.13028">
        <ele>1200.7</ele>
        <time>2020-09-05T08:32:35.000Z</time>
      </trkpt>
      <trkpt lat="44.44357" lon="6.13044">
        <ele>1204</ele>
        <time>2020-09-05T08:32:37.000Z</time>
      </trkpt>
      <trkpt lat="44.44369" lon="6.13059">
        <ele>1205.8</ele>
        <time>2020-09-05T08:32:39.000Z</time>
      </trkpt>
      <trkpt lat="44.44373" lon="6.13066">
        <ele>1206.7</ele>
        <time>2020-09-05T08:32:40.000Z</time>
      </trkpt>
      <trkpt lat="44.44377" lon="6.13075">
        <ele>1211.6</ele>
        <time>2020-09-05T08:32:42.000Z</time>
      </trkpt>
      <trkpt lat="44.44367" lon="6.13085">
        <ele>1212.9</ele>
        <time>2020-09-05T08:32:45.702Z</time>
      </trkpt>
      <trkpt lat="44.44357" lon="6.1309">
        <ele>1218.8</ele>
        <time>2020-09-05T08:32:47.000Z</time>
      </trkpt>
      <trkpt lat="44.4435" lon="6.1309">
        <ele>1221.9</ele>
        <time>2020-09-05T08:32:48.000Z</time>
      </trkpt>
      <trkpt lat="44.44337" lon="6.13084">
        <ele>1221</ele>
        <time>2020-09-05T08:32:50.000Z</time>
      </trkpt>
      <trkpt lat="44.44331" lon="6.13082">
        <ele>1223.5</ele>
        <time>2020-09-05T08:32:51.000Z</time>
      </trkpt>
      <trkpt lat="44.44325" lon="6.13082">
        <ele>1224.9</ele>
        <time>2020-09-05T08:32:52.000Z</time>
      </trkpt>
      <trkpt lat="44.44319" lon="6.13084">
        <ele>1224.9</ele>
        <time>2020-09-05T08:32:53.000Z</time>
      </trkpt>
      <trkpt lat="44.44305" lon="6.13088">
        <ele>1226.2</ele>
        <time>2020-09-05T08:32:55.000Z</time>
      </trkpt>
      <trkpt lat="44.44298" lon="6.13087">
        <ele>1225.3</ele>
        <time>2020-09-05T08:32:56.000Z</time>
      </trkpt>
      <trkpt lat="44.44292" lon="6.13085">
        <ele>1224.9</ele>
        <time>2020-09-05T08:32:57.000Z</time>
      </trkpt>
      <trkpt lat="44.4428" lon="6.1308">
        <ele>1225.6</ele>
        <time>2020-09-05T08:32:59.000Z</time>
      </trkpt>
      <trkpt lat="44.44268" lon="6.13081">
        <ele>1227.3</ele>
        <time>2020-09-05T08:33:01.000Z</time>
      </trkpt>
      <trkpt lat="44.44255" lon="6.13078">
        <ele>1228.6</ele>
        <time>2020-09-05T08:33:03.000Z</time>
      </trkpt>
      <trkpt lat="44.4425" lon="6.13074">
        <ele>1229.6</ele>
        <time>2020-09-05T08:33:04.000Z</time>
      </trkpt>
      <trkpt lat="44.4424" lon="6.13068">
        <ele>1232.8</ele>
        <time>2020-09-05T08:33:06.000Z</time>
      </trkpt>
      <trkpt lat="44.44236" lon="6.13077">
        <ele>1235.4</ele>
        <time>2020-09-05T08:33:09.000Z</time>
      </trkpt>
      <trkpt lat="44.44228" lon="6.13076">
        <ele>1237.2</ele>
        <time>2020-09-05T08:33:12.000Z</time>
      </trkpt>
      <trkpt lat="44.44225" lon="6.13086">
        <ele>1240.2</ele>
        <time>2020-09-05T08:33:14.834Z</time>
      </trkpt>
      <trkpt lat="44.44221" lon="6.1309">
        <ele>1240.8</ele>
        <time>2020-09-05T08:33:16.154Z</time>
      </trkpt>
      <trkpt lat="44.44214" lon="6.13093">
        <ele>1241.1</ele>
        <time>2020-09-05T08:33:18.384Z</time>
      </trkpt>
      <trkpt lat="44.44208" lon="6.13091">
        <ele>1242.9</ele>
        <time>2020-09-05T08:33:20.909Z</time>
      </trkpt>
      <trkpt lat="44.44202" lon="6.13084">
        <ele>1244.4</ele>
        <time>2020-09-05T08:33:23.668Z</time>
      </trkpt>
      <trkpt lat="44.44206" lon="6.13092">
        <ele>1245.8</ele>
        <time>2020-09-05T08:33:27.714Z</time>
      </trkpt>
      <trkpt lat="44.44209" lon="6.13099">
        <ele>1246.4</ele>
        <time>2020-09-05T08:33:29.529Z</time>
      </trkpt>
      <trkpt lat="44.44207" lon="6.13109">
        <ele>1252.9</ele>
        <time>2020-09-05T08:33:32.873Z</time>
      </trkpt>
      <trkpt lat="44.44202" lon="6.13117">
        <ele>1256.4</ele>
        <time>2020-09-05T08:33:35.000Z</time>
      </trkpt>
      <trkpt lat="44.44196" lon="6.13123">
        <ele>1259.8</ele>
        <time>2020-09-05T08:33:37.787Z</time>
      </trkpt>
      <trkpt lat="44.44196" lon="6.1313">
        <ele>1264.8</ele>
        <time>2020-09-05T08:33:40.384Z</time>
      </trkpt>
      <trkpt lat="44.44188" lon="6.1313">
        <ele>1267.6</ele>
        <time>2020-09-05T08:33:44.000Z</time>
      </trkpt>
      <trkpt lat="44.44181" lon="6.13131">
        <ele>1268.5</ele>
        <time>2020-09-05T08:33:46.691Z</time>
      </trkpt>
      <trkpt lat="44.44183" lon="6.13137">
        <ele>1273.2</ele>
        <time>2020-09-05T08:33:49.507Z</time>
      </trkpt>
      <trkpt lat="44.44188" lon="6.13146">
        <ele>1275.8</ele>
        <time>2020-09-05T08:33:52.145Z</time>
      </trkpt>
      <trkpt lat="44.44191" lon="6.13152">
        <ele>1275.9</ele>
        <time>2020-09-05T08:33:53.201Z</time>
      </trkpt>
      <trkpt lat="44.44195" lon="6.13158">
        <ele>1277.7</ele>
        <time>2020-09-05T08:33:58.834Z</time>
      </trkpt>
      <trkpt lat="44.44189" lon="6.13164">
        <ele>1277.5</ele>
        <time>2020-09-05T08:34:01.000Z</time>
      </trkpt>
      <trkpt lat="44.44178" lon="6.13167">
        <ele>1278.2</ele>
        <time>2020-09-05T08:34:02.000Z</time>
      </trkpt>
      <trkpt lat="44.44162" lon="6.1317">
        <ele>1281.9</ele>
        <time>2020-09-05T08:34:04.000Z</time>
      </trkpt>
      <trkpt lat="44.44166" lon="6.13172">
        <ele>1288.3</ele>
        <time>2020-09-05T08:34:08.000Z</time>
      </trkpt>
      <trkpt lat="44.44172" lon="6.13176">
        <ele>1291.1</ele>
        <time>2020-09-05T08:34:09.000Z</time>
      </trkpt>
      <trkpt lat="44.44179" lon="6.1318">
        <ele>1292.3</ele>
        <time>2020-09-05T08:34:11.000Z</time>
      </trkpt>
      <trkpt lat="44.44176" lon="6.13176">
        <ele>1291.9</ele>
        <time>2020-09-05T08:34:12.000Z</time>
      </trkpt>
      <trkpt lat="44.44167" lon="6.13171">
        <ele>1292.7</ele>
        <time>2020-09-05T08:34:13.997Z</time>
      </trkpt>
      <trkpt lat="44.4417" lon="6.1318">
        <ele>1293.8</ele>
        <time>2020-09-05T08:34:17.000Z</time>
      </trkpt>
      <trkpt lat="44.44173" lon="6.13185">
        <ele>1294.5</ele>
        <time>2020-09-05T08:34:19.060Z</time>
      </trkpt>
      <trkpt lat="44.44172" lon="6.13193">
        <ele>1293.7</ele>
        <time>2020-09-05T08:34:25.000Z</time>
      </trkpt>
      <trkpt lat="44.44171" lon="6.132">
        <ele>1301.6</ele>
        <time>2020-09-05T08:34:32.447Z</time>
      </trkpt>
      <trkpt lat="44.44168" lon="6.13207">
        <ele>1301.7</ele>
        <time>2020-09-05T08:34:36.280Z</time>
      </trkpt>
      <trkpt lat="44.44162" lon="6.13214">
        <ele>1304.7</ele>
        <time>2020-09-05T08:34:39.000Z</time>
      </trkpt>
      <trkpt lat="44.4415" lon="6.13214">
        <ele>1305.4</ele>
        <time>2020-09-05T08:34:40.000Z</time>
      </trkpt>
      <trkpt lat="44.4414" lon="6.13215">
        <ele>1305.2</ele>
        <time>2020-09-05T08:34:41.000Z</time>
      </trkpt>
      <trkpt lat="44.44127" lon="6.1322">
        <ele>1311.3</ele>
        <time>2020-09-05T08:34:43.000Z</time>
      </trkpt>
      <trkpt lat="44.4412" lon="6.13227">
        <ele>1309.5</ele>
        <time>2020-09-05T08:34:46.000Z</time>
      </trkpt>
      <trkpt lat="44.4413" lon="6.1324">
        <ele>1315.7</ele>
        <time>2020-09-05T08:34:50.000Z</time>
      </trkpt>
      <trkpt lat="44.44137" lon="6.13247">
        <ele>1317.3</ele>
        <time>2020-09-05T08:34:52.000Z</time>
      </trkpt>
      <trkpt lat="44.44135" lon="6.13256">
        <ele>1318.7</ele>
        <time>2020-09-05T08:34:54.233Z</time>
      </trkpt>
      <trkpt lat="44.44132" lon="6.13261">
        <ele>1319.5</ele>
        <time>2020-09-05T08:34:55.482Z</time>
      </trkpt>
      <trkpt lat="44.44127" lon="6.13267">
        <ele>1320.7</ele>
        <time>2020-09-05T08:34:56.979Z</time>
      </trkpt>
      <trkpt lat="44.44122" lon="6.13266">
        <ele>1320.9</ele>
        <time>2020-09-05T08:34:58.416Z</time>
      </trkpt>
      <trkpt lat="44.44116" lon="6.13264">
        <ele>1321.4</ele>
        <time>2020-09-05T08:34:59.956Z</time>
      </trkpt>
      <trkpt lat="44.44111" lon="6.13265">
        <ele>1321.7</ele>
        <time>2020-09-05T08:35:01.000Z</time>
      </trkpt>
      <trkpt lat="44.44106" lon="6.13266">
        <ele>1323.5</ele>
        <time>2020-09-05T08:35:02.000Z</time>
      </trkpt>
      <trkpt lat="44.441" lon="6.13268">
        <ele>1324.5</ele>
        <time>2020-09-05T08:35:03.000Z</time>
      </trkpt>
      <trkpt lat="44.44093" lon="6.13269">
        <ele>1326.8</ele>
        <time>2020-09-05T08:35:04.000Z</time>
      </trkpt>
      <trkpt lat="44.44079" lon="6.13269">
        <ele>1328.9</ele>
        <time>2020-09-05T08:35:06.000Z</time>
      </trkpt>
      <trkpt lat="44.44068" lon="6.13273">
        <ele>1331.1</ele>
        <time>2020-09-05T08:35:08.000Z</time>
      </trkpt>
      <trkpt lat="44.44072" lon="6.13278">
        <ele>1333.9</ele>
        <time>2020-09-05T08:35:13.000Z</time>
      </trkpt>
      <trkpt lat="44.44067" lon="6.13282">
        <ele>1341.6</ele>
        <time>2020-09-05T08:35:19.000Z</time>
      </trkpt>
      <trkpt lat="44.44062" lon="6.13279">
        <ele>1346.6</ele>
        <time>2020-09-05T08:35:21.000Z</time>
      </trkpt>
      <trkpt lat="44.44056" lon="6.1328">
        <ele>1347.4</ele>
        <time>2020-09-05T08:35:22.000Z</time>
      </trkpt>
      <trkpt lat="44.44041" lon="6.13284">
        <ele>1347.3</ele>
        <time>2020-09-05T08:35:24.000Z</time>
      </trkpt>
      <trkpt lat="44.44032" lon="6.13287">
        <ele>1349.5</ele>
        <time>2020-09-05T08:35:25.000Z</time>
      </trkpt>
      <trkpt lat="44.44017" lon="6.13294">
        <ele>1351.2</ele>
        <time>2020-09-05T08:35:27.000Z</time>
      </trkpt>
      <trkpt lat="44.44011" lon="6.13297">
        <ele>1351.9</ele>
        <time>2020-09-05T08:35:29.174Z</time>
      </trkpt>
      <trkpt lat="44.44018" lon="6.13298">
        <ele>1358.2</ele>
        <time>2020-09-05T08:35:32.639Z</time>
      </trkpt>
      <trkpt lat="44.4403" lon="6.13307">
        <ele>1361.8</ele>
        <time>2020-09-05T08:35:34.000Z</time>
      </trkpt>
      <trkpt lat="44.44038" lon="6.13312">
        <ele>1362.4</ele>
        <time>2020-09-05T08:35:35.000Z</time>
      </trkpt>
      <trkpt lat="44.44045" lon="6.13316">
        <ele>1362.9</ele>
        <time>2020-09-05T08:35:36.000Z</time>
      </trkpt>
      <trkpt lat="44.44051" lon="6.13319">
        <ele>1363.8</ele>
        <time>2020-09-05T08:35:37.000Z</time>
      </trkpt>
      <trkpt lat="44.44055" lon="6.13323">
        <ele>1364.1</ele>
        <time>2020-09-05T08:35:38.811Z</time>
      </trkpt>
      <trkpt lat="44.44063" lon="6.13326">
        <ele>1365.1</ele>
        <time>2020-09-05T08:35:40.000Z</time>
      </trkpt>
      <trkpt lat="44.44058" lon="6.13327">
        <ele>1368.3</ele>
        <time>2020-09-05T08:35:43.000Z</time>
      </trkpt>
      <trkpt lat="44.4405" lon="6.13326">
        <ele>1368.2</ele>
        <time>2020-09-05T08:35:44.000Z</time>
      </trkpt>
      <trkpt lat="44.44043" lon="6.13327">
        <ele>1369.3</ele>
        <time>2020-09-05T08:35:45.000Z</time>
      </trkpt>
      <trkpt lat="44.44035" lon="6.13328">
        <ele>1370.4</ele>
        <time>2020-09-05T08:35:46.000Z</time>
      </trkpt>
      <trkpt lat="44.44025" lon="6.13328">
        <ele>1373.1</ele>
        <time>2020-09-05T08:35:47.000Z</time>
      </trkpt>
      <trkpt lat="44.44015" lon="6.13328">
        <ele>1374.2</ele>
        <time>2020-09-05T08:35:48.000Z</time>
      </trkpt>
      <trkpt lat="44.43999" lon="6.13326">
        <ele>1378</ele>
        <time>2020-09-05T08:35:50.000Z</time>
      </trkpt>
      <trkpt lat="44.4399" lon="6.13328">
        <ele>1377.4</ele>
        <time>2020-09-05T08:35:52.000Z</time>
      </trkpt>
      <trkpt lat="44.43985" lon="6.1333">
        <ele>1379.3</ele>
        <time>2020-09-05T08:35:53.000Z</time>
      </trkpt>
      <trkpt lat="44.4398" lon="6.1333">
        <ele>1381.4</ele>
        <time>2020-09-05T08:35:54.000Z</time>
      </trkpt>
      <trkpt lat="44.43971" lon="6.1333">
        <ele>1384.6</ele>
        <time>2020-09-05T08:35:56.000Z</time>
      </trkpt>
      <trkpt lat="44.43962" lon="6.13329">
        <ele>1384.9</ele>
        <time>2020-09-05T08:35:57.000Z</time>
      </trkpt>
      <trkpt lat="44.43955" lon="6.13327">
        <ele>1385.5</ele>
        <time>2020-09-05T08:35:58.000Z</time>
      </trkpt>
      <trkpt lat="44.43945" lon="6.13317">
        <ele>1387.6</ele>
        <time>2020-09-05T08:36:00.000Z</time>
      </trkpt>
      <trkpt lat="44.4394" lon="6.13314">
        <ele>1388.3</ele>
        <time>2020-09-05T08:36:01.000Z</time>
      </trkpt>
      <trkpt lat="44.43927" lon="6.1331">
        <ele>1392.6</ele>
        <time>2020-09-05T08:36:03.000Z</time>
      </trkpt>
      <trkpt lat="44.43919" lon="6.13307">
        <ele>1395.2</ele>
        <time>2020-09-05T08:36:04.000Z</time>
      </trkpt>
      <trkpt lat="44.43904" lon="6.13308">
        <ele>1396.3</ele>
        <time>2020-09-05T08:36:06.000Z</time>
      </trkpt>
      <trkpt lat="44.4389" lon="6.13302">
        <ele>1400.1</ele>
        <time>2020-09-05T08:36:08.000Z</time>
      </trkpt>
      <trkpt lat="44.43885" lon="6.13298">
        <ele>1399.5</ele>
        <time>2020-09-05T08:36:09.000Z</time>
      </trkpt>
      <trkpt lat="44.43877" lon="6.13289">
        <ele>1398.6</ele>
        <time>2020-09-05T08:36:11.000Z</time>
      </trkpt>
      <trkpt lat="44.43874" lon="6.13282">
        <ele>1398.7</ele>
        <time>2020-09-05T08:36:12.000Z</time>
      </trkpt>
      <trkpt lat="44.43868" lon="6.1327">
        <ele>1397.4</ele>
        <time>2020-09-05T08:36:14.000Z</time>
      </trkpt>
      <trkpt lat="44.43865" lon="6.13265">
        <ele>1397.7</ele>
        <time>2020-09-05T08:36:15.000Z</time>
      </trkpt>
      <trkpt lat="44.43861" lon="6.13268">
        <ele>1398.9</ele>
        <time>2020-09-05T08:36:17.000Z</time>
      </trkpt>
      <trkpt lat="44.43862" lon="6.13275">
        <ele>1401</ele>
        <time>2020-09-05T08:36:19.000Z</time>
      </trkpt>
      <trkpt lat="44.43857" lon="6.1328">
        <ele>1402.9</ele>
        <time>2020-09-05T08:36:22.000Z</time>
      </trkpt>
      <trkpt lat="44.43849" lon="6.13285">
        <ele>1403.9</ele>
        <time>2020-09-05T08:36:26.000Z</time>
      </trkpt>
      <trkpt lat="44.4384" lon="6.13282">
        <ele>1403.3</ele>
        <time>2020-09-05T08:36:28.184Z</time>
      </trkpt>
      <trkpt lat="44.43826" lon="6.13276">
        <ele>1406.2</ele>
        <time>2020-09-05T08:36:30.000Z</time>
      </trkpt>
      <trkpt lat="44.43811" lon="6.13277">
        <ele>1404.4</ele>
        <time>2020-09-05T08:36:32.000Z</time>
      </trkpt>
      <trkpt lat="44.43795" lon="6.13282">
        <ele>1405.2</ele>
        <time>2020-09-05T08:36:34.000Z</time>
      </trkpt>
      <trkpt lat="44.43789" lon="6.13289">
        <ele>1405</ele>
        <time>2020-09-05T08:36:35.000Z</time>
      </trkpt>
      <trkpt lat="44.43783" lon="6.13297">
        <ele>1407</ele>
        <time>2020-09-05T08:36:36.000Z</time>
      </trkpt>
      <trkpt lat="44.43779" lon="6.13303">
        <ele>1407.4</ele>
        <time>2020-09-05T08:36:37.000Z</time>
      </trkpt>
      <trkpt lat="44.43779" lon="6.1331">
        <ele>1408.5</ele>
        <time>2020-09-05T08:36:39.000Z</time>
      </trkpt>
      <trkpt lat="44.43775" lon="6.13305">
        <ele>1427.4</ele>
        <time>2020-09-05T08:44:28.184Z</time>
      </trkpt>
      <trkpt lat="44.4378" lon="6.13297">
        <ele>1423.9</ele>
        <time>2020-09-05T08:44:31.000Z</time>
      </trkpt>
      <trkpt lat="44.43785" lon="6.13245">
        <ele>1422</ele>
        <time>2020-09-05T08:44:33.000Z</time>
      </trkpt>
      <trkpt lat="44.43784" lon="6.13215">
        <ele>1420</ele>
        <time>2020-09-05T08:44:34.000Z</time>
      </trkpt>
      <trkpt lat="44.43783" lon="6.13183">
        <ele>1419.1</ele>
        <time>2020-09-05T08:44:35.000Z</time>
      </trkpt>
      <trkpt lat="44.43778" lon="6.13128">
        <ele>1417.7</ele>
        <time>2020-09-05T08:44:37.000Z</time>
      </trkpt>
      <trkpt lat="44.43776" lon="6.13102">
        <ele>1418.8</ele>
        <time>2020-09-05T08:44:38.000Z</time>
      </trkpt>
      <trkpt lat="44.43774" lon="6.13078">
        <ele>1419.2</ele>
        <time>2020-09-05T08:44:39.000Z</time>
      </trkpt>
      <trkpt lat="44.43768" lon="6.13049">
        <ele>1417.2</ele>
        <time>2020-09-05T08:44:41.000Z</time>
      </trkpt>
      <trkpt lat="44.43765" lon="6.13037">
        <ele>1417.4</ele>
        <time>2020-09-05T08:44:42.000Z</time>
      </trkpt>
      <trkpt lat="44.43757" lon="6.13017">
        <ele>1416.5</ele>
        <time>2020-09-05T08:44:44.000Z</time>
      </trkpt>
      <trkpt lat="44.43752" lon="6.1301">
        <ele>1416.6</ele>
        <time>2020-09-05T08:44:45.000Z</time>
      </trkpt>
      <trkpt lat="44.43742" lon="6.12998">
        <ele>1418.7</ele>
        <time>2020-09-05T08:44:47.000Z</time>
      </trkpt>
      <trkpt lat="44.43737" lon="6.12994">
        <ele>1417.4</ele>
        <time>2020-09-05T08:44:48.000Z</time>
      </trkpt>
      <trkpt lat="44.43732" lon="6.1299">
        <ele>1418.5</ele>
        <time>2020-09-05T08:44:49.000Z</time>
      </trkpt>
      <trkpt lat="44.43727" lon="6.12986">
        <ele>1419.6</ele>
        <time>2020-09-05T08:44:50.000Z</time>
      </trkpt>
      <trkpt lat="44.43716" lon="6.12982">
        <ele>1421.7</ele>
        <time>2020-09-05T08:44:52.000Z</time>
      </trkpt>
      <trkpt lat="44.43704" lon="6.12974">
        <ele>1423</ele>
        <time>2020-09-05T08:44:54.000Z</time>
      </trkpt>
      <trkpt lat="44.43698" lon="6.12959">
        <ele>1422.6</ele>
        <time>2020-09-05T08:44:56.000Z</time>
      </trkpt>
      <trkpt lat="44.43697" lon="6.1295">
        <ele>1425</ele>
        <time>2020-09-05T08:44:57.000Z</time>
      </trkpt>
      <trkpt lat="44.43697" lon="6.1294">
        <ele>1424.2</ele>
        <time>2020-09-05T08:44:58.000Z</time>
      </trkpt>
      <trkpt lat="44.43695" lon="6.12929">
        <ele>1425.4</ele>
        <time>2020-09-05T08:44:59.000Z</time>
      </trkpt>
      <trkpt lat="44.43692" lon="6.12919">
        <ele>1426.5</ele>
        <time>2020-09-05T08:45:00.000Z</time>
      </trkpt>
      <trkpt lat="44.43681" lon="6.129">
        <ele>1426.3</ele>
        <time>2020-09-05T08:45:02.000Z</time>
      </trkpt>
      <trkpt lat="44.43669" lon="6.12879">
        <ele>1427.5</ele>
        <time>2020-09-05T08:45:04.000Z</time>
      </trkpt>
      <trkpt lat="44.43659" lon="6.12859">
        <ele>1429.3</ele>
        <time>2020-09-05T08:45:06.000Z</time>
      </trkpt>
      <trkpt lat="44.43645" lon="6.12845">
        <ele>1432.7</ele>
        <time>2020-09-05T08:45:08.000Z</time>
      </trkpt>
      <trkpt lat="44.43629" lon="6.12834">
        <ele>1434.6</ele>
        <time>2020-09-05T08:45:10.000Z</time>
      </trkpt>
      <trkpt lat="44.43619" lon="6.1283">
        <ele>1435.1</ele>
        <time>2020-09-05T08:45:11.000Z</time>
      </trkpt>
      <trkpt lat="44.4361" lon="6.12826">
        <ele>1437.1</ele>
        <time>2020-09-05T08:45:12.000Z</time>
      </trkpt>
      <trkpt lat="44.43594" lon="6.12811">
        <ele>1437.4</ele>
        <time>2020-09-05T08:45:14.000Z</time>
      </trkpt>
      <trkpt lat="44.43584" lon="6.12789">
        <ele>1439.7</ele>
        <time>2020-09-05T08:45:16.000Z</time>
      </trkpt>
      <trkpt lat="44.43579" lon="6.12776">
        <ele>1441.6</ele>
        <time>2020-09-05T08:45:17.000Z</time>
      </trkpt>
      <trkpt lat="44.43575" lon="6.12764">
        <ele>1441.6</ele>
        <time>2020-09-05T08:45:18.000Z</time>
      </trkpt>
      <trkpt lat="44.43567" lon="6.12742">
        <ele>1445.7</ele>
        <time>2020-09-05T08:45:20.000Z</time>
      </trkpt>
      <trkpt lat="44.43562" lon="6.12725">
        <ele>1446.7</ele>
        <time>2020-09-05T08:45:22.000Z</time>
      </trkpt>
      <trkpt lat="44.43564" lon="6.12711">
        <ele>1447.6</ele>
        <time>2020-09-05T08:45:24.000Z</time>
      </trkpt>
      <trkpt lat="44.43565" lon="6.12697">
        <ele>1448.2</ele>
        <time>2020-09-05T08:45:27.000Z</time>
      </trkpt>
      <trkpt lat="44.43565" lon="6.12676">
        <ele>1448.1</ele>
        <time>2020-09-05T08:45:29.000Z</time>
      </trkpt>
      <trkpt lat="44.43564" lon="6.12643">
        <ele>1446.1</ele>
        <time>2020-09-05T08:45:31.000Z</time>
      </trkpt>
      <trkpt lat="44.43561" lon="6.1261">
        <ele>1444.6</ele>
        <time>2020-09-05T08:45:33.000Z</time>
      </trkpt>
      <trkpt lat="44.43559" lon="6.12581">
        <ele>1442.4</ele>
        <time>2020-09-05T08:45:35.000Z</time>
      </trkpt>
      <trkpt lat="44.43558" lon="6.12569">
        <ele>1442.3</ele>
        <time>2020-09-05T08:45:36.000Z</time>
      </trkpt>
      <trkpt lat="44.43557" lon="6.12543">
        <ele>1442.3</ele>
        <time>2020-09-05T08:45:38.000Z</time>
      </trkpt>
      <trkpt lat="44.43556" lon="6.1253">
        <ele>1442.4</ele>
        <time>2020-09-05T08:45:39.000Z</time>
      </trkpt>
      <trkpt lat="44.43556" lon="6.12517">
        <ele>1440.3</ele>
        <time>2020-09-05T08:45:40.000Z</time>
      </trkpt>
      <trkpt lat="44.43555" lon="6.12504">
        <ele>1441.3</ele>
        <time>2020-09-05T08:45:41.000Z</time>
      </trkpt>
      <trkpt lat="44.43553" lon="6.12482">
        <ele>1441.1</ele>
        <time>2020-09-05T08:45:43.000Z</time>
      </trkpt>
      <trkpt lat="44.43551" lon="6.12472">
        <ele>1441.3</ele>
        <time>2020-09-05T08:45:44.000Z</time>
      </trkpt>
      <trkpt lat="44.43544" lon="6.12454">
        <ele>1442.8</ele>
        <time>2020-09-05T08:45:46.000Z</time>
      </trkpt>
      <trkpt lat="44.4354" lon="6.1244">
        <ele>1445.4</ele>
        <time>2020-09-05T08:45:48.000Z</time>
      </trkpt>
      <trkpt lat="44.43545" lon="6.12431">
        <ele>1442.6</ele>
        <time>2020-09-05T08:45:50.000Z</time>
      </trkpt>
      <trkpt lat="44.43547" lon="6.12424">
        <ele>1442.1</ele>
        <time>2020-09-05T08:45:51.000Z</time>
      </trkpt>
      <trkpt lat="44.43548" lon="6.12413">
        <ele>1441</ele>
        <time>2020-09-05T08:45:53.000Z</time>
      </trkpt>
      <trkpt lat="44.43546" lon="6.12393">
        <ele>1438.1</ele>
        <time>2020-09-05T08:45:55.000Z</time>
      </trkpt>
      <trkpt lat="44.43546" lon="6.12383">
        <ele>1438.1</ele>
        <time>2020-09-05T08:45:56.000Z</time>
      </trkpt>
      <trkpt lat="44.43548" lon="6.12372">
        <ele>1436.3</ele>
        <time>2020-09-05T08:45:57.000Z</time>
      </trkpt>
      <trkpt lat="44.4355" lon="6.1236">
        <ele>1436.7</ele>
        <time>2020-09-05T08:45:58.000Z</time>
      </trkpt>
      <trkpt lat="44.43554" lon="6.12339">
        <ele>1439.2</ele>
        <time>2020-09-05T08:46:00.000Z</time>
      </trkpt>
      <trkpt lat="44.43556" lon="6.12328">
        <ele>1439</ele>
        <time>2020-09-05T08:46:01.000Z</time>
      </trkpt>
      <trkpt lat="44.43561" lon="6.12306">
        <ele>1438.2</ele>
        <time>2020-09-05T08:46:03.000Z</time>
      </trkpt>
      <trkpt lat="44.43564" lon="6.12294">
        <ele>1437.2</ele>
        <time>2020-09-05T08:46:04.000Z</time>
      </trkpt>
      <trkpt lat="44.43566" lon="6.12282">
        <ele>1436.5</ele>
        <time>2020-09-05T08:46:05.000Z</time>
      </trkpt>
      <trkpt lat="44.43569" lon="6.12268">
        <ele>1435.7</ele>
        <time>2020-09-05T08:46:06.000Z</time>
      </trkpt>
      <trkpt lat="44.43573" lon="6.12232">
        <ele>1433.7</ele>
        <time>2020-09-05T08:46:08.000Z</time>
      </trkpt>
      <trkpt lat="44.43568" lon="6.12234">
        <ele>1433.1</ele>
        <time>2020-09-05T08:46:11.000Z</time>
      </trkpt>
      <trkpt lat="44.43564" lon="6.12237">
        <ele>1434.1</ele>
        <time>2020-09-05T08:46:13.000Z</time>
      </trkpt>
      <trkpt lat="44.43562" lon="6.12244">
        <ele>1432.2</ele>
        <time>2020-09-05T08:46:25.000Z</time>
      </trkpt>
      <trkpt lat="44.4357" lon="6.12242">
        <ele>1432.9</ele>
        <time>2020-09-05T08:46:32.037Z</time>
      </trkpt>
      <trkpt lat="44.43575" lon="6.12237">
        <ele>1430.2</ele>
        <time>2020-09-05T08:46:34.000Z</time>
      </trkpt>
      <trkpt lat="44.43577" lon="6.12231">
        <ele>1431.1</ele>
        <time>2020-09-05T08:46:35.718Z</time>
      </trkpt>
      <trkpt lat="44.43581" lon="6.12223">
        <ele>1431.4</ele>
        <time>2020-09-05T08:46:37.000Z</time>
      </trkpt>
      <trkpt lat="44.43585" lon="6.12209">
        <ele>1431.6</ele>
        <time>2020-09-05T08:46:39.254Z</time>
      </trkpt>
      <trkpt lat="44.43586" lon="6.12198">
        <ele>1431.2</ele>
        <time>2020-09-05T08:46:41.000Z</time>
      </trkpt>
      <trkpt lat="44.43593" lon="6.12182">
        <ele>1434.1</ele>
        <time>2020-09-05T08:46:44.000Z</time>
      </trkpt>
      <trkpt lat="44.43597" lon="6.1217">
        <ele>1432</ele>
        <time>2020-09-05T08:46:47.000Z</time>
      </trkpt>
      <trkpt lat="44.43599" lon="6.12176">
        <ele>1431.8</ele>
        <time>2020-09-05T08:46:52.000Z</time>
      </trkpt>
      <trkpt lat="44.43604" lon="6.12175">
        <ele>1435.2</ele>
        <time>2020-09-05T08:46:58.000Z</time>
      </trkpt>
      <trkpt lat="44.43609" lon="6.12168">
        <ele>1430.8</ele>
        <time>2020-09-05T08:47:04.292Z</time>
      </trkpt>
      <trkpt lat="44.43615" lon="6.12159">
        <ele>1429.1</ele>
        <time>2020-09-05T08:47:07.000Z</time>
      </trkpt>
      <trkpt lat="44.43617" lon="6.12151">
        <ele>1429.9</ele>
        <time>2020-09-05T08:47:10.959Z</time>
      </trkpt>
      <trkpt lat="44.43622" lon="6.1215">
        <ele>1429.9</ele>
        <time>2020-09-05T08:47:15.565Z</time>
      </trkpt>
      <trkpt lat="44.43631" lon="6.12131">
        <ele>1426.5</ele>
        <time>2020-09-05T08:47:19.000Z</time>
      </trkpt>
      <trkpt lat="44.43635" lon="6.12122">
        <ele>1425.9</ele>
        <time>2020-09-05T08:47:20.000Z</time>
      </trkpt>
      <trkpt lat="44.43649" lon="6.12096">
        <ele>1426.6</ele>
        <time>2020-09-05T08:47:21.000Z</time>
      </trkpt>
      <trkpt lat="44.43657" lon="6.12082">
        <ele>1424.7</ele>
        <time>2020-09-05T08:47:29.000Z</time>
      </trkpt>
      <trkpt lat="44.43662" lon="6.12081">
        <ele>1423.2</ele>
        <time>2020-09-05T08:47:32.000Z</time>
      </trkpt>
      <trkpt lat="44.43667" lon="6.12078">
        <ele>1422.6</ele>
        <time>2020-09-05T08:47:35.000Z</time>
      </trkpt>
      <trkpt lat="44.43672" lon="6.12079">
        <ele>1417.3</ele>
        <time>2020-09-05T08:48:02.000Z</time>
      </trkpt>
      <trkpt lat="44.43672" lon="6.12071">
        <ele>1414.5</ele>
        <time>2020-09-05T08:48:08.022Z</time>
      </trkpt>
      <trkpt lat="44.43677" lon="6.12067">
        <ele>1414</ele>
        <time>2020-09-05T08:48:12.966Z</time>
      </trkpt>
      <trkpt lat="44.43691" lon="6.12061">
        <ele>1411.4</ele>
        <time>2020-09-05T08:48:14.000Z</time>
      </trkpt>
      <trkpt lat="44.43701" lon="6.12057">
        <ele>1410.4</ele>
        <time>2020-09-05T08:48:15.000Z</time>
      </trkpt>
      <trkpt lat="44.43721" lon="6.12051">
        <ele>1409.2</ele>
        <time>2020-09-05T08:48:17.000Z</time>
      </trkpt>
      <trkpt lat="44.43729" lon="6.12048">
        <ele>1407.9</ele>
        <time>2020-09-05T08:48:18.000Z</time>
      </trkpt>
      <trkpt lat="44.43736" lon="6.12046">
        <ele>1404.7</ele>
        <time>2020-09-05T08:48:19.000Z</time>
      </trkpt>
      <trkpt lat="44.43747" lon="6.1204">
        <ele>1398.1</ele>
        <time>2020-09-05T08:48:21.000Z</time>
      </trkpt>
      <trkpt lat="44.43756" lon="6.12035">
        <ele>1395</ele>
        <time>2020-09-05T08:48:23.000Z</time>
      </trkpt>
      <trkpt lat="44.43767" lon="6.12031">
        <ele>1393.9</ele>
        <time>2020-09-05T08:48:25.000Z</time>
      </trkpt>
      <trkpt lat="44.43782" lon="6.12024">
        <ele>1391.4</ele>
        <time>2020-09-05T08:48:27.000Z</time>
      </trkpt>
      <trkpt lat="44.43789" lon="6.1202">
        <ele>1391.1</ele>
        <time>2020-09-05T08:48:28.000Z</time>
      </trkpt>
      <trkpt lat="44.43793" lon="6.12016">
        <ele>1390.8</ele>
        <time>2020-09-05T08:48:29.000Z</time>
      </trkpt>
      <trkpt lat="44.43797" lon="6.12011">
        <ele>1391.2</ele>
        <time>2020-09-05T08:48:31.000Z</time>
      </trkpt>
      <trkpt lat="44.43793" lon="6.12">
        <ele>1386.2</ele>
        <time>2020-09-05T08:48:34.000Z</time>
      </trkpt>
      <trkpt lat="44.4379" lon="6.11989">
        <ele>1383.7</ele>
        <time>2020-09-05T08:48:36.000Z</time>
      </trkpt>
      <trkpt lat="44.43786" lon="6.11971">
        <ele>1381.2</ele>
        <time>2020-09-05T08:48:39.000Z</time>
      </trkpt>
      <trkpt lat="44.43784" lon="6.11961">
        <ele>1378.2</ele>
        <time>2020-09-05T08:48:41.000Z</time>
      </trkpt>
      <trkpt lat="44.43783" lon="6.11953">
        <ele>1377.4</ele>
        <time>2020-09-05T08:48:42.840Z</time>
      </trkpt>
      <trkpt lat="44.43783" lon="6.11939">
        <ele>1378.6</ele>
        <time>2020-09-05T08:48:45.935Z</time>
      </trkpt>
      <trkpt lat="44.43786" lon="6.1193">
        <ele>1375.1</ele>
        <time>2020-09-05T08:48:48.000Z</time>
      </trkpt>
      <trkpt lat="44.43791" lon="6.11918">
        <ele>1374.4</ele>
        <time>2020-09-05T08:48:50.000Z</time>
      </trkpt>
      <trkpt lat="44.43795" lon="6.11913">
        <ele>1373.6</ele>
        <time>2020-09-05T08:48:51.372Z</time>
      </trkpt>
      <trkpt lat="44.43799" lon="6.11909">
        <ele>1373.6</ele>
        <time>2020-09-05T08:48:52.738Z</time>
      </trkpt>
      <trkpt lat="44.43804" lon="6.11901">
        <ele>1373.5</ele>
        <time>2020-09-05T08:48:55.414Z</time>
      </trkpt>
      <trkpt lat="44.43809" lon="6.11899">
        <ele>1371.7</ele>
        <time>2020-09-05T08:48:58.000Z</time>
      </trkpt>
      <trkpt lat="44.43814" lon="6.11899">
        <ele>1371.2</ele>
        <time>2020-09-05T08:49:01.003Z</time>
      </trkpt>
      <trkpt lat="44.4382" lon="6.11894">
        <ele>1368.3</ele>
        <time>2020-09-05T08:49:04.000Z</time>
      </trkpt>
      <trkpt lat="44.43824" lon="6.11882">
        <ele>1366.1</ele>
        <time>2020-09-05T08:49:06.600Z</time>
      </trkpt>
      <trkpt lat="44.43822" lon="6.11875">
        <ele>1366.6</ele>
        <time>2020-09-05T08:49:07.999Z</time>
      </trkpt>
      <trkpt lat="44.4382" lon="6.11869">
        <ele>1363.7</ele>
        <time>2020-09-05T08:49:09.099Z</time>
      </trkpt>
      <trkpt lat="44.43815" lon="6.11855">
        <ele>1364.2</ele>
        <time>2020-09-05T08:49:10.000Z</time>
      </trkpt>
      <trkpt lat="44.43813" lon="6.11838">
        <ele>1362.8</ele>
        <time>2020-09-05T08:49:12.000Z</time>
      </trkpt>
      <trkpt lat="44.43815" lon="6.1183">
        <ele>1360.7</ele>
        <time>2020-09-05T08:49:15.000Z</time>
      </trkpt>
      <trkpt lat="44.43818" lon="6.11825">
        <ele>1362.9</ele>
        <time>2020-09-05T08:49:16.434Z</time>
      </trkpt>
      <trkpt lat="44.43821" lon="6.1182">
        <ele>1364.3</ele>
        <time>2020-09-05T08:49:17.555Z</time>
      </trkpt>
      <trkpt lat="44.4383" lon="6.11809">
        <ele>1364.4</ele>
        <time>2020-09-05T08:49:19.000Z</time>
      </trkpt>
      <trkpt lat="44.43837" lon="6.11803">
        <ele>1363.9</ele>
        <time>2020-09-05T08:49:21.000Z</time>
      </trkpt>
      <trkpt lat="44.43843" lon="6.11803">
        <ele>1363.2</ele>
        <time>2020-09-05T08:49:22.000Z</time>
      </trkpt>
      <trkpt lat="44.4385" lon="6.11804">
        <ele>1360.7</ele>
        <time>2020-09-05T08:49:23.398Z</time>
      </trkpt>
      <trkpt lat="44.43858" lon="6.11804">
        <ele>1359</ele>
        <time>2020-09-05T08:49:25.017Z</time>
      </trkpt>
      <trkpt lat="44.43862" lon="6.118">
        <ele>1358.5</ele>
        <time>2020-09-05T08:49:26.000Z</time>
      </trkpt>
      <trkpt lat="44.43866" lon="6.11792">
        <ele>1353.8</ele>
        <time>2020-09-05T08:49:28.095Z</time>
      </trkpt>
      <trkpt lat="44.4386" lon="6.11787">
        <ele>1351.4</ele>
        <time>2020-09-05T08:49:30.355Z</time>
      </trkpt>
      <trkpt lat="44.43855" lon="6.11783">
        <ele>1351.3</ele>
        <time>2020-09-05T08:49:32.075Z</time>
      </trkpt>
      <trkpt lat="44.43848" lon="6.11777">
        <ele>1352.9</ele>
        <time>2020-09-05T08:49:34.000Z</time>
      </trkpt>
      <trkpt lat="44.43841" lon="6.1177">
        <ele>1352.4</ele>
        <time>2020-09-05T08:49:37.000Z</time>
      </trkpt>
      <trkpt lat="44.4384" lon="6.11758">
        <ele>1352.5</ele>
        <time>2020-09-05T08:49:54.000Z</time>
      </trkpt>
      <trkpt lat="44.43841" lon="6.11744">
        <ele>1352</ele>
        <time>2020-09-05T08:49:55.820Z</time>
      </trkpt>
      <trkpt lat="44.43845" lon="6.11727">
        <ele>1352.3</ele>
        <time>2020-09-05T08:49:57.000Z</time>
      </trkpt>
      <trkpt lat="44.43849" lon="6.11715">
        <ele>1352.6</ele>
        <time>2020-09-05T08:49:58.000Z</time>
      </trkpt>
      <trkpt lat="44.43854" lon="6.11703">
        <ele>1352.9</ele>
        <time>2020-09-05T08:49:59.000Z</time>
      </trkpt>
      <trkpt lat="44.43858" lon="6.1168">
        <ele>1352.2</ele>
        <time>2020-09-05T08:50:01.000Z</time>
      </trkpt>
      <trkpt lat="44.43861" lon="6.11671">
        <ele>1353.9</ele>
        <time>2020-09-05T08:50:02.000Z</time>
      </trkpt>
      <trkpt lat="44.43871" lon="6.11667">
        <ele>1353.3</ele>
        <time>2020-09-05T08:50:04.000Z</time>
      </trkpt>
      <trkpt lat="44.43876" lon="6.11669">
        <ele>1353.1</ele>
        <time>2020-09-05T08:50:05.000Z</time>
      </trkpt>
      <trkpt lat="44.43904" lon="6.11676">
        <ele>1348.2</ele>
        <time>2020-09-05T08:50:09.000Z</time>
      </trkpt>
      <trkpt lat="44.4392" lon="6.11671">
        <ele>1347.3</ele>
        <time>2020-09-05T08:50:11.000Z</time>
      </trkpt>
      <trkpt lat="44.43926" lon="6.1167">
        <ele>1347.1</ele>
        <time>2020-09-05T08:50:12.000Z</time>
      </trkpt>
      <trkpt lat="44.43933" lon="6.11662">
        <ele>1346</ele>
        <time>2020-09-05T08:50:15.000Z</time>
      </trkpt>
      <trkpt lat="44.43937" lon="6.11644">
        <ele>1345.1</ele>
        <time>2020-09-05T08:50:18.000Z</time>
      </trkpt>
      <trkpt lat="44.43936" lon="6.11631">
        <ele>1342.6</ele>
        <time>2020-09-05T08:50:20.000Z</time>
      </trkpt>
      <trkpt lat="44.43935" lon="6.11624">
        <ele>1342.9</ele>
        <time>2020-09-05T08:50:21.000Z</time>
      </trkpt>
      <trkpt lat="44.43933" lon="6.11608">
        <ele>1340.6</ele>
        <time>2020-09-05T08:50:23.000Z</time>
      </trkpt>
      <trkpt lat="44.43934" lon="6.11586">
        <ele>1339.6</ele>
        <time>2020-09-05T08:50:25.000Z</time>
      </trkpt>
      <trkpt lat="44.43936" lon="6.11571">
        <ele>1339.2</ele>
        <time>2020-09-05T08:50:26.000Z</time>
      </trkpt>
      <trkpt lat="44.43941" lon="6.11536">
        <ele>1338.3</ele>
        <time>2020-09-05T08:50:28.000Z</time>
      </trkpt>
      <trkpt lat="44.43945" lon="6.11515">
        <ele>1339.6</ele>
        <time>2020-09-05T08:50:29.325Z</time>
      </trkpt>
      <trkpt lat="44.43951" lon="6.11491">
        <ele>1338.6</ele>
        <time>2020-09-05T08:50:31.000Z</time>
      </trkpt>
      <trkpt lat="44.43953" lon="6.11464">
        <ele>1337.8</ele>
        <time>2020-09-05T08:50:33.000Z</time>
      </trkpt>
      <trkpt lat="44.43953" lon="6.11451">
        <ele>1338.3</ele>
        <time>2020-09-05T08:50:34.000Z</time>
      </trkpt>
      <trkpt lat="44.43953" lon="6.11428">
        <ele>1334.6</ele>
        <time>2020-09-05T08:50:36.000Z</time>
      </trkpt>
      <trkpt lat="44.43952" lon="6.11416">
        <ele>1333.9</ele>
        <time>2020-09-05T08:50:37.000Z</time>
      </trkpt>
      <trkpt lat="44.4395" lon="6.11401">
        <ele>1331.2</ele>
        <time>2020-09-05T08:50:39.000Z</time>
      </trkpt>
      <trkpt lat="44.43951" lon="6.11395">
        <ele>1328.7</ele>
        <time>2020-09-05T08:50:40.000Z</time>
      </trkpt>
      <trkpt lat="44.43951" lon="6.1138">
        <ele>1327.8</ele>
        <time>2020-09-05T08:50:42.000Z</time>
      </trkpt>
      <trkpt lat="44.43949" lon="6.11374">
        <ele>1328.4</ele>
        <time>2020-09-05T08:50:43.000Z</time>
      </trkpt>
      <trkpt lat="44.43944" lon="6.11363">
        <ele>1328.7</ele>
        <time>2020-09-05T08:50:46.000Z</time>
      </trkpt>
      <trkpt lat="44.4395" lon="6.11363">
        <ele>1323.6</ele>
        <time>2020-09-05T08:50:49.000Z</time>
      </trkpt>
      <trkpt lat="44.43944" lon="6.11351">
        <ele>1317.6</ele>
        <time>2020-09-05T08:50:53.000Z</time>
      </trkpt>
      <trkpt lat="44.43942" lon="6.11343">
        <ele>1315.8</ele>
        <time>2020-09-05T08:50:55.000Z</time>
      </trkpt>
      <trkpt lat="44.43946" lon="6.11336">
        <ele>1311.4</ele>
        <time>2020-09-05T08:50:57.000Z</time>
      </trkpt>
      <trkpt lat="44.43952" lon="6.11329">
        <ele>1309.5</ele>
        <time>2020-09-05T08:50:59.000Z</time>
      </trkpt>
      <trkpt lat="44.43957" lon="6.1132">
        <ele>1308.2</ele>
        <time>2020-09-05T08:51:01.000Z</time>
      </trkpt>
      <trkpt lat="44.43958" lon="6.11311">
        <ele>1307.9</ele>
        <time>2020-09-05T08:51:02.905Z</time>
      </trkpt>
      <trkpt lat="44.43955" lon="6.11301">
        <ele>1301.3</ele>
        <time>2020-09-05T08:51:05.000Z</time>
      </trkpt>
      <trkpt lat="44.43952" lon="6.11288">
        <ele>1298.5</ele>
        <time>2020-09-05T08:51:07.699Z</time>
      </trkpt>
      <trkpt lat="44.43952" lon="6.11282">
        <ele>1296.8</ele>
        <time>2020-09-05T08:51:09.000Z</time>
      </trkpt>
      <trkpt lat="44.43961" lon="6.11276">
        <ele>1296.1</ele>
        <time>2020-09-05T08:51:12.122Z</time>
      </trkpt>
      <trkpt lat="44.43966" lon="6.11277">
        <ele>1293.4</ele>
        <time>2020-09-05T08:51:13.000Z</time>
      </trkpt>
      <trkpt lat="44.43972" lon="6.11273">
        <ele>1291.7</ele>
        <time>2020-09-05T08:51:15.079Z</time>
      </trkpt>
      <trkpt lat="44.43972" lon="6.11267">
        <ele>1286.8</ele>
        <time>2020-09-05T08:51:17.000Z</time>
      </trkpt>
      <trkpt lat="44.43971" lon="6.11257">
        <ele>1286.3</ele>
        <time>2020-09-05T08:51:19.059Z</time>
      </trkpt>
      <trkpt lat="44.43969" lon="6.11249">
        <ele>1284.4</ele>
        <time>2020-09-05T08:51:20.779Z</time>
      </trkpt>
      <trkpt lat="44.43968" lon="6.11239">
        <ele>1282.4</ele>
        <time>2020-09-05T08:51:23.000Z</time>
      </trkpt>
      <trkpt lat="44.43964" lon="6.11231">
        <ele>1281.3</ele>
        <time>2020-09-05T08:51:24.598Z</time>
      </trkpt>
      <trkpt lat="44.43962" lon="6.11222">
        <ele>1278</ele>
        <time>2020-09-05T08:51:26.000Z</time>
      </trkpt>
      <trkpt lat="44.4397" lon="6.11207">
        <ele>1270.4</ele>
        <time>2020-09-05T08:51:29.000Z</time>
      </trkpt>
      <trkpt lat="44.43977" lon="6.11206">
        <ele>1265.1</ele>
        <time>2020-09-05T08:51:30.000Z</time>
      </trkpt>
      <trkpt lat="44.43984" lon="6.11205">
        <ele>1265.2</ele>
        <time>2020-09-05T08:51:31.000Z</time>
      </trkpt>
      <trkpt lat="44.43992" lon="6.11205">
        <ele>1264.8</ele>
        <time>2020-09-05T08:51:32.000Z</time>
      </trkpt>
      <trkpt lat="44.44" lon="6.11207">
        <ele>1264.6</ele>
        <time>2020-09-05T08:51:33.000Z</time>
      </trkpt>
      <trkpt lat="44.44012" lon="6.11209">
        <ele>1261.4</ele>
        <time>2020-09-05T08:51:35.000Z</time>
      </trkpt>
      <trkpt lat="44.44019" lon="6.11201">
        <ele>1258.8</ele>
        <time>2020-09-05T08:51:37.000Z</time>
      </trkpt>
      <trkpt lat="44.44028" lon="6.11188">
        <ele>1255.2</ele>
        <time>2020-09-05T08:51:39.000Z</time>
      </trkpt>
      <trkpt lat="44.44034" lon="6.11183">
        <ele>1253.7</ele>
        <time>2020-09-05T08:51:40.000Z</time>
      </trkpt>
      <trkpt lat="44.44043" lon="6.11179">
        <ele>1253.3</ele>
        <time>2020-09-05T08:51:42.000Z</time>
      </trkpt>
      <trkpt lat="44.44049" lon="6.1118">
        <ele>1254.3</ele>
        <time>2020-09-05T08:51:43.000Z</time>
      </trkpt>
      <trkpt lat="44.44058" lon="6.11182">
        <ele>1252.1</ele>
        <time>2020-09-05T08:51:44.000Z</time>
      </trkpt>
      <trkpt lat="44.44071" lon="6.11188">
        <ele>1249.8</ele>
        <time>2020-09-05T08:51:45.000Z</time>
      </trkpt>
      <trkpt lat="44.44098" lon="6.112">
        <ele>1248.4</ele>
        <time>2020-09-05T08:51:47.000Z</time>
      </trkpt>
      <trkpt lat="44.4412" lon="6.11205">
        <ele>1248.3</ele>
        <time>2020-09-05T08:51:49.000Z</time>
      </trkpt>
      <trkpt lat="44.44129" lon="6.11206">
        <ele>1248</ele>
        <time>2020-09-05T08:51:50.000Z</time>
      </trkpt>
      <trkpt lat="44.44139" lon="6.11206">
        <ele>1248.3</ele>
        <time>2020-09-05T08:51:51.000Z</time>
      </trkpt>
      <trkpt lat="44.44155" lon="6.1121">
        <ele>1248</ele>
        <time>2020-09-05T08:51:53.000Z</time>
      </trkpt>
      <trkpt lat="44.44163" lon="6.11213">
        <ele>1248.3</ele>
        <time>2020-09-05T08:51:54.000Z</time>
      </trkpt>
      <trkpt lat="44.4417" lon="6.11214">
        <ele>1247.6</ele>
        <time>2020-09-05T08:51:55.000Z</time>
      </trkpt>
      <trkpt lat="44.44183" lon="6.11214">
        <ele>1246.4</ele>
        <time>2020-09-05T08:51:57.000Z</time>
      </trkpt>
      <trkpt lat="44.44188" lon="6.11214">
        <ele>1244.7</ele>
        <time>2020-09-05T08:51:58.000Z</time>
      </trkpt>
      <trkpt lat="44.442" lon="6.11214">
        <ele>1241.9</ele>
        <time>2020-09-05T08:52:00.000Z</time>
      </trkpt>
      <trkpt lat="44.44206" lon="6.11209">
        <ele>1236.1</ele>
        <time>2020-09-05T08:52:02.000Z</time>
      </trkpt>
      <trkpt lat="44.44208" lon="6.11203">
        <ele>1231.2</ele>
        <time>2020-09-05T08:52:04.000Z</time>
      </trkpt>
      <trkpt lat="44.44214" lon="6.11205">
        <ele>1229</ele>
        <time>2020-09-05T08:52:06.000Z</time>
      </trkpt>
      <trkpt lat="44.44219" lon="6.112">
        <ele>1226.5</ele>
        <time>2020-09-05T08:52:08.000Z</time>
      </trkpt>
      <trkpt lat="44.44219" lon="6.11175">
        <ele>1222.3</ele>
        <time>2020-09-05T08:52:11.000Z</time>
      </trkpt>
      <trkpt lat="44.44215" lon="6.11161">
        <ele>1221.6</ele>
        <time>2020-09-05T08:52:12.000Z</time>
      </trkpt>
      <trkpt lat="44.44214" lon="6.11136">
        <ele>1215.7</ele>
        <time>2020-09-05T08:52:14.000Z</time>
      </trkpt>
      <trkpt lat="44.44213" lon="6.11124">
        <ele>1214.4</ele>
        <time>2020-09-05T08:52:15.000Z</time>
      </trkpt>
      <trkpt lat="44.44212" lon="6.11114">
        <ele>1214.5</ele>
        <time>2020-09-05T08:52:16.000Z</time>
      </trkpt>
      <trkpt lat="44.44213" lon="6.11105">
        <ele>1215.8</ele>
        <time>2020-09-05T08:52:17.000Z</time>
      </trkpt>
      <trkpt lat="44.44213" lon="6.11096">
        <ele>1215.2</ele>
        <time>2020-09-05T08:52:18.896Z</time>
      </trkpt>
      <trkpt lat="44.4421" lon="6.11087">
        <ele>1210.5</ele>
        <time>2020-09-05T08:52:23.559Z</time>
      </trkpt>
      <trkpt lat="44.44208" lon="6.11073">
        <ele>1208.4</ele>
        <time>2020-09-05T08:52:25.000Z</time>
      </trkpt>
      <trkpt lat="44.44206" lon="6.11065">
        <ele>1206.5</ele>
        <time>2020-09-05T08:52:26.000Z</time>
      </trkpt>
      <trkpt lat="44.44198" lon="6.11051">
        <ele>1201.6</ele>
        <time>2020-09-05T08:52:28.000Z</time>
      </trkpt>
      <trkpt lat="44.44196" lon="6.11043">
        <ele>1198.9</ele>
        <time>2020-09-05T08:52:29.000Z</time>
      </trkpt>
      <trkpt lat="44.44193" lon="6.11035">
        <ele>1198.9</ele>
        <time>2020-09-05T08:52:30.000Z</time>
      </trkpt>
      <trkpt lat="44.44191" lon="6.11028">
        <ele>1197.9</ele>
        <time>2020-09-05T08:52:31.000Z</time>
      </trkpt>
      <trkpt lat="44.44181" lon="6.11016">
        <ele>1196.4</ele>
        <time>2020-09-05T08:52:33.000Z</time>
      </trkpt>
      <trkpt lat="44.44176" lon="6.10999">
        <ele>1192.7</ele>
        <time>2020-09-05T08:52:35.000Z</time>
      </trkpt>
      <trkpt lat="44.44171" lon="6.10981">
        <ele>1191.3</ele>
        <time>2020-09-05T08:52:37.000Z</time>
      </trkpt>
      <trkpt lat="44.44169" lon="6.1097">
        <ele>1188.5</ele>
        <time>2020-09-05T08:52:38.000Z</time>
      </trkpt>
      <trkpt lat="44.44166" lon="6.10957">
        <ele>1187.7</ele>
        <time>2020-09-05T08:52:39.000Z</time>
      </trkpt>
      <trkpt lat="44.44161" lon="6.10934">
        <ele>1184.7</ele>
        <time>2020-09-05T08:52:41.000Z</time>
      </trkpt>
      <trkpt lat="44.44158" lon="6.10919">
        <ele>1184</ele>
        <time>2020-09-05T08:52:43.000Z</time>
      </trkpt>
      <trkpt lat="44.44155" lon="6.10912">
        <ele>1183.2</ele>
        <time>2020-09-05T08:52:44.000Z</time>
      </trkpt>
      <trkpt lat="44.44151" lon="6.10906">
        <ele>1182.3</ele>
        <time>2020-09-05T08:52:45.000Z</time>
      </trkpt>
      <trkpt lat="44.44149" lon="6.109">
        <ele>1180.4</ele>
        <time>2020-09-05T08:52:46.000Z</time>
      </trkpt>
      <trkpt lat="44.44141" lon="6.10889">
        <ele>1179.4</ele>
        <time>2020-09-05T08:52:48.000Z</time>
      </trkpt>
      <trkpt lat="44.44135" lon="6.1089">
        <ele>1176.1</ele>
        <time>2020-09-05T08:52:50.000Z</time>
      </trkpt>
      <trkpt lat="44.44131" lon="6.10889">
        <ele>1174</ele>
        <time>2020-09-05T08:52:52.000Z</time>
      </trkpt>
      <trkpt lat="44.44128" lon="6.10885">
        <ele>1170.8</ele>
        <time>2020-09-05T08:52:53.000Z</time>
      </trkpt>
      <trkpt lat="44.44125" lon="6.10875">
        <ele>1168.5</ele>
        <time>2020-09-05T08:52:54.000Z</time>
      </trkpt>
      <trkpt lat="44.44121" lon="6.10855">
        <ele>1164.6</ele>
        <time>2020-09-05T08:52:56.000Z</time>
      </trkpt>
      <trkpt lat="44.44115" lon="6.10839">
        <ele>1162.4</ele>
        <time>2020-09-05T08:52:58.000Z</time>
      </trkpt>
      <trkpt lat="44.44113" lon="6.10824">
        <ele>1158.3</ele>
        <time>2020-09-05T08:53:01.000Z</time>
      </trkpt>
      <trkpt lat="44.44108" lon="6.10814">
        <ele>1154</ele>
        <time>2020-09-05T08:53:04.000Z</time>
      </trkpt>
      <trkpt lat="44.44104" lon="6.10801">
        <ele>1151.8</ele>
        <time>2020-09-05T08:53:06.000Z</time>
      </trkpt>
      <trkpt lat="44.44105" lon="6.10794">
        <ele>1150.7</ele>
        <time>2020-09-05T08:53:07.000Z</time>
      </trkpt>
      <trkpt lat="44.44105" lon="6.10786">
        <ele>1148.9</ele>
        <time>2020-09-05T08:53:08.000Z</time>
      </trkpt>
      <trkpt lat="44.44103" lon="6.10768">
        <ele>1146.5</ele>
        <time>2020-09-05T08:53:10.000Z</time>
      </trkpt>
      <trkpt lat="44.44101" lon="6.10757">
        <ele>1145.8</ele>
        <time>2020-09-05T08:53:11.000Z</time>
      </trkpt>
      <trkpt lat="44.44098" lon="6.10745">
        <ele>1145.2</ele>
        <time>2020-09-05T08:53:12.000Z</time>
      </trkpt>
      <trkpt lat="44.44091" lon="6.10725">
        <ele>1140.9</ele>
        <time>2020-09-05T08:53:14.000Z</time>
      </trkpt>
      <trkpt lat="44.44087" lon="6.1072">
        <ele>1141</ele>
        <time>2020-09-05T08:53:15.000Z</time>
      </trkpt>
      <trkpt lat="44.44089" lon="6.10736">
        <ele>1135.2</ele>
        <time>2020-09-05T08:54:14.000Z</time>
      </trkpt>
      <trkpt lat="44.4409" lon="6.10755">
        <ele>1134.3</ele>
        <time>2020-09-05T08:54:16.000Z</time>
      </trkpt>
      <trkpt lat="44.44091" lon="6.10769">
        <ele>1133.7</ele>
        <time>2020-09-05T08:54:18.000Z</time>
      </trkpt>
      <trkpt lat="44.44094" lon="6.10783">
        <ele>1133.7</ele>
        <time>2020-09-05T08:54:20.000Z</time>
      </trkpt>
      <trkpt lat="44.44097" lon="6.10794">
        <ele>1135.1</ele>
        <time>2020-09-05T08:54:22.000Z</time>
      </trkpt>
      <trkpt lat="44.44098" lon="6.10802">
        <ele>1135.1</ele>
        <time>2020-09-05T08:54:23.000Z</time>
      </trkpt>
      <trkpt lat="44.44098" lon="6.10809">
        <ele>1133.7</ele>
        <time>2020-09-05T08:54:24.000Z</time>
      </trkpt>
      <trkpt lat="44.441" lon="6.10822">
        <ele>1135.1</ele>
        <time>2020-09-05T08:54:27.000Z</time>
      </trkpt>
      <trkpt lat="44.44104" lon="6.10851">
        <ele>1138</ele>
        <time>2020-09-05T08:54:30.000Z</time>
      </trkpt>
      <trkpt lat="44.44105" lon="6.10864">
        <ele>1138</ele>
        <time>2020-09-05T08:54:31.000Z</time>
      </trkpt>
      <trkpt lat="44.44108" lon="6.10877">
        <ele>1139.8</ele>
        <time>2020-09-05T08:54:32.000Z</time>
      </trkpt>
      <trkpt lat="44.44111" lon="6.10887">
        <ele>1140.6</ele>
        <time>2020-09-05T08:54:33.000Z</time>
      </trkpt>
      <trkpt lat="44.44116" lon="6.10895">
        <ele>1143.5</ele>
        <time>2020-09-05T08:54:34.000Z</time>
      </trkpt>
      <trkpt lat="44.44128" lon="6.10899">
        <ele>1148.2</ele>
        <time>2020-09-05T08:54:36.000Z</time>
      </trkpt>
      <trkpt lat="44.44134" lon="6.10898">
        <ele>1148.7</ele>
        <time>2020-09-05T08:54:37.000Z</time>
      </trkpt>
      <trkpt lat="44.44139" lon="6.10901">
        <ele>1149.6</ele>
        <time>2020-09-05T08:54:38.000Z</time>
      </trkpt>
      <trkpt lat="44.44147" lon="6.10915">
        <ele>1149.4</ele>
        <time>2020-09-05T08:54:40.000Z</time>
      </trkpt>
      <trkpt lat="44.44151" lon="6.10924">
        <ele>1151.5</ele>
        <time>2020-09-05T08:54:41.000Z</time>
      </trkpt>
      <trkpt lat="44.44155" lon="6.10946">
        <ele>1153</ele>
        <time>2020-09-05T08:54:43.000Z</time>
      </trkpt>
      <trkpt lat="44.4416" lon="6.1097">
        <ele>1154.5</ele>
        <time>2020-09-05T08:54:45.000Z</time>
      </trkpt>
      <trkpt lat="44.44166" lon="6.10999">
        <ele>1158.1</ele>
        <time>2020-09-05T08:54:47.000Z</time>
      </trkpt>
      <trkpt lat="44.44172" lon="6.11021">
        <ele>1160.3</ele>
        <time>2020-09-05T08:54:49.000Z</time>
      </trkpt>
      <trkpt lat="44.44178" lon="6.1103">
        <ele>1159.8</ele>
        <time>2020-09-05T08:54:50.000Z</time>
      </trkpt>
      <trkpt lat="44.4419" lon="6.11044">
        <ele>1160.6</ele>
        <time>2020-09-05T08:54:52.000Z</time>
      </trkpt>
      <trkpt lat="44.44196" lon="6.11054">
        <ele>1165.2</ele>
        <time>2020-09-05T08:54:53.000Z</time>
      </trkpt>
      <trkpt lat="44.44197" lon="6.11081">
        <ele>1171.2</ele>
        <time>2020-09-05T08:54:55.000Z</time>
      </trkpt>
      <trkpt lat="44.44196" lon="6.1111">
        <ele>1173.6</ele>
        <time>2020-09-05T08:54:57.000Z</time>
      </trkpt>
      <trkpt lat="44.44194" lon="6.11145">
        <ele>1175.7</ele>
        <time>2020-09-05T08:54:59.000Z</time>
      </trkpt>
      <trkpt lat="44.44195" lon="6.11175">
        <ele>1181</ele>
        <time>2020-09-05T08:55:01.000Z</time>
      </trkpt>
      <trkpt lat="44.44198" lon="6.11187">
        <ele>1181.6</ele>
        <time>2020-09-05T08:55:02.000Z</time>
      </trkpt>
      <trkpt lat="44.442" lon="6.11196">
        <ele>1182.3</ele>
        <time>2020-09-05T08:55:03.000Z</time>
      </trkpt>
      <trkpt lat="44.44194" lon="6.112">
        <ele>1184.3</ele>
        <time>2020-09-05T08:55:06.000Z</time>
      </trkpt>
      <trkpt lat="44.44186" lon="6.112">
        <ele>1189.6</ele>
        <time>2020-09-05T08:55:09.000Z</time>
      </trkpt>
      <trkpt lat="44.44178" lon="6.11208">
        <ele>1193</ele>
        <time>2020-09-05T08:55:12.000Z</time>
      </trkpt>
      <trkpt lat="44.44171" lon="6.11208">
        <ele>1195.8</ele>
        <time>2020-09-05T08:55:13.000Z</time>
      </trkpt>
      <trkpt lat="44.44155" lon="6.11206">
        <ele>1199</ele>
        <time>2020-09-05T08:55:15.000Z</time>
      </trkpt>
      <trkpt lat="44.44141" lon="6.112">
        <ele>1200.1</ele>
        <time>2020-09-05T08:55:17.000Z</time>
      </trkpt>
      <trkpt lat="44.44135" lon="6.11198">
        <ele>1199.7</ele>
        <time>2020-09-05T08:55:18.000Z</time>
      </trkpt>
      <trkpt lat="44.44119" lon="6.11194">
        <ele>1204.3</ele>
        <time>2020-09-05T08:55:20.000Z</time>
      </trkpt>
      <trkpt lat="44.44107" lon="6.11193">
        <ele>1204.7</ele>
        <time>2020-09-05T08:55:21.000Z</time>
      </trkpt>
      <trkpt lat="44.44083" lon="6.11192">
        <ele>1207.7</ele>
        <time>2020-09-05T08:55:23.000Z</time>
      </trkpt>
      <trkpt lat="44.44071" lon="6.11189">
        <ele>1208</ele>
        <time>2020-09-05T08:55:24.000Z</time>
      </trkpt>
      <trkpt lat="44.44054" lon="6.11186">
        <ele>1207</ele>
        <time>2020-09-05T08:55:26.000Z</time>
      </trkpt>
      <trkpt lat="44.44044" lon="6.1119">
        <ele>1204.8</ele>
        <time>2020-09-05T08:55:28.000Z</time>
      </trkpt>
      <trkpt lat="44.44039" lon="6.11194">
        <ele>1205.5</ele>
        <time>2020-09-05T08:55:29.000Z</time>
      </trkpt>
      <trkpt lat="44.44029" lon="6.11203">
        <ele>1205.7</ele>
        <time>2020-09-05T08:55:31.000Z</time>
      </trkpt>
      <trkpt lat="44.44015" lon="6.11207">
        <ele>1205.8</ele>
        <time>2020-09-05T08:55:33.000Z</time>
      </trkpt>
      <trkpt lat="44.44008" lon="6.11208">
        <ele>1206.9</ele>
        <time>2020-09-05T08:55:34.000Z</time>
      </trkpt>
      <trkpt lat="44.44001" lon="6.11206">
        <ele>1205.8</ele>
        <time>2020-09-05T08:55:35.000Z</time>
      </trkpt>
      <trkpt lat="44.43994" lon="6.11202">
        <ele>1206</ele>
        <time>2020-09-05T08:55:36.000Z</time>
      </trkpt>
      <trkpt lat="44.43986" lon="6.11199">
        <ele>1208.4</ele>
        <time>2020-09-05T08:55:37.000Z</time>
      </trkpt>
      <trkpt lat="44.43972" lon="6.11201">
        <ele>1212</ele>
        <time>2020-09-05T08:55:39.000Z</time>
      </trkpt>
      <trkpt lat="44.43963" lon="6.11209">
        <ele>1214.1</ele>
        <time>2020-09-05T08:55:41.000Z</time>
      </trkpt>
      <trkpt lat="44.43961" lon="6.11217">
        <ele>1220</ele>
        <time>2020-09-05T08:55:43.000Z</time>
      </trkpt>
      <trkpt lat="44.43964" lon="6.11226">
        <ele>1222.7</ele>
        <time>2020-09-05T08:55:45.239Z</time>
      </trkpt>
      <trkpt lat="44.43968" lon="6.11236">
        <ele>1228.9</ele>
        <time>2020-09-05T08:55:47.000Z</time>
      </trkpt>
      <trkpt lat="44.43972" lon="6.11243">
        <ele>1228.7</ele>
        <time>2020-09-05T08:55:48.000Z</time>
      </trkpt>
      <trkpt lat="44.4398" lon="6.11261">
        <ele>1232.7</ele>
        <time>2020-09-05T08:55:50.000Z</time>
      </trkpt>
      <trkpt lat="44.43983" lon="6.11272">
        <ele>1235.2</ele>
        <time>2020-09-05T08:55:51.000Z</time>
      </trkpt>
      <trkpt lat="44.43985" lon="6.1128">
        <ele>1233.9</ele>
        <time>2020-09-05T08:55:52.000Z</time>
      </trkpt>
      <trkpt lat="44.43976" lon="6.11283">
        <ele>1237.8</ele>
        <time>2020-09-05T08:55:55.000Z</time>
      </trkpt>
      <trkpt lat="44.43968" lon="6.11283">
        <ele>1239.9</ele>
        <time>2020-09-05T08:55:56.000Z</time>
      </trkpt>
      <trkpt lat="44.4396" lon="6.11284">
        <ele>1242.1</ele>
        <time>2020-09-05T08:55:57.232Z</time>
      </trkpt>
      <trkpt lat="44.43953" lon="6.11285">
        <ele>1244.2</ele>
        <time>2020-09-05T08:55:59.000Z</time>
      </trkpt>
      <trkpt lat="44.43951" lon="6.11299">
        <ele>1248.2</ele>
        <time>2020-09-05T08:56:02.000Z</time>
      </trkpt>
      <trkpt lat="44.43951" lon="6.11311">
        <ele>1250.8</ele>
        <time>2020-09-05T08:56:04.000Z</time>
      </trkpt>
      <trkpt lat="44.4395" lon="6.11323">
        <ele>1257.6</ele>
        <time>2020-09-05T08:56:07.000Z</time>
      </trkpt>
      <trkpt lat="44.43946" lon="6.11328">
        <ele>1263.5</ele>
        <time>2020-09-05T08:56:09.000Z</time>
      </trkpt>
      <trkpt lat="44.43944" lon="6.11335">
        <ele>1272.2</ele>
        <time>2020-09-05T08:56:12.000Z</time>
      </trkpt>
      <trkpt lat="44.43942" lon="6.11343">
        <ele>1278.7</ele>
        <time>2020-09-05T08:56:16.000Z</time>
      </trkpt>
      <trkpt lat="44.43939" lon="6.1135">
        <ele>1280.6</ele>
        <time>2020-09-05T08:56:18.000Z</time>
      </trkpt>
      <trkpt lat="44.43938" lon="6.1136">
        <ele>1284.2</ele>
        <time>2020-09-05T08:56:21.000Z</time>
      </trkpt>
      <trkpt lat="44.43938" lon="6.11373">
        <ele>1283.8</ele>
        <time>2020-09-05T08:56:24.000Z</time>
      </trkpt>
      <trkpt lat="44.4394" lon="6.11386">
        <ele>1283</ele>
        <time>2020-09-05T08:56:26.000Z</time>
      </trkpt>
      <trkpt lat="44.43941" lon="6.11395">
        <ele>1284.4</ele>
        <time>2020-09-05T08:56:27.000Z</time>
      </trkpt>
      <trkpt lat="44.43941" lon="6.11407">
        <ele>1285.3</ele>
        <time>2020-09-05T08:56:28.000Z</time>
      </trkpt>
      <trkpt lat="44.43942" lon="6.11433">
        <ele>1284.8</ele>
        <time>2020-09-05T08:56:30.000Z</time>
      </trkpt>
      <trkpt lat="44.43942" lon="6.11448">
        <ele>1285.8</ele>
        <time>2020-09-05T08:56:31.000Z</time>
      </trkpt>
      <trkpt lat="44.43942" lon="6.11466">
        <ele>1285</ele>
        <time>2020-09-05T08:56:32.000Z</time>
      </trkpt>
      <trkpt lat="44.43941" lon="6.11499">
        <ele>1287.6</ele>
        <time>2020-09-05T08:56:34.000Z</time>
      </trkpt>
      <trkpt lat="44.4394" lon="6.11515">
        <ele>1289.8</ele>
        <time>2020-09-05T08:56:35.000Z</time>
      </trkpt>
      <trkpt lat="44.43933" lon="6.11544">
        <ele>1291.8</ele>
        <time>2020-09-05T08:56:37.000Z</time>
      </trkpt>
      <trkpt lat="44.43927" lon="6.11564">
        <ele>1292.8</ele>
        <time>2020-09-05T08:56:38.737Z</time>
      </trkpt>
      <trkpt lat="44.43922" lon="6.11583">
        <ele>1293.9</ele>
        <time>2020-09-05T08:56:40.000Z</time>
      </trkpt>
      <trkpt lat="44.43923" lon="6.11597">
        <ele>1292.9</ele>
        <time>2020-09-05T08:56:41.000Z</time>
      </trkpt>
      <trkpt lat="44.43924" lon="6.1162">
        <ele>1296</ele>
        <time>2020-09-05T08:56:43.000Z</time>
      </trkpt>
      <trkpt lat="44.43923" lon="6.11629">
        <ele>1299.1</ele>
        <time>2020-09-05T08:56:45.000Z</time>
      </trkpt>
      <trkpt lat="44.43894" lon="6.11667">
        <ele>1309.1</ele>
        <time>2020-09-05T08:56:52.000Z</time>
      </trkpt>
      <trkpt lat="44.43878" lon="6.11665">
        <ele>1311.4</ele>
        <time>2020-09-05T08:56:54.000Z</time>
      </trkpt>
      <trkpt lat="44.43869" lon="6.11661">
        <ele>1312</ele>
        <time>2020-09-05T08:56:55.000Z</time>
      </trkpt>
      <trkpt lat="44.43854" lon="6.11659">
        <ele>1312</ele>
        <time>2020-09-05T08:56:57.000Z</time>
      </trkpt>
      <trkpt lat="44.43841" lon="6.11663">
        <ele>1313.4</ele>
        <time>2020-09-05T08:56:59.000Z</time>
      </trkpt>
      <trkpt lat="44.43837" lon="6.11667">
        <ele>1313.5</ele>
        <time>2020-09-05T08:57:00.000Z</time>
      </trkpt>
      <trkpt lat="44.43834" lon="6.11674">
        <ele>1314.7</ele>
        <time>2020-09-05T08:57:02.000Z</time>
      </trkpt>
      <trkpt lat="44.43829" lon="6.11687">
        <ele>1316.2</ele>
        <time>2020-09-05T08:57:05.000Z</time>
      </trkpt>
      <trkpt lat="44.43828" lon="6.11697">
        <ele>1316.6</ele>
        <time>2020-09-05T08:57:06.000Z</time>
      </trkpt>
      <trkpt lat="44.43827" lon="6.11706">
        <ele>1318.8</ele>
        <time>2020-09-05T08:57:07.000Z</time>
      </trkpt>
      <trkpt lat="44.43825" lon="6.11717">
        <ele>1319.6</ele>
        <time>2020-09-05T08:57:08.000Z</time>
      </trkpt>
      <trkpt lat="44.43822" lon="6.11743">
        <ele>1323.4</ele>
        <time>2020-09-05T08:57:10.000Z</time>
      </trkpt>
      <trkpt lat="44.43825" lon="6.11761">
        <ele>1324.7</ele>
        <time>2020-09-05T08:57:12.000Z</time>
      </trkpt>
      <trkpt lat="44.43828" lon="6.11768">
        <ele>1324.6</ele>
        <time>2020-09-05T08:57:13.000Z</time>
      </trkpt>
      <trkpt lat="44.43834" lon="6.1178">
        <ele>1323.7</ele>
        <time>2020-09-05T08:57:15.000Z</time>
      </trkpt>
      <trkpt lat="44.43836" lon="6.1179">
        <ele>1328.9</ele>
        <time>2020-09-05T08:57:17.000Z</time>
      </trkpt>
      <trkpt lat="44.43829" lon="6.11795">
        <ele>1332.5</ele>
        <time>2020-09-05T08:57:20.000Z</time>
      </trkpt>
      <trkpt lat="44.43816" lon="6.11799">
        <ele>1335.6</ele>
        <time>2020-09-05T08:57:22.000Z</time>
      </trkpt>
      <trkpt lat="44.43803" lon="6.11803">
        <ele>1335.2</ele>
        <time>2020-09-05T08:57:24.000Z</time>
      </trkpt>
      <trkpt lat="44.43796" lon="6.11806">
        <ele>1335.7</ele>
        <time>2020-09-05T08:57:25.000Z</time>
      </trkpt>
      <trkpt lat="44.4379" lon="6.1181">
        <ele>1336.2</ele>
        <time>2020-09-05T08:57:26.000Z</time>
      </trkpt>
      <trkpt lat="44.43784" lon="6.11815">
        <ele>1337.2</ele>
        <time>2020-09-05T08:57:28.122Z</time>
      </trkpt>
      <trkpt lat="44.43787" lon="6.11824">
        <ele>1338.7</ele>
        <time>2020-09-05T08:57:29.000Z</time>
      </trkpt>
      <trkpt lat="44.43787" lon="6.11833">
        <ele>1340.9</ele>
        <time>2020-09-05T08:57:30.000Z</time>
      </trkpt>
      <trkpt lat="44.43787" lon="6.11853">
        <ele>1341</ele>
        <time>2020-09-05T08:57:32.000Z</time>
      </trkpt>
      <trkpt lat="44.43786" lon="6.1186">
        <ele>1343</ele>
        <time>2020-09-05T08:57:33.000Z</time>
      </trkpt>
      <trkpt lat="44.43788" lon="6.1188">
        <ele>1343.6</ele>
        <time>2020-09-05T08:57:35.000Z</time>
      </trkpt>
      <trkpt lat="44.4379" lon="6.11899">
        <ele>1344.4</ele>
        <time>2020-09-05T08:57:37.000Z</time>
      </trkpt>
      <trkpt lat="44.4379" lon="6.11907">
        <ele>1343.6</ele>
        <time>2020-09-05T08:57:38.000Z</time>
      </trkpt>
      <trkpt lat="44.43791" lon="6.11915">
        <ele>1344.8</ele>
        <time>2020-09-05T08:57:39.000Z</time>
      </trkpt>
      <trkpt lat="44.4379" lon="6.11906">
        <ele>1349.8</ele>
        <time>2020-09-05T08:57:42.000Z</time>
      </trkpt>
      <trkpt lat="44.43782" lon="6.11897">
        <ele>1351.7</ele>
        <time>2020-09-05T08:57:45.000Z</time>
      </trkpt>
      <trkpt lat="44.43775" lon="6.11914">
        <ele>1355</ele>
        <time>2020-09-05T08:57:54.000Z</time>
      </trkpt>
      <trkpt lat="44.43773" lon="6.11927">
        <ele>1355</ele>
        <time>2020-09-05T08:57:56.000Z</time>
      </trkpt>
      <trkpt lat="44.43776" lon="6.11918">
        <ele>1355.1</ele>
        <time>2020-09-05T08:57:58.940Z</time>
      </trkpt>
      <trkpt lat="44.43783" lon="6.11913">
        <ele>1355.1</ele>
        <time>2020-09-05T08:58:01.809Z</time>
      </trkpt>
      <trkpt lat="44.43786" lon="6.11923">
        <ele>1360.7</ele>
        <time>2020-09-05T08:58:04.079Z</time>
      </trkpt>
      <trkpt lat="44.43785" lon="6.11931">
        <ele>1361.9</ele>
        <time>2020-09-05T08:58:05.000Z</time>
      </trkpt>
      <trkpt lat="44.43783" lon="6.11941">
        <ele>1362.8</ele>
        <time>2020-09-05T08:58:06.503Z</time>
      </trkpt>
      <trkpt lat="44.43782" lon="6.11948">
        <ele>1365.5</ele>
        <time>2020-09-05T08:58:07.605Z</time>
      </trkpt>
      <trkpt lat="44.43782" lon="6.11959">
        <ele>1368</ele>
        <time>2020-09-05T08:58:09.000Z</time>
      </trkpt>
      <trkpt lat="44.43781" lon="6.11971">
        <ele>1368.6</ele>
        <time>2020-09-05T08:58:10.242Z</time>
      </trkpt>
      <trkpt lat="44.43768" lon="6.12002">
        <ele>1371.5</ele>
        <time>2020-09-05T08:58:12.000Z</time>
      </trkpt>
      <trkpt lat="44.43753" lon="6.12019">
        <ele>1374.8</ele>
        <time>2020-09-05T08:58:14.000Z</time>
      </trkpt>
      <trkpt lat="44.43746" lon="6.12023">
        <ele>1376.5</ele>
        <time>2020-09-05T08:58:15.000Z</time>
      </trkpt>
      <trkpt lat="44.43733" lon="6.1203">
        <ele>1379.8</ele>
        <time>2020-09-05T08:58:17.000Z</time>
      </trkpt>
      <trkpt lat="44.43727" lon="6.12032">
        <ele>1381</ele>
        <time>2020-09-05T08:58:18.000Z</time>
      </trkpt>
      <trkpt lat="44.43712" lon="6.12037">
        <ele>1381.9</ele>
        <time>2020-09-05T08:58:20.000Z</time>
      </trkpt>
      <trkpt lat="44.43703" lon="6.12039">
        <ele>1383.4</ele>
        <time>2020-09-05T08:58:21.000Z</time>
      </trkpt>
      <trkpt lat="44.43688" lon="6.12044">
        <ele>1385.7</ele>
        <time>2020-09-05T08:58:23.000Z</time>
      </trkpt>
      <trkpt lat="44.4368" lon="6.12047">
        <ele>1387.1</ele>
        <time>2020-09-05T08:58:24.000Z</time>
      </trkpt>
      <trkpt lat="44.43675" lon="6.12051">
        <ele>1388.4</ele>
        <time>2020-09-05T08:58:25.000Z</time>
      </trkpt>
      <trkpt lat="44.43674" lon="6.12064">
        <ele>1391.4</ele>
        <time>2020-09-05T08:58:27.000Z</time>
      </trkpt>
      <trkpt lat="44.43669" lon="6.12082">
        <ele>1395.1</ele>
        <time>2020-09-05T08:58:30.000Z</time>
      </trkpt>
      <trkpt lat="44.43665" lon="6.12077">
        <ele>1404.9</ele>
        <time>2020-09-05T08:58:47.000Z</time>
      </trkpt>
      <trkpt lat="44.4366" lon="6.12081">
        <ele>1404.3</ele>
        <time>2020-09-05T08:58:54.000Z</time>
      </trkpt>
      <trkpt lat="44.43649" lon="6.12092">
        <ele>1408.6</ele>
        <time>2020-09-05T08:58:57.000Z</time>
      </trkpt>
      <trkpt lat="44.4364" lon="6.12101">
        <ele>1409</ele>
        <time>2020-09-05T08:58:58.717Z</time>
      </trkpt>
      <trkpt lat="44.43633" lon="6.1211">
        <ele>1416.7</ele>
        <time>2020-09-05T08:59:02.000Z</time>
      </trkpt>
      <trkpt lat="44.43625" lon="6.12122">
        <ele>1417.8</ele>
        <time>2020-09-05T08:59:03.000Z</time>
      </trkpt>
      <trkpt lat="44.43615" lon="6.1214">
        <ele>1419.7</ele>
        <time>2020-09-05T08:59:05.000Z</time>
      </trkpt>
      <trkpt lat="44.43612" lon="6.12146">
        <ele>1419.7</ele>
        <time>2020-09-05T08:59:06.604Z</time>
      </trkpt>
      <trkpt lat="44.43608" lon="6.12149">
        <ele>1420</ele>
        <time>2020-09-05T08:59:07.665Z</time>
      </trkpt>
      <trkpt lat="44.43602" lon="6.1215">
        <ele>1419.2</ele>
        <time>2020-09-05T08:59:08.669Z</time>
      </trkpt>
      <trkpt lat="44.43594" lon="6.12152">
        <ele>1420.3</ele>
        <time>2020-09-05T08:59:10.066Z</time>
      </trkpt>
      <trkpt lat="44.43591" lon="6.12158">
        <ele>1421.6</ele>
        <time>2020-09-05T08:59:11.000Z</time>
      </trkpt>
      <trkpt lat="44.43588" lon="6.12168">
        <ele>1421.2</ele>
        <time>2020-09-05T08:59:13.154Z</time>
      </trkpt>
      <trkpt lat="44.43582" lon="6.12176">
        <ele>1421.7</ele>
        <time>2020-09-05T08:59:15.753Z</time>
      </trkpt>
      <trkpt lat="44.43573" lon="6.12184">
        <ele>1422.1</ele>
        <time>2020-09-05T08:59:17.000Z</time>
      </trkpt>
      <trkpt lat="44.43563" lon="6.12194">
        <ele>1422.1</ele>
        <time>2020-09-05T08:59:19.000Z</time>
      </trkpt>
      <trkpt lat="44.4356" lon="6.12199">
        <ele>1422.7</ele>
        <time>2020-09-05T08:59:20.000Z</time>
      </trkpt>
      <trkpt lat="44.4356" lon="6.12206">
        <ele>1423.9</ele>
        <time>2020-09-05T08:59:27.000Z</time>
      </trkpt>
      <trkpt lat="44.43561" lon="6.12214">
        <ele>1425.3</ele>
        <time>2020-09-05T08:59:30.000Z</time>
      </trkpt>
      <trkpt lat="44.43561" lon="6.12231">
        <ele>1427.2</ele>
        <time>2020-09-05T08:59:31.000Z</time>
      </trkpt>
      <trkpt lat="44.43563" lon="6.12251">
        <ele>1428.8</ele>
        <time>2020-09-05T08:59:32.000Z</time>
      </trkpt>
      <trkpt lat="44.43559" lon="6.12282">
        <ele>1428.4</ele>
        <time>2020-09-05T08:59:34.000Z</time>
      </trkpt>
      <trkpt lat="44.43554" lon="6.12297">
        <ele>1429.5</ele>
        <time>2020-09-05T08:59:35.347Z</time>
      </trkpt>
      <trkpt lat="44.43548" lon="6.12319">
        <ele>1431.7</ele>
        <time>2020-09-05T08:59:37.000Z</time>
      </trkpt>
      <trkpt lat="44.43539" lon="6.12342">
        <ele>1431.7</ele>
        <time>2020-09-05T08:59:39.000Z</time>
      </trkpt>
      <trkpt lat="44.43535" lon="6.12364">
        <ele>1432.8</ele>
        <time>2020-09-05T08:59:41.000Z</time>
      </trkpt>
      <trkpt lat="44.43534" lon="6.12372">
        <ele>1432.8</ele>
        <time>2020-09-05T08:59:42.000Z</time>
      </trkpt>
      <trkpt lat="44.43535" lon="6.12389">
        <ele>1434.3</ele>
        <time>2020-09-05T08:59:44.000Z</time>
      </trkpt>
      <trkpt lat="44.43535" lon="6.12398">
        <ele>1434.9</ele>
        <time>2020-09-05T08:59:45.000Z</time>
      </trkpt>
      <trkpt lat="44.43531" lon="6.12421">
        <ele>1434.6</ele>
        <time>2020-09-05T08:59:47.000Z</time>
      </trkpt>
      <trkpt lat="44.4353" lon="6.12429">
        <ele>1433.9</ele>
        <time>2020-09-05T08:59:48.000Z</time>
      </trkpt>
      <trkpt lat="44.43533" lon="6.12453">
        <ele>1433.6</ele>
        <time>2020-09-05T08:59:50.000Z</time>
      </trkpt>
      <trkpt lat="44.43538" lon="6.12468">
        <ele>1434.3</ele>
        <time>2020-09-05T08:59:51.000Z</time>
      </trkpt>
      <trkpt lat="44.43541" lon="6.12484">
        <ele>1434.2</ele>
        <time>2020-09-05T08:59:52.000Z</time>
      </trkpt>
      <trkpt lat="44.43547" lon="6.12518">
        <ele>1432.1</ele>
        <time>2020-09-05T08:59:54.000Z</time>
      </trkpt>
      <trkpt lat="44.43548" lon="6.12536">
        <ele>1432.7</ele>
        <time>2020-09-05T08:59:55.000Z</time>
      </trkpt>
      <trkpt lat="44.4355" lon="6.12576">
        <ele>1434.5</ele>
        <time>2020-09-05T08:59:57.000Z</time>
      </trkpt>
      <trkpt lat="44.43552" lon="6.12613">
        <ele>1436.3</ele>
        <time>2020-09-05T08:59:59.000Z</time>
      </trkpt>
      <trkpt lat="44.43554" lon="6.1263">
        <ele>1438.8</ele>
        <time>2020-09-05T09:00:00.000Z</time>
      </trkpt>
      <trkpt lat="44.43554" lon="6.12648">
        <ele>1440.6</ele>
        <time>2020-09-05T09:00:01.000Z</time>
      </trkpt>
      <trkpt lat="44.43553" lon="6.12665">
        <ele>1444.6</ele>
        <time>2020-09-05T09:00:02.000Z</time>
      </trkpt>
      <trkpt lat="44.43552" lon="6.12678">
        <ele>1446.3</ele>
        <time>2020-09-05T09:00:03.000Z</time>
      </trkpt>
      <trkpt lat="44.43554" lon="6.12684">
        <ele>1447.1</ele>
        <time>2020-09-05T09:00:05.000Z</time>
      </trkpt>
      <trkpt lat="44.43557" lon="6.1269">
        <ele>1456</ele>
        <time>2020-09-05T09:00:28.000Z</time>
      </trkpt>
      <trkpt lat="44.43558" lon="6.12697">
        <ele>1455.8</ele>
        <time>2020-09-05T09:12:27.000Z</time>
      </trkpt>
      <trkpt lat="44.43555" lon="6.12706">
        <ele>1455.3</ele>
        <time>2020-09-05T09:12:29.000Z</time>
      </trkpt>
      <trkpt lat="44.4355" lon="6.12709">
        <ele>1455.1</ele>
        <time>2020-09-05T09:12:31.188Z</time>
      </trkpt>
      <trkpt lat="44.43546" lon="6.12701">
        <ele>1456.2</ele>
        <time>2020-09-05T09:12:33.000Z</time>
      </trkpt>
      <trkpt lat="44.43535" lon="6.12681">
        <ele>1455.9</ele>
        <time>2020-09-05T09:12:35.000Z</time>
      </trkpt>
      <trkpt lat="44.43519" lon="6.12644">
        <ele>1454.6</ele>
        <time>2020-09-05T09:12:37.000Z</time>
      </trkpt>
      <trkpt lat="44.43511" lon="6.12626">
        <ele>1455</ele>
        <time>2020-09-05T09:12:38.000Z</time>
      </trkpt>
      <trkpt lat="44.43502" lon="6.12608">
        <ele>1454.2</ele>
        <time>2020-09-05T09:12:39.000Z</time>
      </trkpt>
      <trkpt lat="44.43489" lon="6.12577">
        <ele>1456.4</ele>
        <time>2020-09-05T09:12:41.000Z</time>
      </trkpt>
      <trkpt lat="44.4348" lon="6.12549">
        <ele>1457.6</ele>
        <time>2020-09-05T09:12:43.000Z</time>
      </trkpt>
      <trkpt lat="44.43476" lon="6.12534">
        <ele>1455.6</ele>
        <time>2020-09-05T09:12:44.205Z</time>
      </trkpt>
      <trkpt lat="44.4347" lon="6.125">
        <ele>1455.1</ele>
        <time>2020-09-05T09:12:46.000Z</time>
      </trkpt>
      <trkpt lat="44.43467" lon="6.12482">
        <ele>1455.4</ele>
        <time>2020-09-05T09:12:47.000Z</time>
      </trkpt>
      <trkpt lat="44.43464" lon="6.12465">
        <ele>1453.4</ele>
        <time>2020-09-05T09:12:48.000Z</time>
      </trkpt>
      <trkpt lat="44.43451" lon="6.12437">
        <ele>1454</ele>
        <time>2020-09-05T09:12:50.000Z</time>
      </trkpt>
      <trkpt lat="44.43443" lon="6.12425">
        <ele>1453.5</ele>
        <time>2020-09-05T09:12:51.000Z</time>
      </trkpt>
      <trkpt lat="44.43426" lon="6.12406">
        <ele>1453.2</ele>
        <time>2020-09-05T09:12:53.000Z</time>
      </trkpt>
      <trkpt lat="44.43407" lon="6.12395">
        <ele>1453.2</ele>
        <time>2020-09-05T09:12:55.000Z</time>
      </trkpt>
      <trkpt lat="44.43398" lon="6.1239">
        <ele>1452.6</ele>
        <time>2020-09-05T09:12:56.000Z</time>
      </trkpt>
      <trkpt lat="44.43389" lon="6.12388">
        <ele>1453.5</ele>
        <time>2020-09-05T09:12:57.000Z</time>
      </trkpt>
      <trkpt lat="44.4337" lon="6.12383">
        <ele>1454.5</ele>
        <time>2020-09-05T09:12:59.000Z</time>
      </trkpt>
      <trkpt lat="44.43354" lon="6.12376">
        <ele>1453.1</ele>
        <time>2020-09-05T09:13:01.000Z</time>
      </trkpt>
      <trkpt lat="44.43347" lon="6.12375">
        <ele>1452.8</ele>
        <time>2020-09-05T09:13:02.000Z</time>
      </trkpt>
      <trkpt lat="44.43335" lon="6.12378">
        <ele>1454</ele>
        <time>2020-09-05T09:13:04.000Z</time>
      </trkpt>
      <trkpt lat="44.43324" lon="6.12394">
        <ele>1456.4</ele>
        <time>2020-09-05T09:13:06.000Z</time>
      </trkpt>
      <trkpt lat="44.43305" lon="6.12403">
        <ele>1459.1</ele>
        <time>2020-09-05T09:13:08.000Z</time>
      </trkpt>
      <trkpt lat="44.43299" lon="6.12407">
        <ele>1458.9</ele>
        <time>2020-09-05T09:13:09.000Z</time>
      </trkpt>
      <trkpt lat="44.43291" lon="6.12414">
        <ele>1457.6</ele>
        <time>2020-09-05T09:13:11.000Z</time>
      </trkpt>
      <trkpt lat="44.43291" lon="6.12403">
        <ele>1459.7</ele>
        <time>2020-09-05T09:13:14.000Z</time>
      </trkpt>
      <trkpt lat="44.43297" lon="6.1239">
        <ele>1459.2</ele>
        <time>2020-09-05T09:13:17.000Z</time>
      </trkpt>
      <trkpt lat="44.43302" lon="6.12387">
        <ele>1458.8</ele>
        <time>2020-09-05T09:13:18.000Z</time>
      </trkpt>
      <trkpt lat="44.43314" lon="6.12394">
        <ele>1462.3</ele>
        <time>2020-09-05T09:13:20.000Z</time>
      </trkpt>
      <trkpt lat="44.43325" lon="6.12394">
        <ele>1463.3</ele>
        <time>2020-09-05T09:13:22.000Z</time>
      </trkpt>
      <trkpt lat="44.4333" lon="6.12388">
        <ele>1460.3</ele>
        <time>2020-09-05T09:13:23.000Z</time>
      </trkpt>
      <trkpt lat="44.43334" lon="6.1238">
        <ele>1462.6</ele>
        <time>2020-09-05T09:13:24.000Z</time>
      </trkpt>
      <trkpt lat="44.43337" lon="6.12359">
        <ele>1462.4</ele>
        <time>2020-09-05T09:13:26.000Z</time>
      </trkpt>
      <trkpt lat="44.43338" lon="6.12347">
        <ele>1462.3</ele>
        <time>2020-09-05T09:13:27.000Z</time>
      </trkpt>
      <trkpt lat="44.43341" lon="6.12338">
        <ele>1461.4</ele>
        <time>2020-09-05T09:13:28.000Z</time>
      </trkpt>
      <trkpt lat="44.43358" lon="6.1233">
        <ele>1464</ele>
        <time>2020-09-05T09:13:30.000Z</time>
      </trkpt>
      <trkpt lat="44.43367" lon="6.1233">
        <ele>1467.2</ele>
        <time>2020-09-05T09:13:31.000Z</time>
      </trkpt>
      <trkpt lat="44.43375" lon="6.12336">
        <ele>1470.2</ele>
        <time>2020-09-05T09:13:32.259Z</time>
      </trkpt>
      <trkpt lat="44.43386" lon="6.12346">
        <ele>1471.1</ele>
        <time>2020-09-05T09:13:34.000Z</time>
      </trkpt>
      <trkpt lat="44.43398" lon="6.12347">
        <ele>1470.8</ele>
        <time>2020-09-05T09:13:36.000Z</time>
      </trkpt>
      <trkpt lat="44.43414" lon="6.12327">
        <ele>1473</ele>
        <time>2020-09-05T09:13:38.000Z</time>
      </trkpt>
      <trkpt lat="44.43434" lon="6.12315">
        <ele>1473.3</ele>
        <time>2020-09-05T09:13:40.000Z</time>
      </trkpt>
      <trkpt lat="44.4345" lon="6.1232">
        <ele>1475.8</ele>
        <time>2020-09-05T09:13:42.000Z</time>
      </trkpt>
      <trkpt lat="44.43456" lon="6.12318">
        <ele>1477.9</ele>
        <time>2020-09-05T09:13:44.000Z</time>
      </trkpt>
      <trkpt lat="44.43448" lon="6.12307">
        <ele>1480</ele>
        <time>2020-09-05T09:13:47.000Z</time>
      </trkpt>
      <trkpt lat="44.43426" lon="6.123">
        <ele>1481.9</ele>
        <time>2020-09-05T09:13:49.000Z</time>
      </trkpt>
      <trkpt lat="44.43404" lon="6.12292">
        <ele>1482</ele>
        <time>2020-09-05T09:13:51.000Z</time>
      </trkpt>
      <trkpt lat="44.43372" lon="6.12282">
        <ele>1485.2</ele>
        <time>2020-09-05T09:13:53.000Z</time>
      </trkpt>
      <trkpt lat="44.43357" lon="6.12272">
        <ele>1487</ele>
        <time>2020-09-05T09:13:55.000Z</time>
      </trkpt>
      <trkpt lat="44.43342" lon="6.12256">
        <ele>1488.8</ele>
        <time>2020-09-05T09:13:57.000Z</time>
      </trkpt>
      <trkpt lat="44.43327" lon="6.12241">
        <ele>1489.8</ele>
        <time>2020-09-05T09:13:59.000Z</time>
      </trkpt>
      <trkpt lat="44.43316" lon="6.12235">
        <ele>1489.4</ele>
        <time>2020-09-05T09:14:01.000Z</time>
      </trkpt>
      <trkpt lat="44.43308" lon="6.12233">
        <ele>1490.6</ele>
        <time>2020-09-05T09:14:03.000Z</time>
      </trkpt>
      <trkpt lat="44.43297" lon="6.12241">
        <ele>1492.9</ele>
        <time>2020-09-05T09:14:05.000Z</time>
      </trkpt>
      <trkpt lat="44.43288" lon="6.12246">
        <ele>1492.9</ele>
        <time>2020-09-05T09:14:06.000Z</time>
      </trkpt>
      <trkpt lat="44.43265" lon="6.12248">
        <ele>1495.7</ele>
        <time>2020-09-05T09:14:08.000Z</time>
      </trkpt>
      <trkpt lat="44.43247" lon="6.12243">
        <ele>1497.2</ele>
        <time>2020-09-05T09:14:10.000Z</time>
      </trkpt>
      <trkpt lat="44.43231" lon="6.12244">
        <ele>1498.5</ele>
        <time>2020-09-05T09:14:12.000Z</time>
      </trkpt>
      <trkpt lat="44.4322" lon="6.12255">
        <ele>1499.6</ele>
        <time>2020-09-05T09:14:14.000Z</time>
      </trkpt>
      <trkpt lat="44.43207" lon="6.12271">
        <ele>1495.2</ele>
        <time>2020-09-05T09:14:16.000Z</time>
      </trkpt>
      <trkpt lat="44.432" lon="6.12281">
        <ele>1494.6</ele>
        <time>2020-09-05T09:14:17.000Z</time>
      </trkpt>
      <trkpt lat="44.43184" lon="6.12304">
        <ele>1495.7</ele>
        <time>2020-09-05T09:14:19.000Z</time>
      </trkpt>
      <trkpt lat="44.43166" lon="6.12329">
        <ele>1499.5</ele>
        <time>2020-09-05T09:14:21.000Z</time>
      </trkpt>
      <trkpt lat="44.43157" lon="6.12339">
        <ele>1501.8</ele>
        <time>2020-09-05T09:14:22.000Z</time>
      </trkpt>
      <trkpt lat="44.43142" lon="6.12356">
        <ele>1504.3</ele>
        <time>2020-09-05T09:14:24.000Z</time>
      </trkpt>
      <trkpt lat="44.43136" lon="6.12358">
        <ele>1505.6</ele>
        <time>2020-09-05T09:14:25.000Z</time>
      </trkpt>
      <trkpt lat="44.43131" lon="6.12356">
        <ele>1505.4</ele>
        <time>2020-09-05T09:14:26.000Z</time>
      </trkpt>
      <trkpt lat="44.43128" lon="6.12339">
        <ele>1504.8</ele>
        <time>2020-09-05T09:14:28.000Z</time>
      </trkpt>
      <trkpt lat="44.43151" lon="6.12297">
        <ele>1506</ele>
        <time>2020-09-05T09:14:30.000Z</time>
      </trkpt>
      <trkpt lat="44.43165" lon="6.12277">
        <ele>1507.3</ele>
        <time>2020-09-05T09:14:31.000Z</time>
      </trkpt>
      <trkpt lat="44.43176" lon="6.12261">
        <ele>1508.1</ele>
        <time>2020-09-05T09:14:32.000Z</time>
      </trkpt>
      <trkpt lat="44.43193" lon="6.12232">
        <ele>1513.2</ele>
        <time>2020-09-05T09:14:34.000Z</time>
      </trkpt>
      <trkpt lat="44.43199" lon="6.1221">
        <ele>1517.8</ele>
        <time>2020-09-05T09:14:36.000Z</time>
      </trkpt>
      <trkpt lat="44.43202" lon="6.12202">
        <ele>1519.7</ele>
        <time>2020-09-05T09:14:37.000Z</time>
      </trkpt>
      <trkpt lat="44.43208" lon="6.12196">
        <ele>1521.8</ele>
        <time>2020-09-05T09:14:38.000Z</time>
      </trkpt>
      <trkpt lat="44.43221" lon="6.12192">
        <ele>1523.9</ele>
        <time>2020-09-05T09:14:40.000Z</time>
      </trkpt>
      <trkpt lat="44.43233" lon="6.12186">
        <ele>1527.4</ele>
        <time>2020-09-05T09:14:41.000Z</time>
      </trkpt>
      <trkpt lat="44.43251" lon="6.12176">
        <ele>1529.4</ele>
        <time>2020-09-05T09:14:42.000Z</time>
      </trkpt>
      <trkpt lat="44.43263" lon="6.12167">
        <ele>1529.1</ele>
        <time>2020-09-05T09:14:43.000Z</time>
      </trkpt>
      <trkpt lat="44.43279" lon="6.12156">
        <ele>1530.9</ele>
        <time>2020-09-05T09:14:44.000Z</time>
      </trkpt>
      <trkpt lat="44.43307" lon="6.12138">
        <ele>1534.9</ele>
        <time>2020-09-05T09:14:46.000Z</time>
      </trkpt>
      <trkpt lat="44.43317" lon="6.12131">
        <ele>1536.4</ele>
        <time>2020-09-05T09:14:47.000Z</time>
      </trkpt>
      <trkpt lat="44.43331" lon="6.12111">
        <ele>1537.9</ele>
        <time>2020-09-05T09:14:49.000Z</time>
      </trkpt>
      <trkpt lat="44.43344" lon="6.12097">
        <ele>1541.5</ele>
        <time>2020-09-05T09:14:51.000Z</time>
      </trkpt>
      <trkpt lat="44.43349" lon="6.12096">
        <ele>1541.4</ele>
        <time>2020-09-05T09:14:52.000Z</time>
      </trkpt>
      <trkpt lat="44.43366" lon="6.12104">
        <ele>1542.6</ele>
        <time>2020-09-05T09:14:54.000Z</time>
      </trkpt>
      <trkpt lat="44.43375" lon="6.12109">
        <ele>1542.3</ele>
        <time>2020-09-05T09:14:55.000Z</time>
      </trkpt>
      <trkpt lat="44.43383" lon="6.12117">
        <ele>1542.4</ele>
        <time>2020-09-05T09:14:56.000Z</time>
      </trkpt>
      <trkpt lat="44.4339" lon="6.12123">
        <ele>1544.7</ele>
        <time>2020-09-05T09:14:57.000Z</time>
      </trkpt>
      <trkpt lat="44.43394" lon="6.12125">
        <ele>1546.5</ele>
        <time>2020-09-05T09:14:58.000Z</time>
      </trkpt>
      <trkpt lat="44.43399" lon="6.12114">
        <ele>1549.9</ele>
        <time>2020-09-05T09:15:00.000Z</time>
      </trkpt>
      <trkpt lat="44.43392" lon="6.12105">
        <ele>1551.4</ele>
        <time>2020-09-05T09:15:02.000Z</time>
      </trkpt>
      <trkpt lat="44.43375" lon="6.12089">
        <ele>1552.1</ele>
        <time>2020-09-05T09:15:04.000Z</time>
      </trkpt>
      <trkpt lat="44.43354" lon="6.1207">
        <ele>1554.5</ele>
        <time>2020-09-05T09:15:06.000Z</time>
      </trkpt>
      <trkpt lat="44.43333" lon="6.12056">
        <ele>1554.6</ele>
        <time>2020-09-05T09:15:08.000Z</time>
      </trkpt>
      <trkpt lat="44.43324" lon="6.12053">
        <ele>1554.8</ele>
        <time>2020-09-05T09:15:09.000Z</time>
      </trkpt>
      <trkpt lat="44.43318" lon="6.12052">
        <ele>1554.2</ele>
        <time>2020-09-05T09:15:10.000Z</time>
      </trkpt>
      <trkpt lat="44.43308" lon="6.12061">
        <ele>1553.9</ele>
        <time>2020-09-05T09:15:12.000Z</time>
      </trkpt>
      <trkpt lat="44.433" lon="6.12068">
        <ele>1553.3</ele>
        <time>2020-09-05T09:15:13.000Z</time>
      </trkpt>
      <trkpt lat="44.43276" lon="6.1208">
        <ele>1553.8</ele>
        <time>2020-09-05T09:15:15.000Z</time>
      </trkpt>
      <trkpt lat="44.43262" lon="6.12087">
        <ele>1556.7</ele>
        <time>2020-09-05T09:15:16.000Z</time>
      </trkpt>
      <trkpt lat="44.4323" lon="6.12102">
        <ele>1557.1</ele>
        <time>2020-09-05T09:15:18.000Z</time>
      </trkpt>
      <trkpt lat="44.43213" lon="6.1211">
        <ele>1558.4</ele>
        <time>2020-09-05T09:15:19.000Z</time>
      </trkpt>
      <trkpt lat="44.43186" lon="6.12127">
        <ele>1559.9</ele>
        <time>2020-09-05T09:15:21.000Z</time>
      </trkpt>
      <trkpt lat="44.43175" lon="6.12134">
        <ele>1559.7</ele>
        <time>2020-09-05T09:15:22.000Z</time>
      </trkpt>
      <trkpt lat="44.43158" lon="6.12153">
        <ele>1560.2</ele>
        <time>2020-09-05T09:15:24.000Z</time>
      </trkpt>
      <trkpt lat="44.43149" lon="6.12172">
        <ele>1561.6</ele>
        <time>2020-09-05T09:15:25.687Z</time>
      </trkpt>
      <trkpt lat="44.4314" lon="6.12195">
        <ele>1564.8</ele>
        <time>2020-09-05T09:15:27.000Z</time>
      </trkpt>
      <trkpt lat="44.43127" lon="6.12229">
        <ele>1569.6</ele>
        <time>2020-09-05T09:15:29.000Z</time>
      </trkpt>
      <trkpt lat="44.43111" lon="6.12258">
        <ele>1571.5</ele>
        <time>2020-09-05T09:15:31.000Z</time>
      </trkpt>
      <trkpt lat="44.43104" lon="6.1227">
        <ele>1571.9</ele>
        <time>2020-09-05T09:15:32.000Z</time>
      </trkpt>
      <trkpt lat="44.43094" lon="6.12284">
        <ele>1574.6</ele>
        <time>2020-09-05T09:15:34.000Z</time>
      </trkpt>
      <trkpt lat="44.43094" lon="6.12268">
        <ele>1580.1</ele>
        <time>2020-09-05T09:15:39.000Z</time>
      </trkpt>
      <trkpt lat="44.431" lon="6.12258">
        <ele>1581.2</ele>
        <time>2020-09-05T09:15:40.000Z</time>
      </trkpt>
      <trkpt lat="44.43107" lon="6.12244">
        <ele>1582.2</ele>
        <time>2020-09-05T09:15:41.000Z</time>
      </trkpt>
      <trkpt lat="44.43113" lon="6.12229">
        <ele>1582.2</ele>
        <time>2020-09-05T09:15:42.000Z</time>
      </trkpt>
      <trkpt lat="44.4312" lon="6.12209">
        <ele>1582.7</ele>
        <time>2020-09-05T09:15:43.336Z</time>
      </trkpt>
      <trkpt lat="44.4313" lon="6.12179">
        <ele>1582.8</ele>
        <time>2020-09-05T09:15:45.000Z</time>
      </trkpt>
      <trkpt lat="44.43135" lon="6.12162">
        <ele>1582.6</ele>
        <time>2020-09-05T09:15:46.000Z</time>
      </trkpt>
      <trkpt lat="44.43141" lon="6.12146">
        <ele>1583.1</ele>
        <time>2020-09-05T09:15:47.000Z</time>
      </trkpt>
      <trkpt lat="44.43151" lon="6.12122">
        <ele>1584.2</ele>
        <time>2020-09-05T09:15:49.000Z</time>
      </trkpt>
      <trkpt lat="44.43156" lon="6.12113">
        <ele>1585.4</ele>
        <time>2020-09-05T09:15:50.000Z</time>
      </trkpt>
      <trkpt lat="44.4316" lon="6.12106">
        <ele>1584.1</ele>
        <time>2020-09-05T09:15:51.000Z</time>
      </trkpt>
      <trkpt lat="44.43162" lon="6.121">
        <ele>1585.3</ele>
        <time>2020-09-05T09:15:52.000Z</time>
      </trkpt>
      <trkpt lat="44.43166" lon="6.12093">
        <ele>1593.2</ele>
        <time>2020-09-05T09:15:56.000Z</time>
      </trkpt>
      <trkpt lat="44.43167" lon="6.12086">
        <ele>1601.1</ele>
        <time>2020-09-05T09:16:05.000Z</time>
      </trkpt>
      <trkpt lat="44.43174" lon="6.12073">
        <ele>1603.9</ele>
        <time>2020-09-05T09:16:07.000Z</time>
      </trkpt>
      <trkpt lat="44.43191" lon="6.12056">
        <ele>1603.4</ele>
        <time>2020-09-05T09:16:09.000Z</time>
      </trkpt>
      <trkpt lat="44.43214" lon="6.12039">
        <ele>1604.6</ele>
        <time>2020-09-05T09:16:11.000Z</time>
      </trkpt>
      <trkpt lat="44.43229" lon="6.1203">
        <ele>1606.2</ele>
        <time>2020-09-05T09:16:12.000Z</time>
      </trkpt>
      <trkpt lat="44.4325" lon="6.12013">
        <ele>1608.5</ele>
        <time>2020-09-05T09:16:14.000Z</time>
      </trkpt>
      <trkpt lat="44.43259" lon="6.12004">
        <ele>1609.4</ele>
        <time>2020-09-05T09:16:15.000Z</time>
      </trkpt>
      <trkpt lat="44.43264" lon="6.11997">
        <ele>1608.6</ele>
        <time>2020-09-05T09:16:16.000Z</time>
      </trkpt>
      <trkpt lat="44.43265" lon="6.11991">
        <ele>1607.6</ele>
        <time>2020-09-05T09:16:17.000Z</time>
      </trkpt>
      <trkpt lat="44.43267" lon="6.11972">
        <ele>1608.1</ele>
        <time>2020-09-05T09:16:19.000Z</time>
      </trkpt>
      <trkpt lat="44.43261" lon="6.11956">
        <ele>1610.1</ele>
        <time>2020-09-05T09:16:20.000Z</time>
      </trkpt>
      <trkpt lat="44.4325" lon="6.11927">
        <ele>1610.9</ele>
        <time>2020-09-05T09:16:22.000Z</time>
      </trkpt>
      <trkpt lat="44.43236" lon="6.11913">
        <ele>1610.7</ele>
        <time>2020-09-05T09:16:24.000Z</time>
      </trkpt>
      <trkpt lat="44.4323" lon="6.11911">
        <ele>1612.1</ele>
        <time>2020-09-05T09:16:25.000Z</time>
      </trkpt>
      <trkpt lat="44.43225" lon="6.11909">
        <ele>1614.8</ele>
        <time>2020-09-05T09:16:27.000Z</time>
      </trkpt>
      <trkpt lat="44.4322" lon="6.11915">
        <ele>1619.4</ele>
        <time>2020-09-05T09:16:35.000Z</time>
      </trkpt>
      <trkpt lat="44.43228" lon="6.11915">
        <ele>1625.7</ele>
        <time>2020-09-05T09:16:50.000Z</time>
      </trkpt>
      <trkpt lat="44.43235" lon="6.11917">
        <ele>1623.2</ele>
        <time>2020-09-05T09:16:53.000Z</time>
      </trkpt>
      <trkpt lat="44.43241" lon="6.11918">
        <ele>1622.4</ele>
        <time>2020-09-05T09:16:56.241Z</time>
      </trkpt>
      <trkpt lat="44.43245" lon="6.11912">
        <ele>1620.2</ele>
        <time>2020-09-05T09:16:59.000Z</time>
      </trkpt>
      <trkpt lat="44.43249" lon="6.11903">
        <ele>1619.5</ele>
        <time>2020-09-05T09:17:01.000Z</time>
      </trkpt>
      <trkpt lat="44.43252" lon="6.11898">
        <ele>1619.4</ele>
        <time>2020-09-05T09:17:02.274Z</time>
      </trkpt>
      <trkpt lat="44.43257" lon="6.11888">
        <ele>1618.6</ele>
        <time>2020-09-05T09:17:04.000Z</time>
      </trkpt>
      <trkpt lat="44.43259" lon="6.11882">
        <ele>1619</ele>
        <time>2020-09-05T09:17:05.000Z</time>
      </trkpt>
      <trkpt lat="44.43265" lon="6.11866">
        <ele>1618.2</ele>
        <time>2020-09-05T09:17:07.000Z</time>
      </trkpt>
      <trkpt lat="44.4327" lon="6.1186">
        <ele>1618.2</ele>
        <time>2020-09-05T09:17:08.000Z</time>
      </trkpt>
      <trkpt lat="44.43276" lon="6.11855">
        <ele>1617</ele>
        <time>2020-09-05T09:17:09.000Z</time>
      </trkpt>
      <trkpt lat="44.43285" lon="6.11844">
        <ele>1619.3</ele>
        <time>2020-09-05T09:17:11.000Z</time>
      </trkpt>
      <trkpt lat="44.43284" lon="6.11831">
        <ele>1617.5</ele>
        <time>2020-09-05T09:17:13.000Z</time>
      </trkpt>
      <trkpt lat="44.43278" lon="6.11818">
        <ele>1618.6</ele>
        <time>2020-09-05T09:17:15.000Z</time>
      </trkpt>
      <trkpt lat="44.43272" lon="6.11808">
        <ele>1617.4</ele>
        <time>2020-09-05T09:17:18.000Z</time>
      </trkpt>
      <trkpt lat="44.43267" lon="6.11801">
        <ele>1617.4</ele>
        <time>2020-09-05T09:17:20.000Z</time>
      </trkpt>
      <trkpt lat="44.43262" lon="6.11794">
        <ele>1617.8</ele>
        <time>2020-09-05T09:17:22.000Z</time>
      </trkpt>
      <trkpt lat="44.43253" lon="6.11783">
        <ele>1618.3</ele>
        <time>2020-09-05T09:17:25.000Z</time>
      </trkpt>
      <trkpt lat="44.43249" lon="6.11778">
        <ele>1618.1</ele>
        <time>2020-09-05T09:17:26.000Z</time>
      </trkpt>
      <trkpt lat="44.43248" lon="6.11762">
        <ele>1614.3</ele>
        <time>2020-09-05T09:17:29.000Z</time>
      </trkpt>
      <trkpt lat="44.43247" lon="6.11753">
        <ele>1615.1</ele>
        <time>2020-09-05T09:17:31.000Z</time>
      </trkpt>
      <trkpt lat="44.43244" lon="6.11748">
        <ele>1613.1</ele>
        <time>2020-09-05T09:17:33.000Z</time>
      </trkpt>
      <trkpt lat="44.43242" lon="6.11741">
        <ele>1608.2</ele>
        <time>2020-09-05T09:17:36.000Z</time>
      </trkpt>
      <trkpt lat="44.43237" lon="6.11734">
        <ele>1603.2</ele>
        <time>2020-09-05T09:17:40.000Z</time>
      </trkpt>
      <trkpt lat="44.43234" lon="6.11729">
        <ele>1603.1</ele>
        <time>2020-09-05T09:18:08.000Z</time>
      </trkpt>
      <trkpt lat="44.4323" lon="6.11724">
        <ele>1603.1</ele>
        <time>2020-09-05T09:18:18.943Z</time>
      </trkpt>
      <trkpt lat="44.43225" lon="6.11721">
        <ele>1603.1</ele>
        <time>2020-09-05T09:18:24.240Z</time>
      </trkpt>
      <trkpt lat="44.43221" lon="6.11714">
        <ele>1595.6</ele>
        <time>2020-09-05T09:18:28.000Z</time>
      </trkpt>
      <trkpt lat="44.43218" lon="6.11705">
        <ele>1594.2</ele>
        <time>2020-09-05T09:18:31.267Z</time>
      </trkpt>
      <trkpt lat="44.43219" lon="6.11698">
        <ele>1594.2</ele>
        <time>2020-09-05T09:18:34.482Z</time>
      </trkpt>
      <trkpt lat="44.4322" lon="6.11689">
        <ele>1583.3</ele>
        <time>2020-09-05T09:18:37.928Z</time>
      </trkpt>
      <trkpt lat="44.43223" lon="6.11679">
        <ele>1580</ele>
        <time>2020-09-05T09:18:40.000Z</time>
      </trkpt>
      <trkpt lat="44.43224" lon="6.11671">
        <ele>1580.4</ele>
        <time>2020-09-05T09:18:41.890Z</time>
      </trkpt>
      <trkpt lat="44.43226" lon="6.11663">
        <ele>1579.5</ele>
        <time>2020-09-05T09:18:43.000Z</time>
      </trkpt>
      <trkpt lat="44.43228" lon="6.11654">
        <ele>1580.1</ele>
        <time>2020-09-05T09:18:45.328Z</time>
      </trkpt>
      <trkpt lat="44.43228" lon="6.11646">
        <ele>1578</ele>
        <time>2020-09-05T09:18:46.610Z</time>
      </trkpt>
      <trkpt lat="44.43227" lon="6.11631">
        <ele>1575.5</ele>
        <time>2020-09-05T09:18:48.000Z</time>
      </trkpt>
      <trkpt lat="44.43224" lon="6.11607">
        <ele>1575.3</ele>
        <time>2020-09-05T09:18:49.000Z</time>
      </trkpt>
      <trkpt lat="44.43221" lon="6.11579">
        <ele>1571.6</ele>
        <time>2020-09-05T09:18:51.000Z</time>
      </trkpt>
      <trkpt lat="44.43216" lon="6.11543">
        <ele>1570.8</ele>
        <time>2020-09-05T09:18:53.000Z</time>
      </trkpt>
      <trkpt lat="44.43211" lon="6.11525">
        <ele>1567.7</ele>
        <time>2020-09-05T09:18:55.000Z</time>
      </trkpt>
      <trkpt lat="44.4321" lon="6.11518">
        <ele>1564.4</ele>
        <time>2020-09-05T09:18:56.000Z</time>
      </trkpt>
      <trkpt lat="44.43208" lon="6.11502">
        <ele>1559.8</ele>
        <time>2020-09-05T09:18:58.000Z</time>
      </trkpt>
      <trkpt lat="44.43207" lon="6.11493">
        <ele>1558.2</ele>
        <time>2020-09-05T09:18:59.000Z</time>
      </trkpt>
      <trkpt lat="44.43206" lon="6.11484">
        <ele>1556.9</ele>
        <time>2020-09-05T09:19:00.000Z</time>
      </trkpt>
      <trkpt lat="44.43205" lon="6.11469">
        <ele>1557.2</ele>
        <time>2020-09-05T09:19:02.000Z</time>
      </trkpt>
      <trkpt lat="44.43203" lon="6.11458">
        <ele>1555</ele>
        <time>2020-09-05T09:19:04.635Z</time>
      </trkpt>
      <trkpt lat="44.43203" lon="6.11447">
        <ele>1552.6</ele>
        <time>2020-09-05T09:19:07.000Z</time>
      </trkpt>
      <trkpt lat="44.432" lon="6.11441">
        <ele>1547</ele>
        <time>2020-09-05T09:19:09.935Z</time>
      </trkpt>
      <trkpt lat="44.43195" lon="6.11439">
        <ele>1546.5</ele>
        <time>2020-09-05T09:19:12.000Z</time>
      </trkpt>
      <trkpt lat="44.4319" lon="6.1143">
        <ele>1545.4</ele>
        <time>2020-09-05T09:19:14.000Z</time>
      </trkpt>
      <trkpt lat="44.43188" lon="6.11423">
        <ele>1545.6</ele>
        <time>2020-09-05T09:19:15.000Z</time>
      </trkpt>
      <trkpt lat="44.43184" lon="6.11404">
        <ele>1543.8</ele>
        <time>2020-09-05T09:19:17.000Z</time>
      </trkpt>
      <trkpt lat="44.43183" lon="6.11393">
        <ele>1543.9</ele>
        <time>2020-09-05T09:19:18.000Z</time>
      </trkpt>
      <trkpt lat="44.43182" lon="6.11383">
        <ele>1543.3</ele>
        <time>2020-09-05T09:19:19.000Z</time>
      </trkpt>
      <trkpt lat="44.4318" lon="6.11374">
        <ele>1542.8</ele>
        <time>2020-09-05T09:19:20.970Z</time>
      </trkpt>
      <trkpt lat="44.43175" lon="6.11368">
        <ele>1541.3</ele>
        <time>2020-09-05T09:19:23.000Z</time>
      </trkpt>
      <trkpt lat="44.43172" lon="6.11363">
        <ele>1540.5</ele>
        <time>2020-09-05T09:19:24.000Z</time>
      </trkpt>
      <trkpt lat="44.43169" lon="6.11357">
        <ele>1540.6</ele>
        <time>2020-09-05T09:19:25.288Z</time>
      </trkpt>
      <trkpt lat="44.43165" lon="6.11348">
        <ele>1540</ele>
        <time>2020-09-05T09:19:27.747Z</time>
      </trkpt>
      <trkpt lat="44.43164" lon="6.11341">
        <ele>1539.3</ele>
        <time>2020-09-05T09:19:29.000Z</time>
      </trkpt>
      <trkpt lat="44.43159" lon="6.11328">
        <ele>1533.6</ele>
        <time>2020-09-05T09:19:31.000Z</time>
      </trkpt>
      <trkpt lat="44.43157" lon="6.11316">
        <ele>1532.7</ele>
        <time>2020-09-05T09:19:34.174Z</time>
      </trkpt>
      <trkpt lat="44.43153" lon="6.11308">
        <ele>1531.3</ele>
        <time>2020-09-05T09:19:35.000Z</time>
      </trkpt>
      <trkpt lat="44.43148" lon="6.11301">
        <ele>1530</ele>
        <time>2020-09-05T09:19:37.000Z</time>
      </trkpt>
      <trkpt lat="44.43144" lon="6.11294">
        <ele>1530</ele>
        <time>2020-09-05T09:19:38.000Z</time>
      </trkpt>
      <trkpt lat="44.43141" lon="6.11289">
        <ele>1526.2</ele>
        <time>2020-09-05T09:19:39.000Z</time>
      </trkpt>
      <trkpt lat="44.43136" lon="6.11283">
        <ele>1525.8</ele>
        <time>2020-09-05T09:19:41.848Z</time>
      </trkpt>
      <trkpt lat="44.43132" lon="6.11279">
        <ele>1524.1</ele>
        <time>2020-09-05T09:19:43.000Z</time>
      </trkpt>
      <trkpt lat="44.43127" lon="6.1127">
        <ele>1523.6</ele>
        <time>2020-09-05T09:19:44.696Z</time>
      </trkpt>
      <trkpt lat="44.43124" lon="6.11265">
        <ele>1522.9</ele>
        <time>2020-09-05T09:19:46.177Z</time>
      </trkpt>
      <trkpt lat="44.43118" lon="6.11259">
        <ele>1519.6</ele>
        <time>2020-09-05T09:19:48.656Z</time>
      </trkpt>
      <trkpt lat="44.43116" lon="6.11254">
        <ele>1517.1</ele>
        <time>2020-09-05T09:19:50.992Z</time>
      </trkpt>
      <trkpt lat="44.43115" lon="6.11248">
        <ele>1511.7</ele>
        <time>2020-09-05T09:19:52.000Z</time>
      </trkpt>
      <trkpt lat="44.4311" lon="6.11231">
        <ele>1512.9</ele>
        <time>2020-09-05T09:19:55.000Z</time>
      </trkpt>
      <trkpt lat="44.43106" lon="6.11219">
        <ele>1513.3</ele>
        <time>2020-09-05T09:19:58.000Z</time>
      </trkpt>
      <trkpt lat="44.43098" lon="6.11211">
        <ele>1513.8</ele>
        <time>2020-09-05T09:20:01.000Z</time>
      </trkpt>
      <trkpt lat="44.43094" lon="6.11207">
        <ele>1519.4</ele>
        <time>2020-09-05T09:20:46.000Z</time>
      </trkpt>
      <trkpt lat="44.43089" lon="6.11205">
        <ele>1520.6</ele>
        <time>2020-09-05T09:20:53.359Z</time>
      </trkpt>
      <trkpt lat="44.43084" lon="6.11206">
        <ele>1520</ele>
        <time>2020-09-05T09:20:59.000Z</time>
      </trkpt>
      <trkpt lat="44.43082" lon="6.11194">
        <ele>1513.1</ele>
        <time>2020-09-05T09:22:40.008Z</time>
      </trkpt>
      <trkpt lat="44.4308" lon="6.11188">
        <ele>1510.4</ele>
        <time>2020-09-05T09:22:42.526Z</time>
      </trkpt>
      <trkpt lat="44.43082" lon="6.11181">
        <ele>1510.6</ele>
        <time>2020-09-05T09:22:45.000Z</time>
      </trkpt>
      <trkpt lat="44.43078" lon="6.11147">
        <ele>1505.6</ele>
        <time>2020-09-05T09:22:48.000Z</time>
      </trkpt>
      <trkpt lat="44.43075" lon="6.11131">
        <ele>1504.7</ele>
        <time>2020-09-05T09:22:49.000Z</time>
      </trkpt>
      <trkpt lat="44.4307" lon="6.11118">
        <ele>1504.9</ele>
        <time>2020-09-05T09:22:50.000Z</time>
      </trkpt>
      <trkpt lat="44.43062" lon="6.11096">
        <ele>1505.4</ele>
        <time>2020-09-05T09:22:52.000Z</time>
      </trkpt>
      <trkpt lat="44.4306" lon="6.1109">
        <ele>1505.6</ele>
        <time>2020-09-05T09:22:53.000Z</time>
      </trkpt>
      <trkpt lat="44.43059" lon="6.11083">
        <ele>1504.6</ele>
        <time>2020-09-05T09:22:56.000Z</time>
      </trkpt>
      <trkpt lat="44.43058" lon="6.11069">
        <ele>1501</ele>
        <time>2020-09-05T09:22:59.000Z</time>
      </trkpt>
      <trkpt lat="44.43055" lon="6.11056">
        <ele>1501.1</ele>
        <time>2020-09-05T09:23:01.000Z</time>
      </trkpt>
      <trkpt lat="44.4305" lon="6.11049">
        <ele>1499.8</ele>
        <time>2020-09-05T09:23:02.000Z</time>
      </trkpt>
      <trkpt lat="44.43046" lon="6.11044">
        <ele>1500.1</ele>
        <time>2020-09-05T09:23:03.000Z</time>
      </trkpt>
      <trkpt lat="44.43043" lon="6.11035">
        <ele>1500.2</ele>
        <time>2020-09-05T09:23:05.000Z</time>
      </trkpt>
      <trkpt lat="44.43039" lon="6.11028">
        <ele>1500.7</ele>
        <time>2020-09-05T09:23:06.000Z</time>
      </trkpt>
      <trkpt lat="44.43033" lon="6.11019">
        <ele>1501.2</ele>
        <time>2020-09-05T09:23:07.000Z</time>
      </trkpt>
      <trkpt lat="44.43021" lon="6.11004">
        <ele>1501.1</ele>
        <time>2020-09-05T09:23:09.000Z</time>
      </trkpt>
      <trkpt lat="44.43007" lon="6.10991">
        <ele>1501.3</ele>
        <time>2020-09-05T09:23:11.000Z</time>
      </trkpt>
      <trkpt lat="44.42992" lon="6.10977">
        <ele>1501.9</ele>
        <time>2020-09-05T09:23:13.000Z</time>
      </trkpt>
      <trkpt lat="44.42987" lon="6.1097">
        <ele>1502.3</ele>
        <time>2020-09-05T09:23:14.000Z</time>
      </trkpt>
      <trkpt lat="44.42977" lon="6.10953">
        <ele>1503.7</ele>
        <time>2020-09-05T09:23:16.000Z</time>
      </trkpt>
      <trkpt lat="44.42973" lon="6.10945">
        <ele>1502.1</ele>
        <time>2020-09-05T09:23:17.000Z</time>
      </trkpt>
      <trkpt lat="44.42965" lon="6.1093">
        <ele>1502.3</ele>
        <time>2020-09-05T09:23:19.000Z</time>
      </trkpt>
      <trkpt lat="44.42962" lon="6.10923">
        <ele>1502.5</ele>
        <time>2020-09-05T09:23:20.000Z</time>
      </trkpt>
      <trkpt lat="44.42954" lon="6.10905">
        <ele>1503</ele>
        <time>2020-09-05T09:23:22.000Z</time>
      </trkpt>
      <trkpt lat="44.42951" lon="6.10896">
        <ele>1502.8</ele>
        <time>2020-09-05T09:23:23.000Z</time>
      </trkpt>
      <trkpt lat="44.42947" lon="6.10881">
        <ele>1503.5</ele>
        <time>2020-09-05T09:23:25.000Z</time>
      </trkpt>
      <trkpt lat="44.42944" lon="6.10874">
        <ele>1503.4</ele>
        <time>2020-09-05T09:23:26.000Z</time>
      </trkpt>
      <trkpt lat="44.42933" lon="6.10859">
        <ele>1506.4</ele>
        <time>2020-09-05T09:23:28.000Z</time>
      </trkpt>
      <trkpt lat="44.42927" lon="6.10852">
        <ele>1506.2</ele>
        <time>2020-09-05T09:23:29.000Z</time>
      </trkpt>
      <trkpt lat="44.42919" lon="6.10839">
        <ele>1506.7</ele>
        <time>2020-09-05T09:23:31.000Z</time>
      </trkpt>
      <trkpt lat="44.42916" lon="6.10831">
        <ele>1506.7</ele>
        <time>2020-09-05T09:23:32.000Z</time>
      </trkpt>
      <trkpt lat="44.42908" lon="6.10818">
        <ele>1506.7</ele>
        <time>2020-09-05T09:23:34.000Z</time>
      </trkpt>
      <trkpt lat="44.42899" lon="6.10806">
        <ele>1503</ele>
        <time>2020-09-05T09:23:36.000Z</time>
      </trkpt>
      <trkpt lat="44.42895" lon="6.10799">
        <ele>1502.5</ele>
        <time>2020-09-05T09:23:37.000Z</time>
      </trkpt>
      <trkpt lat="44.42887" lon="6.10786">
        <ele>1501.2</ele>
        <time>2020-09-05T09:23:39.000Z</time>
      </trkpt>
      <trkpt lat="44.42881" lon="6.10779">
        <ele>1500.5</ele>
        <time>2020-09-05T09:23:40.000Z</time>
      </trkpt>
      <trkpt lat="44.42875" lon="6.10772">
        <ele>1500.9</ele>
        <time>2020-09-05T09:23:41.000Z</time>
      </trkpt>
      <trkpt lat="44.42862" lon="6.10763">
        <ele>1501.5</ele>
        <time>2020-09-05T09:23:43.000Z</time>
      </trkpt>
      <trkpt lat="44.42856" lon="6.10752">
        <ele>1502.6</ele>
        <time>2020-09-05T09:23:49.000Z</time>
      </trkpt>
      <trkpt lat="44.42852" lon="6.10744">
        <ele>1504</ele>
        <time>2020-09-05T09:23:51.000Z</time>
      </trkpt>
      <trkpt lat="44.42848" lon="6.10738">
        <ele>1505.4</ele>
        <time>2020-09-05T09:23:53.000Z</time>
      </trkpt>
      <trkpt lat="44.42847" lon="6.10729">
        <ele>1504.3</ele>
        <time>2020-09-05T09:23:55.309Z</time>
      </trkpt>
      <trkpt lat="44.42845" lon="6.10716">
        <ele>1504.4</ele>
        <time>2020-09-05T09:23:57.000Z</time>
      </trkpt>
      <trkpt lat="44.42845" lon="6.10706">
        <ele>1504.6</ele>
        <time>2020-09-05T09:23:59.000Z</time>
      </trkpt>
      <trkpt lat="44.42844" lon="6.10698">
        <ele>1507.8</ele>
        <time>2020-09-05T09:24:02.000Z</time>
      </trkpt>
      <trkpt lat="44.42844" lon="6.1069">
        <ele>1510.8</ele>
        <time>2020-09-05T09:24:09.000Z</time>
      </trkpt>
      <trkpt lat="44.4284" lon="6.1068">
        <ele>1512.9</ele>
        <time>2020-09-05T09:24:13.000Z</time>
      </trkpt>
      <trkpt lat="44.42838" lon="6.10669">
        <ele>1513.5</ele>
        <time>2020-09-05T09:24:16.000Z</time>
      </trkpt>
      <trkpt lat="44.42838" lon="6.10659">
        <ele>1517.3</ele>
        <time>2020-09-05T09:24:19.000Z</time>
      </trkpt>
      <trkpt lat="44.42835" lon="6.10654">
        <ele>1519.1</ele>
        <time>2020-09-05T09:24:26.000Z</time>
      </trkpt>
      <trkpt lat="44.42834" lon="6.10647">
        <ele>1520</ele>
        <time>2020-09-05T09:24:34.626Z</time>
      </trkpt>
      <trkpt lat="44.42832" lon="6.10639">
        <ele>1522.9</ele>
        <time>2020-09-05T09:24:38.000Z</time>
      </trkpt>
      <trkpt lat="44.42832" lon="6.1063">
        <ele>1525.8</ele>
        <time>2020-09-05T09:24:48.000Z</time>
      </trkpt>
      <trkpt lat="44.4283" lon="6.10624">
        <ele>1527.3</ele>
        <time>2020-09-05T09:24:51.000Z</time>
      </trkpt>
      <trkpt lat="44.42827" lon="6.10619">
        <ele>1534.6</ele>
        <time>2020-09-05T09:25:10.024Z</time>
      </trkpt>
      <trkpt lat="44.42825" lon="6.10612">
        <ele>1533.6</ele>
        <time>2020-09-05T09:25:12.000Z</time>
      </trkpt>
      <trkpt lat="44.42826" lon="6.10603">
        <ele>1534.4</ele>
        <time>2020-09-05T09:25:16.000Z</time>
      </trkpt>
      <trkpt lat="44.42827" lon="6.10597">
        <ele>1534.6</ele>
        <time>2020-09-05T09:25:21.000Z</time>
      </trkpt>
      <trkpt lat="44.42828" lon="6.10589">
        <ele>1532.6</ele>
        <time>2020-09-05T09:25:47.419Z</time>
      </trkpt>
      <trkpt lat="44.4283" lon="6.10583">
        <ele>1534.7</ele>
        <time>2020-09-05T09:25:49.000Z</time>
      </trkpt>
      <trkpt lat="44.42833" lon="6.10578">
        <ele>1535.2</ele>
        <time>2020-09-05T09:25:51.000Z</time>
      </trkpt>
      <trkpt lat="44.42837" lon="6.10564">
        <ele>1533.6</ele>
        <time>2020-09-05T09:25:54.000Z</time>
      </trkpt>
      <trkpt lat="44.4284" lon="6.10558">
        <ele>1532.4</ele>
        <time>2020-09-05T09:25:56.000Z</time>
      </trkpt>
      <trkpt lat="44.42843" lon="6.10551">
        <ele>1531.6</ele>
        <time>2020-09-05T09:25:58.000Z</time>
      </trkpt>
      <trkpt lat="44.42847" lon="6.10539">
        <ele>1528.5</ele>
        <time>2020-09-05T09:26:02.000Z</time>
      </trkpt>
      <trkpt lat="44.42849" lon="6.10528">
        <ele>1527.4</ele>
        <time>2020-09-05T09:26:05.000Z</time>
      </trkpt>
      <trkpt lat="44.42852" lon="6.1052">
        <ele>1524.9</ele>
        <time>2020-09-05T09:26:07.000Z</time>
      </trkpt>
      <trkpt lat="44.42855" lon="6.10511">
        <ele>1523.8</ele>
        <time>2020-09-05T09:26:09.000Z</time>
      </trkpt>
      <trkpt lat="44.42858" lon="6.10502">
        <ele>1523.5</ele>
        <time>2020-09-05T09:26:11.000Z</time>
      </trkpt>
      <trkpt lat="44.42862" lon="6.10494">
        <ele>1522.9</ele>
        <time>2020-09-05T09:26:13.000Z</time>
      </trkpt>
      <trkpt lat="44.42866" lon="6.1048">
        <ele>1521</ele>
        <time>2020-09-05T09:26:16.000Z</time>
      </trkpt>
      <trkpt lat="44.42868" lon="6.10464">
        <ele>1520.9</ele>
        <time>2020-09-05T09:26:19.000Z</time>
      </trkpt>
      <trkpt lat="44.42871" lon="6.10455">
        <ele>1519.8</ele>
        <time>2020-09-05T09:26:21.000Z</time>
      </trkpt>
      <trkpt lat="44.42872" lon="6.10442">
        <ele>1518.8</ele>
        <time>2020-09-05T09:26:23.000Z</time>
      </trkpt>
      <trkpt lat="44.42872" lon="6.10427">
        <ele>1519.5</ele>
        <time>2020-09-05T09:26:25.000Z</time>
      </trkpt>
      <trkpt lat="44.42872" lon="6.10412">
        <ele>1519.9</ele>
        <time>2020-09-05T09:26:28.000Z</time>
      </trkpt>
      <trkpt lat="44.42874" lon="6.10406">
        <ele>1514.3</ele>
        <time>2020-09-05T09:26:30.000Z</time>
      </trkpt>
      <trkpt lat="44.42877" lon="6.10399">
        <ele>1517.8</ele>
        <time>2020-09-05T09:26:33.000Z</time>
      </trkpt>
      <trkpt lat="44.42876" lon="6.10393">
        <ele>1516.9</ele>
        <time>2020-09-05T09:26:38.000Z</time>
      </trkpt>
      <trkpt lat="44.42876" lon="6.10382">
        <ele>1514.6</ele>
        <time>2020-09-05T09:26:48.000Z</time>
      </trkpt>
      <trkpt lat="44.42876" lon="6.10376">
        <ele>1517</ele>
        <time>2020-09-05T09:26:49.242Z</time>
      </trkpt>
      <trkpt lat="44.42874" lon="6.10369">
        <ele>1516.8</ele>
        <time>2020-09-05T09:26:51.000Z</time>
      </trkpt>
      <trkpt lat="44.42873" lon="6.10356">
        <ele>1517.8</ele>
        <time>2020-09-05T09:26:53.000Z</time>
      </trkpt>
      <trkpt lat="44.42873" lon="6.10347">
        <ele>1518.4</ele>
        <time>2020-09-05T09:26:54.000Z</time>
      </trkpt>
      <trkpt lat="44.42871" lon="6.10336">
        <ele>1518.6</ele>
        <time>2020-09-05T09:26:55.000Z</time>
      </trkpt>
      <trkpt lat="44.42867" lon="6.10323">
        <ele>1519.4</ele>
        <time>2020-09-05T09:26:56.000Z</time>
      </trkpt>
      <trkpt lat="44.4286" lon="6.10298">
        <ele>1519.5</ele>
        <time>2020-09-05T09:26:58.000Z</time>
      </trkpt>
      <trkpt lat="44.42855" lon="6.10286">
        <ele>1520.8</ele>
        <time>2020-09-05T09:26:59.000Z</time>
      </trkpt>
      <trkpt lat="44.42851" lon="6.10277">
        <ele>1519</ele>
        <time>2020-09-05T09:27:00.000Z</time>
      </trkpt>
      <trkpt lat="44.42852" lon="6.10269">
        <ele>1515.6</ele>
        <time>2020-09-05T09:27:04.000Z</time>
      </trkpt>
      <trkpt lat="44.42846" lon="6.10257">
        <ele>1515.5</ele>
        <time>2020-09-05T09:27:08.000Z</time>
      </trkpt>
      <trkpt lat="44.4284" lon="6.10247">
        <ele>1515</ele>
        <time>2020-09-05T09:27:10.000Z</time>
      </trkpt>
      <trkpt lat="44.42837" lon="6.10242">
        <ele>1515</ele>
        <time>2020-09-05T09:27:11.000Z</time>
      </trkpt>
      <trkpt lat="44.42835" lon="6.10236">
        <ele>1513.7</ele>
        <time>2020-09-05T09:27:12.000Z</time>
      </trkpt>
      <trkpt lat="44.42833" lon="6.10227">
        <ele>1512.8</ele>
        <time>2020-09-05T09:27:14.000Z</time>
      </trkpt>
      <trkpt lat="44.4283" lon="6.10219">
        <ele>1511.3</ele>
        <time>2020-09-05T09:27:16.000Z</time>
      </trkpt>
      <trkpt lat="44.42828" lon="6.10207">
        <ele>1511.3</ele>
        <time>2020-09-05T09:27:20.000Z</time>
      </trkpt>
      <trkpt lat="44.42827" lon="6.10199">
        <ele>1510</ele>
        <time>2020-09-05T09:27:22.000Z</time>
      </trkpt>
      <trkpt lat="44.42823" lon="6.10185">
        <ele>1507.9</ele>
        <time>2020-09-05T09:27:25.000Z</time>
      </trkpt>
      <trkpt lat="44.42819" lon="6.10176">
        <ele>1509</ele>
        <time>2020-09-05T09:27:27.000Z</time>
      </trkpt>
      <trkpt lat="44.42815" lon="6.10163">
        <ele>1509.4</ele>
        <time>2020-09-05T09:27:29.000Z</time>
      </trkpt>
      <trkpt lat="44.4281" lon="6.10152">
        <ele>1509.9</ele>
        <time>2020-09-05T09:27:30.000Z</time>
      </trkpt>
      <trkpt lat="44.42803" lon="6.10147">
        <ele>1512.5</ele>
        <time>2020-09-05T09:27:32.000Z</time>
      </trkpt>
      <trkpt lat="44.42796" lon="6.10143">
        <ele>1516.2</ele>
        <time>2020-09-05T09:27:34.000Z</time>
      </trkpt>
      <trkpt lat="44.42791" lon="6.1014">
        <ele>1518.6</ele>
        <time>2020-09-05T09:27:36.000Z</time>
      </trkpt>
      <trkpt lat="44.42787" lon="6.10137">
        <ele>1519.4</ele>
        <time>2020-09-05T09:27:38.000Z</time>
      </trkpt>
      <trkpt lat="44.42781" lon="6.10131">
        <ele>1519.5</ele>
        <time>2020-09-05T09:27:40.000Z</time>
      </trkpt>
      <trkpt lat="44.42773" lon="6.1012">
        <ele>1517.6</ele>
        <time>2020-09-05T09:27:42.000Z</time>
      </trkpt>
      <trkpt lat="44.4277" lon="6.10115">
        <ele>1517.9</ele>
        <time>2020-09-05T09:27:43.000Z</time>
      </trkpt>
      <trkpt lat="44.42764" lon="6.10092">
        <ele>1517.7</ele>
        <time>2020-09-05T09:27:48.221Z</time>
      </trkpt>
      <trkpt lat="44.42756" lon="6.1007">
        <ele>1511</ele>
        <time>2020-09-05T09:27:52.000Z</time>
      </trkpt>
      <trkpt lat="44.42754" lon="6.10063">
        <ele>1511.1</ele>
        <time>2020-09-05T09:27:53.000Z</time>
      </trkpt>
      <trkpt lat="44.42751" lon="6.10054">
        <ele>1506.1</ele>
        <time>2020-09-05T09:27:56.000Z</time>
      </trkpt>
      <trkpt lat="44.42747" lon="6.10039">
        <ele>1504.4</ele>
        <time>2020-09-05T09:27:58.000Z</time>
      </trkpt>
      <trkpt lat="44.42744" lon="6.10029">
        <ele>1501.6</ele>
        <time>2020-09-05T09:27:59.000Z</time>
      </trkpt>
      <trkpt lat="44.4274" lon="6.10019">
        <ele>1501.6</ele>
        <time>2020-09-05T09:28:00.000Z</time>
      </trkpt>
      <trkpt lat="44.42737" lon="6.10009">
        <ele>1502.2</ele>
        <time>2020-09-05T09:28:01.000Z</time>
      </trkpt>
      <trkpt lat="44.42734" lon="6.09998">
        <ele>1501.1</ele>
        <time>2020-09-05T09:28:02.000Z</time>
      </trkpt>
      <trkpt lat="44.42734" lon="6.09983">
        <ele>1503.3</ele>
        <time>2020-09-05T09:28:04.000Z</time>
      </trkpt>
      <trkpt lat="44.42737" lon="6.09972">
        <ele>1504.2</ele>
        <time>2020-09-05T09:28:06.000Z</time>
      </trkpt>
      <trkpt lat="44.42743" lon="6.09956">
        <ele>1503.6</ele>
        <time>2020-09-05T09:28:08.000Z</time>
      </trkpt>
      <trkpt lat="44.42746" lon="6.09938">
        <ele>1504.8</ele>
        <time>2020-09-05T09:28:10.000Z</time>
      </trkpt>
      <trkpt lat="44.42745" lon="6.0993">
        <ele>1505.4</ele>
        <time>2020-09-05T09:28:11.000Z</time>
      </trkpt>
      <trkpt lat="44.42743" lon="6.09915">
        <ele>1507.6</ele>
        <time>2020-09-05T09:28:13.000Z</time>
      </trkpt>
      <trkpt lat="44.42745" lon="6.09909">
        <ele>1505.9</ele>
        <time>2020-09-05T09:28:14.236Z</time>
      </trkpt>
      <trkpt lat="44.42749" lon="6.09905">
        <ele>1504.3</ele>
        <time>2020-09-05T09:28:16.000Z</time>
      </trkpt>
      <trkpt lat="44.42752" lon="6.09885">
        <ele>1504.4</ele>
        <time>2020-09-05T09:28:19.000Z</time>
      </trkpt>
      <trkpt lat="44.42753" lon="6.09879">
        <ele>1504.1</ele>
        <time>2020-09-05T09:28:20.000Z</time>
      </trkpt>
      <trkpt lat="44.42754" lon="6.0987">
        <ele>1504.4</ele>
        <time>2020-09-05T09:28:21.659Z</time>
      </trkpt>
      <trkpt lat="44.42754" lon="6.09862">
        <ele>1504.7</ele>
        <time>2020-09-05T09:28:23.161Z</time>
      </trkpt>
      <trkpt lat="44.42753" lon="6.09855">
        <ele>1503.1</ele>
        <time>2020-09-05T09:28:24.893Z</time>
      </trkpt>
      <trkpt lat="44.42752" lon="6.09848">
        <ele>1502.8</ele>
        <time>2020-09-05T09:28:26.000Z</time>
      </trkpt>
      <trkpt lat="44.42752" lon="6.09841">
        <ele>1503.1</ele>
        <time>2020-09-05T09:28:27.783Z</time>
      </trkpt>
      <trkpt lat="44.42752" lon="6.0983">
        <ele>1502.8</ele>
        <time>2020-09-05T09:28:30.662Z</time>
      </trkpt>
      <trkpt lat="44.42754" lon="6.09822">
        <ele>1503.1</ele>
        <time>2020-09-05T09:28:32.000Z</time>
      </trkpt>
      <trkpt lat="44.42754" lon="6.09811">
        <ele>1501.7</ele>
        <time>2020-09-05T09:28:34.000Z</time>
      </trkpt>
      <trkpt lat="44.42753" lon="6.09804">
        <ele>1502.7</ele>
        <time>2020-09-05T09:28:37.000Z</time>
      </trkpt>
      <trkpt lat="44.4275" lon="6.09795">
        <ele>1500.5</ele>
        <time>2020-09-05T09:28:39.999Z</time>
      </trkpt>
      <trkpt lat="44.42751" lon="6.09784">
        <ele>1499.9</ele>
        <time>2020-09-05T09:28:42.481Z</time>
      </trkpt>
      <trkpt lat="44.42751" lon="6.09776">
        <ele>1501.1</ele>
        <time>2020-09-05T09:28:44.000Z</time>
      </trkpt>
      <trkpt lat="44.42749" lon="6.09767">
        <ele>1500</ele>
        <time>2020-09-05T09:28:46.776Z</time>
      </trkpt>
      <trkpt lat="44.42749" lon="6.09759">
        <ele>1499.6</ele>
        <time>2020-09-05T09:28:48.000Z</time>
      </trkpt>
      <trkpt lat="44.42749" lon="6.09753">
        <ele>1498.8</ele>
        <time>2020-09-05T09:28:49.277Z</time>
      </trkpt>
      <trkpt lat="44.42754" lon="6.09732">
        <ele>1502.3</ele>
        <time>2020-09-05T09:28:51.000Z</time>
      </trkpt>
      <trkpt lat="44.42756" lon="6.09722">
        <ele>1500.5</ele>
        <time>2020-09-05T09:28:52.000Z</time>
      </trkpt>
      <trkpt lat="44.4276" lon="6.09704">
        <ele>1500.2</ele>
        <time>2020-09-05T09:28:54.000Z</time>
      </trkpt>
      <trkpt lat="44.42762" lon="6.0969">
        <ele>1500</ele>
        <time>2020-09-05T09:28:56.000Z</time>
      </trkpt>
      <trkpt lat="44.42758" lon="6.09678">
        <ele>1497.5</ele>
        <time>2020-09-05T09:28:58.000Z</time>
      </trkpt>
      <trkpt lat="44.42755" lon="6.0967">
        <ele>1496.9</ele>
        <time>2020-09-05T09:28:59.000Z</time>
      </trkpt>
      <trkpt lat="44.42759" lon="6.09662">
        <ele>1493</ele>
        <time>2020-09-05T09:29:02.000Z</time>
      </trkpt>
      <trkpt lat="44.42761" lon="6.09648">
        <ele>1491.8</ele>
        <time>2020-09-05T09:29:04.000Z</time>
      </trkpt>
      <trkpt lat="44.42762" lon="6.09641">
        <ele>1492.1</ele>
        <time>2020-09-05T09:29:05.000Z</time>
      </trkpt>
      <trkpt lat="44.4276" lon="6.09635">
        <ele>1488.6</ele>
        <time>2020-09-05T09:29:07.000Z</time>
      </trkpt>
      <trkpt lat="44.42759" lon="6.09627">
        <ele>1488</ele>
        <time>2020-09-05T09:29:10.000Z</time>
      </trkpt>
      <trkpt lat="44.42762" lon="6.0962">
        <ele>1488.5</ele>
        <time>2020-09-05T09:29:13.000Z</time>
      </trkpt>
      <trkpt lat="44.42766" lon="6.09613">
        <ele>1488.2</ele>
        <time>2020-09-05T09:29:16.000Z</time>
      </trkpt>
      <trkpt lat="44.42767" lon="6.09604">
        <ele>1485.9</ele>
        <time>2020-09-05T09:29:18.000Z</time>
      </trkpt>
      <trkpt lat="44.4277" lon="6.09588">
        <ele>1486.8</ele>
        <time>2020-09-05T09:29:20.000Z</time>
      </trkpt>
      <trkpt lat="44.42771" lon="6.09571">
        <ele>1488.6</ele>
        <time>2020-09-05T09:29:22.000Z</time>
      </trkpt>
      <trkpt lat="44.42773" lon="6.0956">
        <ele>1490.4</ele>
        <time>2020-09-05T09:29:24.000Z</time>
      </trkpt>
      <trkpt lat="44.42772" lon="6.09549">
        <ele>1491.7</ele>
        <time>2020-09-05T09:29:26.000Z</time>
      </trkpt>
      <trkpt lat="44.42773" lon="6.09537">
        <ele>1493.3</ele>
        <time>2020-09-05T09:29:29.000Z</time>
      </trkpt>
      <trkpt lat="44.42777" lon="6.09531">
        <ele>1498.5</ele>
        <time>2020-09-05T09:29:31.000Z</time>
      </trkpt>
      <trkpt lat="44.42778" lon="6.0952">
        <ele>1502.6</ele>
        <time>2020-09-05T09:29:34.000Z</time>
      </trkpt>
      <trkpt lat="44.42779" lon="6.09511">
        <ele>1503.5</ele>
        <time>2020-09-05T09:29:36.000Z</time>
      </trkpt>
      <trkpt lat="44.4278" lon="6.095">
        <ele>1507.4</ele>
        <time>2020-09-05T09:29:40.000Z</time>
      </trkpt>
      <trkpt lat="44.42782" lon="6.09488">
        <ele>1508.6</ele>
        <time>2020-09-05T09:29:44.000Z</time>
      </trkpt>
      <trkpt lat="44.42784" lon="6.09481">
        <ele>1509.8</ele>
        <time>2020-09-05T09:29:46.000Z</time>
      </trkpt>
      <trkpt lat="44.42786" lon="6.09472">
        <ele>1511.9</ele>
        <time>2020-09-05T09:29:48.000Z</time>
      </trkpt>
      <trkpt lat="44.42786" lon="6.09461">
        <ele>1513.3</ele>
        <time>2020-09-05T09:29:50.000Z</time>
      </trkpt>
      <trkpt lat="44.42786" lon="6.0945">
        <ele>1514.3</ele>
        <time>2020-09-05T09:29:52.000Z</time>
      </trkpt>
      <trkpt lat="44.42785" lon="6.09441">
        <ele>1515.2</ele>
        <time>2020-09-05T09:29:54.000Z</time>
      </trkpt>
      <trkpt lat="44.42785" lon="6.09431">
        <ele>1514.8</ele>
        <time>2020-09-05T09:29:56.000Z</time>
      </trkpt>
      <trkpt lat="44.42784" lon="6.09422">
        <ele>1514.9</ele>
        <time>2020-09-05T09:29:58.000Z</time>
      </trkpt>
      <trkpt lat="44.42786" lon="6.09405">
        <ele>1519.4</ele>
        <time>2020-09-05T09:30:01.000Z</time>
      </trkpt>
      <trkpt lat="44.42784" lon="6.09397">
        <ele>1521.9</ele>
        <time>2020-09-05T09:30:04.000Z</time>
      </trkpt>
      <trkpt lat="44.42784" lon="6.09382">
        <ele>1519.9</ele>
        <time>2020-09-05T09:30:07.000Z</time>
      </trkpt>
      <trkpt lat="44.42781" lon="6.09365">
        <ele>1518.4</ele>
        <time>2020-09-05T09:30:10.000Z</time>
      </trkpt>
      <trkpt lat="44.42775" lon="6.0935">
        <ele>1514.9</ele>
        <time>2020-09-05T09:30:13.000Z</time>
      </trkpt>
      <trkpt lat="44.42772" lon="6.09343">
        <ele>1513.8</ele>
        <time>2020-09-05T09:30:15.000Z</time>
      </trkpt>
      <trkpt lat="44.42768" lon="6.09338">
        <ele>1513.8</ele>
        <time>2020-09-05T09:30:19.000Z</time>
      </trkpt>
      <trkpt lat="44.42762" lon="6.09334">
        <ele>1510.7</ele>
        <time>2020-09-05T09:30:21.559Z</time>
      </trkpt>
      <trkpt lat="44.42758" lon="6.09331">
        <ele>1512.5</ele>
        <time>2020-09-05T09:30:23.882Z</time>
      </trkpt>
      <trkpt lat="44.42753" lon="6.09328">
        <ele>1513.3</ele>
        <time>2020-09-05T09:30:26.856Z</time>
      </trkpt>
      <trkpt lat="44.42751" lon="6.09321">
        <ele>1510.7</ele>
        <time>2020-09-05T09:30:49.016Z</time>
      </trkpt>
      <trkpt lat="44.42745" lon="6.09315">
        <ele>1504.8</ele>
        <time>2020-09-05T09:30:53.000Z</time>
      </trkpt>
      <trkpt lat="44.4274" lon="6.09311">
        <ele>1502.9</ele>
        <time>2020-09-05T09:30:56.046Z</time>
      </trkpt>
      <trkpt lat="44.42735" lon="6.09308">
        <ele>1502.1</ele>
        <time>2020-09-05T09:30:58.722Z</time>
      </trkpt>
      <trkpt lat="44.42729" lon="6.09303">
        <ele>1501.4</ele>
        <time>2020-09-05T09:31:03.000Z</time>
      </trkpt>
      <trkpt lat="44.42725" lon="6.093">
        <ele>1499.6</ele>
        <time>2020-09-05T09:31:07.000Z</time>
      </trkpt>
      <trkpt lat="44.42721" lon="6.09295">
        <ele>1498.7</ele>
        <time>2020-09-05T09:31:12.764Z</time>
      </trkpt>
      <trkpt lat="44.42718" lon="6.0929">
        <ele>1498</ele>
        <time>2020-09-05T09:31:18.321Z</time>
      </trkpt>
      <trkpt lat="44.42717" lon="6.09284">
        <ele>1494.4</ele>
        <time>2020-09-05T09:31:32.701Z</time>
      </trkpt>
      <trkpt lat="44.42714" lon="6.09279">
        <ele>1493.4</ele>
        <time>2020-09-05T09:31:43.000Z</time>
      </trkpt>
      <trkpt lat="44.42711" lon="6.09274">
        <ele>1488.4</ele>
        <time>2020-09-05T09:31:49.942Z</time>
      </trkpt>
      <trkpt lat="44.42706" lon="6.09273">
        <ele>1485.7</ele>
        <time>2020-09-05T09:31:55.000Z</time>
      </trkpt>
      <trkpt lat="44.427" lon="6.09273">
        <ele>1484.6</ele>
        <time>2020-09-05T09:32:00.000Z</time>
      </trkpt>
      <trkpt lat="44.42696" lon="6.09269">
        <ele>1481.8</ele>
        <time>2020-09-05T09:32:06.740Z</time>
      </trkpt>
      <trkpt lat="44.42692" lon="6.09264">
        <ele>1476.5</ele>
        <time>2020-09-05T09:32:12.657Z</time>
      </trkpt>
      <trkpt lat="44.42688" lon="6.09258">
        <ele>1474.1</ele>
        <time>2020-09-05T09:32:18.897Z</time>
      </trkpt>
      <trkpt lat="44.42686" lon="6.09251">
        <ele>1475.3</ele>
        <time>2020-09-05T09:32:22.779Z</time>
      </trkpt>
      <trkpt lat="44.42682" lon="6.09245">
        <ele>1470.9</ele>
        <time>2020-09-05T09:32:30.161Z</time>
      </trkpt>
      <trkpt lat="44.42678" lon="6.09242">
        <ele>1470.3</ele>
        <time>2020-09-05T09:32:38.160Z</time>
      </trkpt>
      <trkpt lat="44.42673" lon="6.09244">
        <ele>1467</ele>
        <time>2020-09-05T09:32:41.862Z</time>
      </trkpt>
      <trkpt lat="44.42668" lon="6.09245">
        <ele>1465.4</ele>
        <time>2020-09-05T09:32:46.000Z</time>
      </trkpt>
      <trkpt lat="44.42664" lon="6.0924">
        <ele>1461</ele>
        <time>2020-09-05T09:32:49.824Z</time>
      </trkpt>
      <trkpt lat="44.4266" lon="6.09236">
        <ele>1460.1</ele>
        <time>2020-09-05T09:32:52.000Z</time>
      </trkpt>
      <trkpt lat="44.4265" lon="6.0923">
        <ele>1460.1</ele>
        <time>2020-09-05T09:32:54.686Z</time>
      </trkpt>
      <trkpt lat="44.42645" lon="6.09227">
        <ele>1460.5</ele>
        <time>2020-09-05T09:32:56.174Z</time>
      </trkpt>
      <trkpt lat="44.42638" lon="6.09225">
        <ele>1455.1</ele>
        <time>2020-09-05T09:32:57.000Z</time>
      </trkpt>
      <trkpt lat="44.42633" lon="6.09221">
        <ele>1452.4</ele>
        <time>2020-09-05T09:32:59.000Z</time>
      </trkpt>
      <trkpt lat="44.42629" lon="6.09218">
        <ele>1449.4</ele>
        <time>2020-09-05T09:33:03.000Z</time>
      </trkpt>
      <trkpt lat="44.42619" lon="6.09225">
        <ele>1446.8</ele>
        <time>2020-09-05T09:33:34.000Z</time>
      </trkpt>
      <trkpt lat="44.42624" lon="6.09221">
        <ele>1446.9</ele>
        <time>2020-09-05T09:33:36.252Z</time>
      </trkpt>
      <trkpt lat="44.42619" lon="6.09212">
        <ele>1445.7</ele>
        <time>2020-09-05T09:34:20.000Z</time>
      </trkpt>
      <trkpt lat="44.42611" lon="6.092">
        <ele>1446.3</ele>
        <time>2020-09-05T09:34:23.000Z</time>
      </trkpt>
      <trkpt lat="44.42604" lon="6.092">
        <ele>1447.3</ele>
        <time>2020-09-05T09:34:26.000Z</time>
      </trkpt>
      <trkpt lat="44.42594" lon="6.09195">
        <ele>1447.8</ele>
        <time>2020-09-05T09:34:27.000Z</time>
      </trkpt>
      <trkpt lat="44.42585" lon="6.0919">
        <ele>1447.9</ele>
        <time>2020-09-05T09:34:28.000Z</time>
      </trkpt>
      <trkpt lat="44.4257" lon="6.09179">
        <ele>1444.7</ele>
        <time>2020-09-05T09:34:30.000Z</time>
      </trkpt>
      <trkpt lat="44.42564" lon="6.09177">
        <ele>1443.8</ele>
        <time>2020-09-05T09:34:31.000Z</time>
      </trkpt>
      <trkpt lat="44.42551" lon="6.09174">
        <ele>1446.1</ele>
        <time>2020-09-05T09:34:33.000Z</time>
      </trkpt>
      <trkpt lat="44.42545" lon="6.09172">
        <ele>1448.7</ele>
        <time>2020-09-05T09:34:34.000Z</time>
      </trkpt>
      <trkpt lat="44.4254" lon="6.09171">
        <ele>1450.3</ele>
        <time>2020-09-05T09:34:35.000Z</time>
      </trkpt>
      <trkpt lat="44.42527" lon="6.09165">
        <ele>1447.1</ele>
        <time>2020-09-05T09:34:37.000Z</time>
      </trkpt>
      <trkpt lat="44.42515" lon="6.09153">
        <ele>1448.1</ele>
        <time>2020-09-05T09:34:39.000Z</time>
      </trkpt>
      <trkpt lat="44.42504" lon="6.09145">
        <ele>1447.1</ele>
        <time>2020-09-05T09:34:41.000Z</time>
      </trkpt>
      <trkpt lat="44.42498" lon="6.0914">
        <ele>1444.5</ele>
        <time>2020-09-05T09:34:43.000Z</time>
      </trkpt>
      <trkpt lat="44.42491" lon="6.09134">
        <ele>1447.4</ele>
        <time>2020-09-05T09:35:30.000Z</time>
      </trkpt>
      <trkpt lat="44.42488" lon="6.09126">
        <ele>1445.3</ele>
        <time>2020-09-05T09:35:31.000Z</time>
      </trkpt>
      <trkpt lat="44.42485" lon="6.09118">
        <ele>1442.6</ele>
        <time>2020-09-05T09:35:32.000Z</time>
      </trkpt>
      <trkpt lat="44.42477" lon="6.09102">
        <ele>1440.4</ele>
        <time>2020-09-05T09:35:34.000Z</time>
      </trkpt>
      <trkpt lat="44.42472" lon="6.09092">
        <ele>1439.2</ele>
        <time>2020-09-05T09:35:35.000Z</time>
      </trkpt>
      <trkpt lat="44.42466" lon="6.09075">
        <ele>1439</ele>
        <time>2020-09-05T09:35:37.000Z</time>
      </trkpt>
      <trkpt lat="44.4246" lon="6.09072">
        <ele>1438</ele>
        <time>2020-09-05T09:35:39.000Z</time>
      </trkpt>
      <trkpt lat="44.4245" lon="6.09053">
        <ele>1440.6</ele>
        <time>2020-09-05T09:35:42.000Z</time>
      </trkpt>
      <trkpt lat="44.42439" lon="6.09037">
        <ele>1443.2</ele>
        <time>2020-09-05T09:35:44.000Z</time>
      </trkpt>
      <trkpt lat="44.42413" lon="6.09008">
        <ele>1444.4</ele>
        <time>2020-09-05T09:35:46.000Z</time>
      </trkpt>
      <trkpt lat="44.42402" lon="6.08994">
        <ele>1440.6</ele>
        <time>2020-09-05T09:35:50.000Z</time>
      </trkpt>
      <trkpt lat="44.42398" lon="6.08986">
        <ele>1442.6</ele>
        <time>2020-09-05T09:35:51.000Z</time>
      </trkpt>
      <trkpt lat="44.42393" lon="6.0897">
        <ele>1446</ele>
        <time>2020-09-05T09:35:53.000Z</time>
      </trkpt>
      <trkpt lat="44.42391" lon="6.08961">
        <ele>1445.9</ele>
        <time>2020-09-05T09:35:54.000Z</time>
      </trkpt>
      <trkpt lat="44.4239" lon="6.08952">
        <ele>1445.9</ele>
        <time>2020-09-05T09:35:55.000Z</time>
      </trkpt>
      <trkpt lat="44.42389" lon="6.08937">
        <ele>1446.4</ele>
        <time>2020-09-05T09:35:57.000Z</time>
      </trkpt>
      <trkpt lat="44.42384" lon="6.08919">
        <ele>1445.8</ele>
        <time>2020-09-05T09:35:59.000Z</time>
      </trkpt>
      <trkpt lat="44.42374" lon="6.08903">
        <ele>1443.7</ele>
        <time>2020-09-05T09:36:01.000Z</time>
      </trkpt>
      <trkpt lat="44.4237" lon="6.08897">
        <ele>1444.8</ele>
        <time>2020-09-05T09:36:02.000Z</time>
      </trkpt>
      <trkpt lat="44.42358" lon="6.08882">
        <ele>1447.7</ele>
        <time>2020-09-05T09:36:04.000Z</time>
      </trkpt>
      <trkpt lat="44.42345" lon="6.08871">
        <ele>1448.5</ele>
        <time>2020-09-05T09:36:06.000Z</time>
      </trkpt>
      <trkpt lat="44.42333" lon="6.08859">
        <ele>1449.1</ele>
        <time>2020-09-05T09:36:08.000Z</time>
      </trkpt>
      <trkpt lat="44.42318" lon="6.08852">
        <ele>1452.3</ele>
        <time>2020-09-05T09:36:10.000Z</time>
      </trkpt>
      <trkpt lat="44.42311" lon="6.08851">
        <ele>1454.1</ele>
        <time>2020-09-05T09:36:11.000Z</time>
      </trkpt>
      <trkpt lat="44.42296" lon="6.08844">
        <ele>1456.4</ele>
        <time>2020-09-05T09:36:13.000Z</time>
      </trkpt>
      <trkpt lat="44.42276" lon="6.08839">
        <ele>1458</ele>
        <time>2020-09-05T09:36:15.000Z</time>
      </trkpt>
      <trkpt lat="44.42263" lon="6.08835">
        <ele>1456.9</ele>
        <time>2020-09-05T09:36:17.000Z</time>
      </trkpt>
      <trkpt lat="44.42258" lon="6.0883">
        <ele>1456.3</ele>
        <time>2020-09-05T09:36:18.000Z</time>
      </trkpt>
      <trkpt lat="44.42247" lon="6.08824">
        <ele>1457.5</ele>
        <time>2020-09-05T09:36:20.000Z</time>
      </trkpt>
      <trkpt lat="44.42238" lon="6.08821">
        <ele>1461</ele>
        <time>2020-09-05T09:36:22.000Z</time>
      </trkpt>
      <trkpt lat="44.42227" lon="6.08824">
        <ele>1463.6</ele>
        <time>2020-09-05T09:36:24.000Z</time>
      </trkpt>
      <trkpt lat="44.42222" lon="6.08826">
        <ele>1463.9</ele>
        <time>2020-09-05T09:36:25.000Z</time>
      </trkpt>
      <trkpt lat="44.42214" lon="6.08823">
        <ele>1466.3</ele>
        <time>2020-09-05T09:36:27.000Z</time>
      </trkpt>
      <trkpt lat="44.422" lon="6.08815">
        <ele>1467.2</ele>
        <time>2020-09-05T09:36:29.000Z</time>
      </trkpt>
      <trkpt lat="44.42195" lon="6.08811">
        <ele>1466.9</ele>
        <time>2020-09-05T09:36:30.000Z</time>
      </trkpt>
      <trkpt lat="44.42186" lon="6.08805">
        <ele>1465</ele>
        <time>2020-09-05T09:36:32.000Z</time>
      </trkpt>
      <trkpt lat="44.42177" lon="6.08801">
        <ele>1465.3</ele>
        <time>2020-09-05T09:36:34.000Z</time>
      </trkpt>
      <trkpt lat="44.42171" lon="6.08797">
        <ele>1462.8</ele>
        <time>2020-09-05T09:36:36.000Z</time>
      </trkpt>
      <trkpt lat="44.42159" lon="6.08781">
        <ele>1462.4</ele>
        <time>2020-09-05T09:36:39.000Z</time>
      </trkpt>
      <trkpt lat="44.42149" lon="6.08769">
        <ele>1461.1</ele>
        <time>2020-09-05T09:36:41.000Z</time>
      </trkpt>
      <trkpt lat="44.42144" lon="6.08765">
        <ele>1460.1</ele>
        <time>2020-09-05T09:36:42.000Z</time>
      </trkpt>
      <trkpt lat="44.42132" lon="6.08755">
        <ele>1458.9</ele>
        <time>2020-09-05T09:36:44.000Z</time>
      </trkpt>
      <trkpt lat="44.42126" lon="6.08751">
        <ele>1456.7</ele>
        <time>2020-09-05T09:36:45.000Z</time>
      </trkpt>
      <trkpt lat="44.42121" lon="6.08749">
        <ele>1457.2</ele>
        <time>2020-09-05T09:36:46.000Z</time>
      </trkpt>
      <trkpt lat="44.42114" lon="6.08747">
        <ele>1453.7</ele>
        <time>2020-09-05T09:36:47.000Z</time>
      </trkpt>
      <trkpt lat="44.421" lon="6.08744">
        <ele>1450.2</ele>
        <time>2020-09-05T09:36:49.000Z</time>
      </trkpt>
      <trkpt lat="44.42085" lon="6.0874">
        <ele>1447.3</ele>
        <time>2020-09-05T09:36:51.000Z</time>
      </trkpt>
      <trkpt lat="44.42078" lon="6.08736">
        <ele>1445.1</ele>
        <time>2020-09-05T09:36:52.000Z</time>
      </trkpt>
      <trkpt lat="44.42061" lon="6.08731">
        <ele>1446.9</ele>
        <time>2020-09-05T09:36:54.000Z</time>
      </trkpt>
      <trkpt lat="44.42057" lon="6.08729">
        <ele>1446.5</ele>
        <time>2020-09-05T09:36:55.000Z</time>
      </trkpt>
      <trkpt lat="44.42053" lon="6.08726">
        <ele>1446.7</ele>
        <time>2020-09-05T09:36:56.000Z</time>
      </trkpt>
      <trkpt lat="44.42048" lon="6.08723">
        <ele>1446.3</ele>
        <time>2020-09-05T09:36:57.000Z</time>
      </trkpt>
      <trkpt lat="44.42038" lon="6.08715">
        <ele>1446.6</ele>
        <time>2020-09-05T09:36:59.000Z</time>
      </trkpt>
      <trkpt lat="44.4203" lon="6.08705">
        <ele>1448.6</ele>
        <time>2020-09-05T09:37:01.000Z</time>
      </trkpt>
      <trkpt lat="44.42022" lon="6.08704">
        <ele>1450.3</ele>
        <time>2020-09-05T09:37:03.000Z</time>
      </trkpt>
      <trkpt lat="44.42015" lon="6.087">
        <ele>1451.5</ele>
        <time>2020-09-05T09:37:05.000Z</time>
      </trkpt>
      <trkpt lat="44.42011" lon="6.08698">
        <ele>1451.4</ele>
        <time>2020-09-05T09:37:06.000Z</time>
      </trkpt>
      <trkpt lat="44.41998" lon="6.08698">
        <ele>1448.2</ele>
        <time>2020-09-05T09:37:08.000Z</time>
      </trkpt>
      <trkpt lat="44.41992" lon="6.08698">
        <ele>1448.1</ele>
        <time>2020-09-05T09:37:09.000Z</time>
      </trkpt>
      <trkpt lat="44.41987" lon="6.08701">
        <ele>1448.1</ele>
        <time>2020-09-05T09:37:10.791Z</time>
      </trkpt>
      <trkpt lat="44.41986" lon="6.08695">
        <ele>1444.1</ele>
        <time>2020-09-05T09:37:22.000Z</time>
      </trkpt>
      <trkpt lat="44.41983" lon="6.0869">
        <ele>1442.6</ele>
        <time>2020-09-05T09:37:29.000Z</time>
      </trkpt>
      <trkpt lat="44.41977" lon="6.08691">
        <ele>1443.9</ele>
        <time>2020-09-05T09:37:33.866Z</time>
      </trkpt>
      <trkpt lat="44.41964" lon="6.08685">
        <ele>1440.2</ele>
        <time>2020-09-05T09:37:37.000Z</time>
      </trkpt>
      <trkpt lat="44.41956" lon="6.08683">
        <ele>1441.7</ele>
        <time>2020-09-05T09:37:38.000Z</time>
      </trkpt>
      <trkpt lat="44.41963" lon="6.08688">
        <ele>1443.1</ele>
        <time>2020-09-05T09:37:41.000Z</time>
      </trkpt>
      <trkpt lat="44.41958" lon="6.08686">
        <ele>1442.4</ele>
        <time>2020-09-05T09:37:42.000Z</time>
      </trkpt>
      <trkpt lat="44.41946" lon="6.0868">
        <ele>1440.3</ele>
        <time>2020-09-05T09:37:43.541Z</time>
      </trkpt>
      <trkpt lat="44.41938" lon="6.08675">
        <ele>1438.6</ele>
        <time>2020-09-05T09:37:44.837Z</time>
      </trkpt>
      <trkpt lat="44.41929" lon="6.08668">
        <ele>1434.5</ele>
        <time>2020-09-05T09:37:46.535Z</time>
      </trkpt>
      <trkpt lat="44.41921" lon="6.08663">
        <ele>1433.4</ele>
        <time>2020-09-05T09:37:48.000Z</time>
      </trkpt>
      <trkpt lat="44.41911" lon="6.08657">
        <ele>1430.6</ele>
        <time>2020-09-05T09:37:50.000Z</time>
      </trkpt>
      <trkpt lat="44.41901" lon="6.08655">
        <ele>1429.3</ele>
        <time>2020-09-05T09:37:53.000Z</time>
      </trkpt>
      <trkpt lat="44.41896" lon="6.08654">
        <ele>1428.1</ele>
        <time>2020-09-05T09:37:54.732Z</time>
      </trkpt>
      <trkpt lat="44.41888" lon="6.08653">
        <ele>1427.7</ele>
        <time>2020-09-05T09:37:57.175Z</time>
      </trkpt>
      <trkpt lat="44.41882" lon="6.08656">
        <ele>1427.2</ele>
        <time>2020-09-05T09:37:59.000Z</time>
      </trkpt>
      <trkpt lat="44.41876" lon="6.08655">
        <ele>1426.4</ele>
        <time>2020-09-05T09:38:01.123Z</time>
      </trkpt>
      <trkpt lat="44.41868" lon="6.08653">
        <ele>1425.6</ele>
        <time>2020-09-05T09:38:03.000Z</time>
      </trkpt>
      <trkpt lat="44.41861" lon="6.08651">
        <ele>1424.1</ele>
        <time>2020-09-05T09:38:04.745Z</time>
      </trkpt>
      <trkpt lat="44.41857" lon="6.0865">
        <ele>1425.1</ele>
        <time>2020-09-05T09:38:06.106Z</time>
      </trkpt>
      <trkpt lat="44.4185" lon="6.08649">
        <ele>1423.4</ele>
        <time>2020-09-05T09:38:08.844Z</time>
      </trkpt>
      <trkpt lat="44.41845" lon="6.08651">
        <ele>1422.5</ele>
        <time>2020-09-05T09:38:12.448Z</time>
      </trkpt>
      <trkpt lat="44.4184" lon="6.0865">
        <ele>1419.9</ele>
        <time>2020-09-05T09:38:18.000Z</time>
      </trkpt>
      <trkpt lat="44.41837" lon="6.08644">
        <ele>1423.7</ele>
        <time>2020-09-05T09:40:49.000Z</time>
      </trkpt>
      <trkpt lat="44.41833" lon="6.0864">
        <ele>1423</ele>
        <time>2020-09-05T09:42:19.000Z</time>
      </trkpt>
      <trkpt lat="44.41836" lon="6.08632">
        <ele>1413.9</ele>
        <time>2020-09-05T09:42:34.000Z</time>
      </trkpt>
      <trkpt lat="44.41857" lon="6.08628">
        <ele>1416.6</ele>
        <time>2020-09-05T09:42:36.000Z</time>
      </trkpt>
      <trkpt lat="44.41866" lon="6.08627">
        <ele>1416.8</ele>
        <time>2020-09-05T09:42:37.000Z</time>
      </trkpt>
      <trkpt lat="44.41879" lon="6.08627">
        <ele>1414.2</ele>
        <time>2020-09-05T09:42:39.000Z</time>
      </trkpt>
      <trkpt lat="44.41885" lon="6.08626">
        <ele>1412.5</ele>
        <time>2020-09-05T09:42:40.000Z</time>
      </trkpt>
      <trkpt lat="44.4189" lon="6.08621">
        <ele>1412.3</ele>
        <time>2020-09-05T09:42:41.316Z</time>
      </trkpt>
      <trkpt lat="44.41895" lon="6.08608">
        <ele>1410.7</ele>
        <time>2020-09-05T09:42:43.000Z</time>
      </trkpt>
      <trkpt lat="44.41903" lon="6.08596">
        <ele>1409.6</ele>
        <time>2020-09-05T09:42:45.000Z</time>
      </trkpt>
      <trkpt lat="44.41908" lon="6.08593">
        <ele>1407.8</ele>
        <time>2020-09-05T09:42:46.000Z</time>
      </trkpt>
      <trkpt lat="44.41913" lon="6.08592">
        <ele>1405.5</ele>
        <time>2020-09-05T09:42:47.000Z</time>
      </trkpt>
      <trkpt lat="44.41925" lon="6.08587">
        <ele>1404.6</ele>
        <time>2020-09-05T09:42:49.000Z</time>
      </trkpt>
      <trkpt lat="44.4193" lon="6.08584">
        <ele>1404.5</ele>
        <time>2020-09-05T09:42:50.000Z</time>
      </trkpt>
      <trkpt lat="44.41943" lon="6.08582">
        <ele>1402.3</ele>
        <time>2020-09-05T09:42:52.000Z</time>
      </trkpt>
      <trkpt lat="44.41953" lon="6.08579">
        <ele>1402.4</ele>
        <time>2020-09-05T09:42:54.000Z</time>
      </trkpt>
      <trkpt lat="44.41961" lon="6.08579">
        <ele>1400.9</ele>
        <time>2020-09-05T09:42:56.000Z</time>
      </trkpt>
      <trkpt lat="44.41973" lon="6.08583">
        <ele>1399.1</ele>
        <time>2020-09-05T09:42:58.000Z</time>
      </trkpt>
      <trkpt lat="44.41978" lon="6.08583">
        <ele>1399.7</ele>
        <time>2020-09-05T09:42:59.000Z</time>
      </trkpt>
      <trkpt lat="44.41989" lon="6.08577">
        <ele>1398.3</ele>
        <time>2020-09-05T09:43:01.000Z</time>
      </trkpt>
      <trkpt lat="44.41994" lon="6.08573">
        <ele>1396.9</ele>
        <time>2020-09-05T09:43:02.000Z</time>
      </trkpt>
      <trkpt lat="44.42006" lon="6.0857">
        <ele>1392.2</ele>
        <time>2020-09-05T09:43:04.000Z</time>
      </trkpt>
      <trkpt lat="44.42012" lon="6.08569">
        <ele>1392.6</ele>
        <time>2020-09-05T09:43:05.000Z</time>
      </trkpt>
      <trkpt lat="44.42019" lon="6.08571">
        <ele>1392.7</ele>
        <time>2020-09-05T09:43:06.000Z</time>
      </trkpt>
    </trkseg>
  </trk>
</gpx>